[[{"header":{"parameterUnit":"m.s-1","parameterCategory":1,"la1":30.6,"la2":28.766,"lo1":-90.7593,"lo2":-88.6598,"dy":0.0162,"dx":0.0183,"nx":116,"ny":114,"refTime":"2024-05-10T12:00:00:Z","depth":0,"parameterNumber":2,"parameterNumberName":"U-component_of_WINDS"},"data":[0.0,0.0,0.0,0.0,0.0,0.0,0.0,0.0,0.0,0.0,0.0,0.0,0.0,0.0,0.0,0.0,0.0,0.0,0.0,0.0,0.0,0.0,0.0,0.0,0.0,0.0,0.0,0.0,0.0,0.0,0.0,0.0,0.0,0.0,0.0,0.0,0.0,0.0,0.0,0.0,0.0,0.0,0.0,0.0,0.0,0.0,0.0,0.0,0.0,0.0,0.0,0.0,0.0,0.0,0.0,0.0,0.0,0.0,0.0,0.0,0.0,0.0,0.0,0.0,0.0,0.0,0.0,0.0,0.0,0.0,0.0,0.0,0.0,0.0,0.0,0.0,0.0,0.0,0.0,0.0,0.0,0.0,0.0,0.0,0.0,0.0,0.0,0.0,0.0,0.0,0.0,0.0,0.0,0.0,0.0,0.0,0.0,0.0,0.0,0.0,0.0,0.0,0.0,0.0,0.0,0.0,0.0,0.0,0.0,0.0,0.0,0.0,0.0,0.0,0.0,0.0,0.0,0.0,0.0,0.0,0.0,0.0,0.0,0.0,0.0,0.0,0.0,0.0,0.0,0.0,0.0,0.0,0.0,0.0,0.0,0.0,0.0,0.0,0.0,0.0,0.0,0.0,0.0,0.0,0.0,0.0,0.0,0.0,0.0,0.0,0.0,0.0,0.0,0.0,0.0,0.0,0.0,0.0,0.0,0.0,0.0,0.0,0.0,0.0,0.0,0.0,0.0,0.0,0.0,0.0,0.0,0.0,0.0,0.0,0.0,0.0,0.0,0.0,0.0,0.0,0.0,0.0,0.0,0.0,0.0,0.0,0.0,0.0,0.0,0.0,0.0,0.0,0.0,0.0,0.0,0.0,0.0,0.0,0.0,0.0,0.0,0.0,0.0,0.0,0.0,0.0,0.0,0.0,0.0,0.0,0.0,0.0,0.0,0.0,0.0,0.0,0.0,0.0,0.0,0.0,0.0,0.0,0.0,0.0,0.0,0.0,0.0,0.0,0.0,0.0,0.0,0.0,0.0,0.0,0.0,0.0,0.0,0.0,0.0,0.0,0.0,0.0,0.0,0.0,0.0,0.0,0.0,0.0,0.0,0.0,0.0,0.0,0.0,0.0,0.0,0.0,0.0,0.0,0.0,0.0,0.0,0.0,0.0,0.0,0.0,0.0,0.0,0.0,0.0,0.0,0.0,0.0,0.0,0.0,0.0,0.0,0.0,0.0,0.0,0.0,0.0,0.0,0.0,0.0,0.0,0.0,0.0,0.0,0.0,0.0,0.0,0.0,0.0,0.0,0.0,0.0,0.0,0.0,0.0,0.0,0.0,0.0,0.0,0.0,0.0,0.0,0.0,0.0,0.0,0.0,0.0,0.0,0.0,0.0,0.0,0.0,0.0,0.0,0.0,0.0,0.0,0.0,0.0,0.0,0.0,0.0,0.0,0.0,0.0,0.0,0.0,0.0,0.0,0.0,0.0,0.0,0.0,0.0,0.0,0.0,0.0,0.0,0.0,0.0,0.0,0.0,0.0,0.0,0.0,0.0,0.0,0.0,0.0,0.0,0.0,0.0,0.0,0.0,0.0,0.0,0.0,0.0,0.0,0.0,0.0,0.0,0.0,0.0,0.0,0.0,0.0,0.0,0.0,0.0,0.0,0.0,0.0,0.0,0.0,0.0,0.0,0.0,0.0,0.0,0.0,0.0,0.0,0.0,0.0,0.0,0.0,0.0,0.0,0.0,0.0,0.0,0.0,0.0,0.0,0.0,0.0,0.0,0.0,0.0,0.0,0.0,0.0,0.0,0.0,0.0,0.0,0.0,0.0,0.0,0.0,0.0,0.0,0.0,0.0,0.0,0.0,0.0,0.0,0.0,0.0,0.0,0.0,0.0,0.0,0.0,0.0,0.0,0.0,0.0,0.0,0.0,0.0,0.0,0.0,0.0,0.0,0.0,0.0,0.0,0.0,0.0,0.0,0.0,0.0,0.0,0.0,0.0,0.0,0.0,0.0,0.0,0.0,0.0,0.0,0.0,0.0,0.0,0.0,0.0,0.0,0.0,0.0,0.0,0.0,0.0,0.0,0.0,0.0,0.0,0.0,0.0,0.0,0.0,0.0,0.0,0.0,0.0,0.0,0.0,0.0,0.0,0.0,0.0,0.0,0.0,0.0,0.0,0.0,0.0,0.0,0.0,0.0,0.0,0.0,0.0,0.0,0.0,0.0,0.0,0.0,0.0,0.0,0.0,0.0,0.0,0.0,0.0,0.0,0.0,0.0,0.0,0.0,0.0,0.0,0.0,0.0,0.0,0.0,0.0,0.0,0.0,0.0,0.0,0.0,0.0,0.0,0.0,0.0,0.0,0.0,0.0,0.0,0.0,0.0,0.0,0.0,0.0,0.0,0.0,0.0,0.0,0.0,0.0,0.0,0.0,0.0,0.0,0.0,0.0,0.0,0.0,0.0,0.0,0.0,0.0,0.0,0.0,0.0,0.0,0.0,0.0,0.0,0.0,0.0,0.0,0.0,0.0,0.0,0.0,0.0,0.0,0.0,0.0,0.0,0.0,0.0,0.0,0.0,0.0,0.0,0.0,0.0,0.0,0.0,0.0,0.0,0.0,0.0,0.0,0.0,0.0,0.0,0.0,0.0,0.0,0.0,0.0,0.0,0.0,0.0,0.0,0.0,0.0,0.0,0.0,0.0,0.0,0.0,0.0,0.0,0.0,0.0,0.0,0.0,0.0,0.0,0.0,0.0,0.0,0.0,0.0,0.0,0.0,0.0,0.0,0.0,0.0,0.0,0.0,0.0,0.0,0.0,0.0,0.0,0.0,0.0,0.0,0.0,0.0,0.0,0.0,0.0,0.0,0.0,0.0,0.0,0.0,0.0,0.0,0.0,0.0,0.0,0.0,0.0,0.0,0.0,0.0,0.0,0.0,0.0,0.0,0.0,0.0,0.0,0.0,0.0,0.0,0.0,0.0,0.0,0.0,0.0,0.0,0.0,0.0,0.0,0.0,0.0,0.0,0.0,0.0,0.0,0.0,0.0,0.0,0.0,0.0,0.0,0.0,0.0,0.0,0.0,0.0,0.0,0.0,0.0,0.0,0.0,0.0,0.0,0.0,0.0,0.0,0.0,0.0,0.0,0.0,0.0,0.0,0.0,0.0,0.0,0.0,0.0,0.0,0.0,0.0,0.0,0.0,0.0,0.0,0.0,0.0,0.0,0.0,0.0,0.0,0.0,0.0,0.0,0.0,0.0,0.0,0.0,0.0,0.0,0.0,0.0,0.0,0.0,0.0,0.0,0.0,0.0,0.0,0.0,0.0,0.0,0.0,0.0,0.0,0.0,0.0,0.0,0.0,0.0,0.0,0.0,0.0,0.0,0.0,0.0,0.0,0.0,0.0,0.0,0.0,0.0,0.0,0.0,0.0,0.0,0.0,0.0,0.0,0.0,0.0,0.0,0.0,0.0,0.0,0.0,0.0,0.0,0.0,0.0,0.0,0.0,0.0,0.0,0.0,0.0,0.0,0.0,0.0,0.0,0.0,0.0,0.0,0.0,0.0,0.0,0.0,0.0,0.0,0.0,0.0,0.0,0.0,0.0,0.0,0.0,0.0,0.0,0.0,0.0,0.0,0.0,0.0,0.0,0.0,0.0,0.0,0.0,0.0,0.0,0.0,0.0,0.0,0.0,0.0,0.0,0.0,0.0,0.0,0.0,0.0,0.0,0.0,0.0,0.0,0.0,0.0,0.0,0.0,0.0,0.0,0.0,0.0,0.0,0.0,0.0,0.0,0.0,0.0,0.0,0.0,0.0,0.0,0.0,0.0,0.0,0.0,0.0,0.0,0.0,0.0,0.0,0.0,0.0,0.0,0.0,0.0,0.0,0.0,0.0,0.0,0.0,0.0,0.0,0.0,0.0,0.0,0.0,0.0,0.0,0.0,0.0,0.0,0.0,0.0,0.0,0.0,0.0,0.0,0.0,0.0,0.0,0.0,0.0,0.0,0.0,0.0,0.0,0.0,0.0,0.0,0.0,0.0,0.0,0.0,0.0,0.0,0.0,0.0,0.0,0.0,0.0,0.0,0.0,0.0,0.0,0.0,0.0,0.0,0.0,0.0,0.0,0.0,0.0,0.0,0.0,0.0,0.0,0.0,0.0,0.0,0.0,0.0,0.0,0.0,0.0,0.0,0.0,0.0,0.0,0.0,0.0,0.0,0.0,0.0,0.0,0.0,0.0,0.0,0.0,0.0,0.0,0.0,0.0,0.0,0.0,0.0,0.0,0.0,0.0,0.0,0.0,0.0,0.0,0.0,0.0,0.0,0.0,0.0,0.0,0.0,0.0,0.0,0.0,0.0,0.0,0.0,0.0,0.0,0.0,0.0,0.0,0.0,0.0,0.0,0.0,0.0,0.0,0.0,0.0,0.0,0.0,0.0,0.0,0.0,0.0,0.0,0.0,0.0,0.0,0.0,0.0,0.0,0.0,0.0,0.0,0.0,0.0,0.0,0.0,0.0,0.0,0.0,0.0,0.0,0.0,0.0,0.0,0.0,0.0,0.0,0.0,0.0,0.0,0.0,0.0,0.0,0.0,0.0,0.0,0.0,0.0,0.0,0.0,0.0,0.0,0.0,0.0,0.0,0.0,0.0,0.0,0.0,0.0,0.0,0.0,0.0,0.0,0.0,0.0,0.0,0.0,0.0,0.0,0.0,0.0,0.0,0.0,0.0,0.0,0.0,0.0,0.0,0.0,0.0,0.0,0.0,0.0,0.0,0.0,0.0,0.0,0.0,0.0,0.0,0.0,0.0,0.0,0.0,0.0,0.0,0.0,0.0,0.0,0.0,0.0,0.0,0.0,0.0,0.0,0.0,0.0,0.0,0.0,0.0,0.0,0.0,0.0,0.0,0.0,0.0,0.0,0.0,0.0,0.0,0.0,0.0,0.0,0.0,0.0,0.0,0.0,0.0,0.0,0.0,0.0,0.0,0.0,0.0,0.0,0.0,0.0,0.0,0.0,0.0,0.0,0.0,0.0,0.0,0.0,0.0,0.0,0.0,0.0,0.0,0.0,0.0,0.0,0.0,0.0,0.0,0.0,0.0,0.0,0.0,0.0,0.0,0.0,0.0,0.0,0.0,0.0,0.0,0.0,0.0,0.0,0.0,0.0,0.0,0.0,0.0,0.0,0.0,0.0,0.0,0.0,0.0,0.0,0.0,0.0,0.0,0.0,0.0,0.0,0.0,0.0,0.0,0.0,0.0,0.0,0.0,0.0,0.0,0.0,0.0,0.0,0.0,0.0,0.0,0.0,0.0,0.0,0.0,0.0,0.0,0.0,0.0,0.0,0.0,0.0,0.0,0.0,0.0,0.0,0.0,0.0,0.0,0.0,0.0,0.0,0.0,0.0,0.0,0.0,0.0,0.0,0.0,0.0,0.0,0.0,0.0,0.0,0.0,0.0,0.0,0.0,0.0,0.0,0.0,0.0,0.0,0.0,0.0,0.0,0.0,0.0,0.0,0.0,0.0,0.0,0.0,0.0,0.0,0.0,0.0,0.0,0.0,0.0,0.0,0.0,0.0,0.0,0.0,0.0,0.0,0.0,0.0,0.0,0.0,0.0,0.0,0.0,0.0,0.0,0.0,0.0,0.0,0.0,0.0,0.0,0.0,0.0,0.0,0.0,0.0,0.0,0.0,0.0,0.0,0.0,0.0,0.0,0.0,0.0,0.0,0.0,0.0,0.0,0.0,0.0,0.0,0.0,0.0,0.0,0.0,0.0,0.0,0.0,0.0,0.0,0.0,0.0,0.0,0.0,0.0,0.0,0.0,0.0,0.0,0.0,0.0,0.0,0.0,0.0,0.0,0.0,0.0,0.0,0.0,0.0,0.0,0.0,0.0,0.0,0.0,0.0,0.0,0.0,0.0,0.0,0.0,0.0,0.0,0.0,0.0,0.0,0.0,0.0,0.0,0.0,0.0,0.0,0.0,0.0,0.0,0.0,0.0,0.0,0.0,0.0,0.0,0.0,0.0,0.0,0.0,0.0,0.0,0.0,0.0,0.0,0.0,0.0,0.0,0.0,0.0,0.0,0.0,0.0,0.0,-4.0977,-4.0776,0.0,0.0,0.0,0.0,0.0,0.0,0.0,0.0,0.0,0.0,0.0,0.0,0.0,0.0,0.0,0.0,0.0,0.0,0.0,0.0,0.0,0.0,0.0,-4.0593,-4.0545,-4.0403,-4.0334,-4.0247,-4.0156,0.0,0.0,0.0,0.0,0.0,-3.9943,-3.9683,-3.9458,-3.9229,-3.9229,-3.9275,-3.9301,-3.9221,-3.8979,-3.8566,0.0,0.0,0.0,0.0,0.0,0.0,0.0,0.0,0.0,0.0,0.0,0.0,0.0,0.0,0.0,0.0,0.0,0.0,0.0,0.0,0.0,0.0,0.0,0.0,0.0,0.0,0.0,0.0,0.0,0.0,0.0,0.0,0.0,0.0,0.0,0.0,0.0,0.0,0.0,0.0,0.0,0.0,0.0,0.0,0.0,0.0,0.0,0.0,0.0,0.0,0.0,0.0,0.0,0.0,0.0,0.0,0.0,0.0,0.0,0.0,0.0,0.0,0.0,0.0,0.0,0.0,0.0,0.0,0.0,0.0,-4.1472,-4.1053,0.0,0.0,0.0,0.0,0.0,0.0,0.0,0.0,0.0,0.0,0.0,0.0,0.0,0.0,0.0,0.0,0.0,0.0,0.0,0.0,0.0,-4.0607,-4.0629,-4.0642,-4.0629,-4.0559,-4.045,-4.0419,-4.0481,-4.0434,-4.0466,-4.0642,-4.0481,-4.0283,-4.0062,-3.9819,-3.959,-3.9432,-3.9425,-3.9418,-3.9418,-3.9418,-3.9175,-3.873,-3.798,0.0,0.0,0.0,0.0,0.0,0.0,0.0,0.0,0.0,0.0,0.0,0.0,0.0,0.0,0.0,0.0,0.0,0.0,0.0,0.0,0.0,0.0,0.0,0.0,0.0,0.0,0.0,0.0,0.0,0.0,0.0,0.0,0.0,0.0,0.0,0.0,0.0,0.0,0.0,0.0,0.0,0.0,0.0,0.0,0.0,0.0,0.0,0.0,0.0,0.0,0.0,0.0,0.0,0.0,0.0,0.0,0.0,0.0,0.0,0.0,0.0,0.0,0.0,-4.2995,-4.3196,-4.3497,-4.316,-4.2655,-4.2038,-4.2139,-4.1516,-4.0485,-4.0728,0.0,0.0,0.0,0.0,0.0,0.0,0.0,0.0,0.0,0.0,0.0,0.0,0.0,0.0,0.0,0.0,0.0,0.0,0.0,-4.0707,-4.0779,-4.0819,-4.0859,-4.0849,-4.0788,-4.0764,-4.0839,-4.0757,-4.0776,-4.0849,-4.0713,-4.0549,-4.0353,-4.0082,-3.9819,-3.9571,-3.9514,-3.9495,-3.9495,-3.9495,-3.9328,-3.9027,-3.867,-3.8114,-3.7376,0.0,0.0,0.0,0.0,0.0,0.0,0.0,0.0,0.0,0.0,0.0,0.0,0.0,0.0,0.0,0.0,0.0,0.0,0.0,0.0,0.0,0.0,0.0,0.0,0.0,0.0,0.0,0.0,0.0,0.0,0.0,0.0,0.0,0.0,0.0,0.0,0.0,0.0,0.0,0.0,0.0,-3.8627,-3.8707,0.0,0.0,0.0,0.0,0.0,0.0,0.0,0.0,0.0,0.0,0.0,0.0,0.0,-4.3479,-4.341,-4.341,-4.341,-4.341,-4.341,-4.3444,-4.3497,-4.3463,-4.2958,-4.2157,-4.208,0.0,-4.0337,-4.0485,0.0,0.0,0.0,0.0,0.0,0.0,0.0,0.0,0.0,0.0,0.0,0.0,0.0,0.0,0.0,0.0,0.0,0.0,0.0,0.0,0.0,-4.0849,-4.0888,-4.0846,-4.0827,-4.0831,-4.0898,-4.0868,-4.0877,-4.0907,-4.0828,-4.07,-4.0454,-4.0266,-4.0003,-3.9656,-3.9588,-3.9571,-3.9571,-3.9571,-3.9283,-3.8807,-3.8579,-3.8147,-3.7596,-3.7034,0.0,0.0,0.0,0.0,0.0,0.0,0.0,0.0,0.0,0.0,0.0,0.0,0.0,0.0,0.0,0.0,0.0,0.0,0.0,0.0,0.0,0.0,0.0,0.0,0.0,0.0,0.0,0.0,0.0,0.0,0.0,0.0,0.0,0.0,0.0,0.0,0.0,0.0,0.0,-3.8921,-3.9145,-3.9751,-3.9944,-4.0261,0.0,0.0,0.0,0.0,0.0,0.0,0.0,0.0,0.0,-4.3479,-4.3497,-4.3497,-4.3497,-4.3497,-4.3497,-4.3497,-4.3497,-4.3497,-4.3497,-4.3497,-4.2995,-4.2198,-4.2139,-4.1516,-4.0502,-4.0485,-4.0436,-4.0305,0.0,0.0,0.0,0.0,-4.0188,-4.007,0.0,0.0,0.0,0.0,0.0,0.0,0.0,0.0,0.0,0.0,0.0,0.0,-4.0839,-4.0869,-4.0878,-4.0831,-4.0796,-4.0831,-4.0898,-4.0897,-4.0906,-4.0924,-4.0924,-4.0829,-4.0615,-4.0446,-4.0175,-3.9788,-3.9758,-3.9703,-3.9631,-3.9631,-3.929,-3.8658,-3.8486,-3.8114,-3.7613,-3.6736,-3.6444,-3.6544,0.0,0.0,0.0,0.0,0.0,0.0,0.0,0.0,0.0,0.0,0.0,0.0,0.0,0.0,0.0,0.0,0.0,0.0,0.0,0.0,0.0,0.0,0.0,0.0,0.0,0.0,0.0,0.0,0.0,0.0,0.0,0.0,0.0,0.0,0.0,0.0,0.0,-3.9322,-3.9645,-4.0891,-4.0892,-4.113,0.0,0.0,0.0,0.0,0.0,0.0,-4.302,-4.3332,-4.3497,-4.3497,-4.3497,-4.3497,-4.3497,-4.3497,-4.3497,-4.3497,-4.3497,-4.3497,-4.3497,-4.3497,-4.3087,-4.2378,-4.2239,-4.1648,-4.0853,-4.0631,-4.0436,-4.0305,-4.0387,-4.0387,-4.0238,-4.0238,-4.0188,-4.007,0.0,0.0,0.0,0.0,0.0,0.0,0.0,0.0,0.0,0.0,0.0,-4.0915,-4.0981,-4.0941,-4.0907,-4.0898,-4.0846,-4.0834,-4.0898,-4.0896,-4.0929,-4.0987,-4.0987,-4.096,-4.0876,-4.0629,-4.0361,-4.0081,-4.0081,-3.9939,-3.9693,-3.9693,-3.9401,-3.8862,-3.8658,-3.8099,-3.7297,-3.6748,-3.6444,-3.6259,-3.5661,0.0,0.0,0.0,0.0,0.0,0.0,0.0,0.0,0.0,0.0,0.0,0.0,0.0,0.0,0.0,0.0,0.0,0.0,0.0,0.0,0.0,0.0,0.0,0.0,0.0,0.0,0.0,0.0,0.0,0.0,0.0,0.0,0.0,0.0,0.0,0.0,0.0,0.0,-4.1724,-4.1439,0.0,0.0,0.0,0.0,-4.4581,-4.4186,-4.3931,-4.3931,-4.3664,-4.3497,-4.3497,-4.3497,-4.3497,-4.3497,-4.3497,-4.3497,-4.3497,-4.3497,-4.3497,-4.3497,-4.3497,-4.3268,-4.2844,-4.2262,-4.1725,-4.123,-4.0853,-4.0551,-4.0305,-4.0305,-4.0238,-4.0121,-4.0121,-4.0138,-4.007,0.0,0.0,0.0,0.0,0.0,-4.078,-4.0827,-4.0886,-4.0952,-4.1027,-4.0987,-4.0968,-4.0998,-4.0945,-4.0878,-4.0839,-4.0807,-4.0839,-4.0904,-4.0935,-4.0992,-4.1003,-4.0996,-4.095,-4.0848,-4.0629,-4.0419,-4.0298,-4.0157,-4.0061,-3.996,-3.9766,-3.9458,-3.8961,-3.87,-3.8249,-3.7631,-3.6992,-3.655,-3.6259,-3.5854,-3.5253,0.0,0.0,0.0,0.0,0.0,0.0,0.0,0.0,0.0,0.0,0.0,0.0,0.0,0.0,0.0,0.0,0.0,0.0,0.0,0.0,0.0,0.0,0.0,0.0,0.0,0.0,0.0,0.0,0.0,0.0,0.0,0.0,0.0,0.0,0.0,0.0,0.0,-4.2294,-4.2305,0.0,-4.4237,-4.4585,-4.4718,-4.4781,-4.4624,-4.4493,-4.4493,-4.4072,-4.3905,-4.4084,-4.3712,-4.3615,-4.3814,-4.3615,-4.3497,-4.3497,-4.3497,-4.3497,-4.3497,-4.3497,-4.3268,-4.2882,-4.2655,-4.2139,-4.1428,-4.1265,-4.0836,-4.0305,-4.0305,-4.0238,-4.002,-3.9546,-3.9377,-3.9309,0.0,0.0,0.0,-4.0718,-4.081,-4.0875,-4.093,-4.0991,-4.1035,-4.1066,-4.1015,-4.0973,-4.0969,-4.0929,-4.0887,-4.0837,-4.0846,-4.089,-4.0896,-4.0937,-4.098,-4.1003,-4.0996,-4.0968,-4.0874,-4.0718,-4.0597,-4.0535,-4.0351,-4.0232,-4.0158,-3.9937,-3.958,-3.9109,-3.8857,-3.8455,-3.7967,-3.7243,-3.6678,-3.6224,-3.5633,-3.5102,-3.4739,0.0,0.0,0.0,0.0,0.0,0.0,0.0,0.0,0.0,0.0,0.0,0.0,0.0,0.0,0.0,0.0,0.0,0.0,0.0,0.0,0.0,0.0,0.0,0.0,0.0,0.0,0.0,0.0,0.0,0.0,0.0,0.0,0.0,0.0,-4.0437,-4.1146,-4.2984,-4.3195,-4.3668,-4.4848,-4.5173,-4.5213,-4.5,-4.4868,-4.48,-4.48,-4.4374,-4.4221,-4.4383,-4.3992,-4.3873,-4.4005,-4.3781,-4.3615,-4.3497,-4.3497,-4.3497,-4.3497,-4.3497,-4.3339,-4.3069,-4.2667,-4.2045,-4.1329,-4.0893,-4.0273,-3.9606,-3.9878,-3.9712,-3.9292,-3.8802,-3.8633,-3.8565,0.0,-4.0655,-4.0726,-4.081,-4.0922,-4.0994,-4.1015,-4.1066,-4.108,-4.1015,-4.0937,-4.0897,-4.0896,-4.0896,-4.0905,-4.0905,-4.0953,-4.0972,-4.0905,-4.0898,-4.0933,-4.0992,-4.0994,-4.0998,-4.0993,-4.0932,-4.0868,-4.08,-4.0675,-4.05,-4.0307,-4.0177,-3.9867,-3.9401,-3.9136,-3.8693,-3.815,-3.7469,-3.6803,-3.6088,-3.4975,-3.4851,-3.5198,0.0,0.0,0.0,0.0,0.0,0.0,0.0,0.0,0.0,0.0,0.0,0.0,0.0,0.0,0.0,0.0,0.0,0.0,0.0,0.0,0.0,0.0,0.0,0.0,0.0,0.0,0.0,0.0,0.0,0.0,0.0,0.0,0.0,-4.1361,-4.1495,-4.2125,-4.3806,-4.4017,-4.4341,-4.522,-4.5297,-4.5297,-4.5297,-4.5,-4.4819,-4.4819,-4.4546,-4.4411,-4.4411,-4.4402,-4.4279,-4.4017,-4.3986,-4.3846,-4.3532,-4.3532,-4.3497,-4.3497,-4.3461,-4.3442,-4.3406,-4.2141,-4.1391,-4.0967,-3.9741,-3.879,-3.8247,-3.9033,-3.8772,-3.7905,-3.7872,-3.7855,-3.7838,-4.0655,-4.0726,-4.082,-4.0992,-4.1051,-4.1097,-4.1132,-4.1125,-4.1086,-4.1066,-4.0976,-4.0917,-4.0964,-4.0964,-4.0976,-4.0964,-4.0987,-4.0977,-4.0894,-4.0894,-4.0929,-4.0992,-4.1055,-4.1077,-4.1072,-4.1011,-4.0957,-4.0945,-4.0809,-4.0674,-4.05,-4.0323,-4.0021,-3.9614,-3.9287,-3.8781,-3.8059,-3.725,-3.6626,-3.6097,-3.5498,-3.5118,-3.4851,0.0,0.0,0.0,0.0,0.0,0.0,0.0,0.0,0.0,0.0,0.0,0.0,0.0,0.0,0.0,0.0,0.0,0.0,0.0,0.0,0.0,0.0,0.0,0.0,0.0,0.0,0.0,0.0,0.0,0.0,0.0,-4.0215,-4.0501,-4.138,-4.1495,-4.2125,-4.3806,-4.4017,-4.4341,-4.522,-4.5297,-4.5297,-4.5297,-4.5194,-4.5173,-4.5173,-4.4843,-4.4676,-4.4676,-4.4318,-4.4181,-4.4289,-4.3841,-4.3716,-4.3878,-4.3615,-4.3497,-4.3461,-4.2892,-4.2635,-4.258,-4.162,-4.0995,-4.0526,-3.995,-3.8948,-3.7897,-3.8351,-3.8278,-3.7838,-3.7297,-3.6738,-3.6248,-4.0729,-4.0829,-4.0922,-4.1062,-4.1119,-4.1131,-4.1121,-4.1078,-4.1033,-4.0973,-4.0934,-4.0913,-4.0957,-4.1019,-4.1033,-4.1034,-4.1015,-4.0972,-4.094,-4.0901,-4.0857,-4.087,-4.0932,-4.0996,-4.1068,-4.1012,-4.0992,-4.0994,-4.0894,-4.0789,-4.0674,-4.0481,-4.0176,-3.9754,-3.9396,-3.882,-3.8026,-3.7232,-3.6487,-3.5803,-3.5407,-3.5118,-3.4947,-3.4835,-3.4643,-3.4399,-3.493,-3.4872,-3.4827,-3.6044,0.0,0.0,0.0,0.0,0.0,0.0,0.0,0.0,0.0,0.0,0.0,0.0,0.0,0.0,0.0,0.0,0.0,0.0,0.0,0.0,0.0,0.0,0.0,0.0,-4.0651,-4.1131,-4.1972,-4.2068,-4.2526,-4.3845,-4.4322,-4.4743,-4.5239,-4.5297,-4.5297,-4.5297,-4.5297,-4.5297,-4.5297,-4.5109,-4.4934,-4.48,-4.4511,-4.4308,-4.4221,-4.3873,-4.3749,-4.3781,-4.3582,-4.3314,-4.2983,-4.2506,-4.2121,-4.1754,-4.0946,-4.0245,-3.9643,-3.9117,-3.817,-3.7136,0.0,0.0,0.0,0.0,-3.6011,-3.5622,-4.082,-4.0929,-4.1023,-4.1091,-4.1168,-4.1167,-4.1022,-4.1006,-4.0964,-4.0839,-4.0879,-4.0918,-4.0906,-4.1015,-4.1097,-4.1091,-4.1047,-4.0987,-4.0967,-4.0839,-4.0752,-4.0691,-4.0766,-4.0873,-4.0995,-4.1001,-4.1007,-4.1003,-4.0948,-4.0885,-4.0781,-4.0617,-4.0315,-3.9941,-3.9505,-3.8869,-3.8008,-3.7287,-3.6388,-3.5459,-3.4897,-3.4899,-3.5245,-3.5198,-3.4994,-3.4739,-3.5195,-3.5015,-3.4681,-3.6024,0.0,0.0,0.0,0.0,0.0,0.0,0.0,0.0,0.0,0.0,0.0,0.0,0.0,0.0,0.0,0.0,0.0,0.0,0.0,0.0,0.0,0.0,0.0,0.0,-4.1088,-4.1913,-4.2809,-4.2948,-4.3272,-4.4075,-4.484,-4.5317,-4.5317,-4.5317,-4.5317,-4.5297,-4.5297,-4.5297,-4.5297,-4.5297,0.0,0.0,0.0,-4.4538,-4.4048,-4.3974,-4.3814,-4.3548,-4.3532,-4.3075,-4.2304,-4.2213,-4.1735,-4.0928,-4.007,-3.9288,-3.858,-3.7773,-3.6956,-3.6234,-3.6727,-3.6395,-3.5622,-3.5622,-3.5622,-3.5622,-4.0969,-4.1031,-4.1094,-4.1169,-4.1191,-4.117,-4.1085,-4.1078,-4.1055,-4.0976,-4.0977,-4.0977,-4.0982,-4.1054,-4.1099,-4.1097,-4.1033,-4.0918,-4.0757,-4.068,-4.0636,-4.0629,-4.0785,-4.0894,-4.0916,-4.1025,-4.1055,-4.0994,-4.1035,-4.0933,-4.0723,-4.0676,-4.0506,-4.0196,-3.9687,-3.913,-3.846,-3.7201,-3.626,-3.5525,-3.4721,-3.4546,-3.4787,-3.4707,-3.4594,-3.4594,-3.5135,-3.5148,-3.4985,-3.5205,-3.5839,-3.6696,-3.7259,-3.7565,0.0,0.0,0.0,0.0,0.0,0.0,0.0,0.0,0.0,0.0,0.0,0.0,0.0,0.0,0.0,0.0,0.0,0.0,0.0,-4.0615,-4.1239,-4.2002,-4.2915,-4.3553,-4.4212,-4.5036,-4.5284,-4.5398,-4.5398,-4.5398,-4.5359,-4.5297,-4.5297,-4.5297,-4.5297,-4.5297,-4.5151,-4.48,-4.4599,-4.443,-4.4318,-4.3841,-4.3716,-4.391,-4.3615,0.0,-4.2286,-4.1644,-4.0891,-4.0084,-3.8933,-3.837,-3.8164,-3.7337,-3.6638,-3.6036,-3.6059,-3.5847,-3.5622,-3.5622,-3.5622,-3.5622,-4.1103,-4.1125,-4.1168,-4.1191,-4.117,-4.114,-4.1066,-4.1017,-4.0959,-4.0863,-4.0905,-4.0944,-4.0892,-4.0968,-4.0969,-4.0922,-4.0807,-4.0653,-4.0415,-4.045,-4.0496,-4.0549,-4.0641,-4.0762,-4.0898,-4.0978,-4.1023,-4.1045,-4.1074,-4.103,-4.0902,-4.0791,-4.0591,-4.0274,-3.98,-3.92,-3.8479,-3.7183,-3.5966,-3.4864,-3.4268,-3.3882,-3.3799,-3.4102,-3.4234,-3.425,-3.4497,-3.4691,-3.4816,-3.502,-3.5617,-3.6423,-3.7556,-3.7864,-3.7857,0.0,0.0,0.0,0.0,0.0,0.0,0.0,0.0,0.0,0.0,0.0,0.0,0.0,0.0,-4.025,-4.0288,0.0,-4.0527,-4.0623,-4.1668,-4.2637,-4.3169,-4.4225,-4.5066,-4.5362,-4.54,-4.54,-4.54,-4.54,-4.538,-4.5359,-4.5338,-4.5338,-4.5297,-4.5297,-4.5151,-4.48,-4.4676,-4.4546,-4.4383,-4.3968,-4.3846,-4.4005,-4.3649,-4.2873,-4.1699,-4.1295,-4.0451,-3.9276,-3.8647,-3.8168,-3.7739,-3.6939,-3.6367,-3.5975,-3.5949,-3.5756,-3.5622,-3.5622,-3.5622,-3.5622,-4.1191,-4.1191,-4.1191,-4.1191,-4.1167,-4.1085,-4.1006,-4.0937,-4.0874,-4.075,-4.0827,-4.0874,-4.0797,-4.0825,-4.0816,-4.0692,-4.0565,-4.0408,-4.0195,-4.0325,-4.0411,-4.045,-4.0504,-4.0588,-4.0818,-4.0866,-4.0942,-4.1072,-4.1089,-4.1091,-4.106,-4.0832,-4.0583,-4.0273,-3.9643,-3.896,-3.8204,-3.6849,-3.553,-3.4266,-3.3802,-3.3261,-3.2873,-3.3543,-3.3764,-3.3781,-3.3882,-3.4084,-3.435,-3.5119,-3.5504,-3.598,-3.7565,-3.8007,-3.8011,-3.8277,-3.8597,0.0,0.0,0.0,0.0,0.0,0.0,0.0,0.0,-4.0157,-4.0389,-4.0492,-4.0508,-4.0492,-4.0499,-4.0499,-4.0523,-4.063,-4.1938,-4.3053,-4.3365,-4.4606,-4.5491,-4.5488,-4.5456,-4.5419,-4.5419,-4.5419,-4.5419,-4.5399,-4.5399,-4.5379,-4.5297,-4.5317,-4.5194,-4.491,-4.4825,-4.4701,-4.4465,-4.4221,-4.4048,-4.4005,-4.3716,-4.272,-4.1111,-4.1111,-4.023,-3.8707,-3.8515,-3.8016,-3.7208,-3.6557,-3.6191,-3.5975,-3.5975,-3.58,-3.5622,-3.5622,-3.5622,-3.5622,-4.1191,-4.1191,-4.1191,-4.1191,-4.1191,-4.1144,-4.1031,-4.0987,-4.096,-4.0887,-4.0897,-4.0848,-4.0727,-4.0721,-4.0694,-4.0623,-4.0538,-4.0487,-4.0473,-4.043,-4.0379,-4.0323,-4.0441,-4.0519,-4.0549,-4.0776,-4.0906,-4.0915,-4.1039,-4.1035,-4.093,-4.0654,-4.0442,-4.0238,-3.8779,-3.8021,-3.7733,-3.5719,-3.4648,-3.4315,-3.3527,-3.3058,-3.2897,-3.3005,-3.3102,-3.3355,-3.3834,-3.3716,-3.3543,-3.5068,-3.553,-3.5657,-3.7009,-3.7898,-3.8564,-3.8844,-3.9063,-3.9327,-3.9641,-3.9709,-3.9775,-4.0022,-3.9791,-3.9698,0.0,-4.0139,-3.9998,-4.0413,-4.0499,-4.0499,-4.0508,-4.0508,-4.0559,-4.0751,-4.1501,-4.2385,-4.3354,-4.4209,-4.5002,-4.5759,-4.5638,-4.5495,-4.5495,-4.5495,-4.5457,-4.5399,-4.5419,-4.538,-4.5317,-4.5378,-4.5338,-4.5256,-4.4957,-4.4776,-4.4751,-4.4493,-4.425,-4.4005,-4.3974,-4.2931,-4.1111,-4.1111,-4.023,-3.8676,-3.7948,-3.717,-3.6409,-3.6276,-3.6122,-3.5975,-3.5861,-3.5728,-3.5622,-3.5622,-3.5622,-3.5622,-4.1191,-4.1169,-4.1147,-4.1191,-4.1169,-4.1114,-4.1006,-4.0972,-4.0906,-4.0804,-4.0823,-4.0815,-4.0707,-4.0622,-4.0565,-4.0496,-4.0462,-4.0415,-4.0317,-4.0411,-4.0432,-4.0362,-4.0377,-4.0408,-4.0489,-4.0457,-4.0578,-4.0907,-4.0797,-4.0805,-4.089,-4.063,-4.0149,-3.9431,-3.8126,-3.7228,-3.6535,-3.4688,-3.3712,-3.3326,-3.2671,-3.2176,-3.1853,-3.2079,-3.2231,-3.2336,-3.3303,-3.3836,0.0,-3.4303,-3.4895,-3.5745,-3.7159,-3.829,-3.9113,-3.9053,-3.9275,-3.9515,-3.9735,-3.9797,-3.9819,-3.9943,-3.9941,-3.9941,-4.0062,-4.0158,-4.0233,-4.0306,-4.0411,-4.0492,-4.0489,-4.0489,-4.0574,-4.0771,-4.148,-4.2199,-4.2783,-4.3929,-4.4857,-4.5226,-4.5534,-4.5728,-4.5677,-4.5661,-4.5616,-4.5477,-4.5457,-4.5438,-4.5361,-4.538,-4.5398,-4.5359,-4.5194,-4.5,-4.48,-4.4519,-4.4279,-4.3986,-4.3333,-4.2327,-4.1093,-4.0616,-3.9658,-3.8336,-3.7756,-3.717,-3.6638,-3.6385,-3.6148,-3.5975,-3.5932,-3.58,-3.5622,-3.5622,-3.5622,-3.5577,-4.1168,-4.1146,-4.1144,-4.1191,-4.1168,-4.1091,-4.1047,-4.096,-4.0888,-4.0769,-4.0784,-4.0759,-4.0654,-4.053,-4.045,-4.0419,-4.0422,-4.0386,-4.0319,-4.0427,-4.043,-4.0307,-4.0233,-4.0214,-4.025,-3.9967,-4.0111,-4.0718,-4.0477,-4.0401,-4.0508,-4.016,-3.9348,-3.8152,-3.673,-3.5675,-3.4726,-3.2873,-3.1874,-3.1425,-3.1312,-3.1013,-3.0616,-3.1334,-3.1652,-3.1823,-3.2841,-3.3633,-3.417,-3.406,-3.4517,-3.5483,-3.7341,-3.8742,-3.9657,-3.9425,-3.9584,-3.9887,-3.9984,-3.9984,-3.9984,-3.9984,-4.0101,-4.0158,-4.0023,-4.0157,-4.0302,-4.0286,-4.0356,-4.0422,-4.0489,-4.0489,-4.0574,-4.0771,-4.1335,-4.1891,-4.2346,-4.3402,-4.4234,-4.4468,-4.518,-4.5619,-4.5541,-4.5699,-4.5723,-4.5582,-4.5549,-4.5495,-4.54,-4.54,-4.5399,-4.5398,-4.5338,-4.5173,-4.4934,-4.465,-4.4261,-4.3755,-4.2852,-4.1834,-4.0744,-3.9937,-3.9013,-3.8068,-3.7685,-3.7266,-3.686,-3.6468,-3.6191,-3.6036,-3.5975,-3.5844,-3.5622,-3.5424,-3.547,-3.5515,-4.1091,-4.1147,-4.1191,-4.1191,-4.1191,-4.117,-4.1111,-4.1047,-4.096,-4.0897,-4.0854,-4.0713,-4.0526,-4.0383,-4.0367,-4.0496,-4.05,-4.0523,-4.0573,-4.0523,-4.0336,-4.0042,-3.9943,-3.9835,-3.9623,-3.9288,-3.9515,-4.0312,-4.0042,-3.9794,-3.9529,-3.8991,-3.7941,-3.6379,-3.4118,-3.2921,-3.2337,-2.9898,-2.8733,-2.8581,-2.944,-2.9636,-2.9608,-3.0925,-3.1751,-3.2231,-3.2641,-3.2841,-3.313,-3.4841,-3.484,-3.4523,-3.7308,-3.9092,-4.0155,-4.0023,-4.0262,-4.0558,-4.0508,-4.0473,-4.0473,-4.0473,-4.0339,-4.0251,-4.0441,-4.0138,-3.9944,-4.0406,-4.0339,-4.0269,-4.0473,-4.0489,-4.0574,-4.0771,-4.083,-4.121,-4.2249,-4.2432,-4.2783,-4.3626,-4.4501,-4.4987,-4.4844,-4.5429,-4.5766,-4.5703,-4.5632,-4.555,-4.5419,-4.54,-4.54,-4.5398,-4.5338,-4.5297,-4.5277,-4.4957,-4.4254,-4.3219,-4.2853,-4.1718,-3.99,-3.9111,-3.8501,-3.8068,-3.7685,-3.7266,-3.686,-3.6402,-3.6225,-3.6182,-3.5905,-3.5817,-3.5728,-3.5068,-3.5178,-3.5622,-4.1085,-4.1116,-4.1146,-4.1191,-4.1191,-4.1191,-4.1169,-4.1114,-4.1033,-4.0986,-4.0917,0.0,0.0,0.0,0.0,0.0,-4.0673,-4.0626,-4.066,-4.0438,-4.0174,-3.9867,-3.9671,-3.9283,-3.8617,-3.8327,-3.6967,-3.454,-3.0066,-2.8974,-3.091,-2.393,-2.3885,-2.9557,-2.5841,-2.5229,-2.6916,-2.5657,-2.5401,-2.5895,-2.6059,-2.6432,-2.7012,-2.8366,-2.9212,-3.0024,0.0,-3.3677,-3.4662,-3.5987,-3.659,-3.7,-3.8149,-3.9545,-4.071,-4.0623,-4.0578,-4.0549,-4.0604,-4.0623,-4.0602,-4.0519,-4.0457,-4.0372,-4.0321,-4.0285,-4.0285,-4.0304,-4.0356,-4.0425,-4.0489,-4.0489,-4.0574,-4.0771,-4.081,-4.0976,-4.1468,-4.2045,-4.2513,-4.2806,-4.4114,-4.4985,-4.4933,-4.5577,-4.5928,-4.578,-4.5757,-4.5648,-4.5495,-4.5419,-4.54,-4.5398,-4.5338,-4.5194,-4.4957,-4.4335,-4.3627,-4.2845,-4.1477,-4.0228,-3.9093,-3.8561,-3.8068,-3.7685,-3.7283,-3.686,-3.6492,-3.6276,-3.6122,-3.6036,-3.5861,-3.5773,-3.5622,-3.5424,-3.5224,-3.4975,0.0,-4.1088,-4.1146,-4.1191,-4.1191,0.0,0.0,0.0,0.0,0.0,0.0,0.0,0.0,0.0,0.0,0.0,0.0,-4.0733,-4.0668,-4.0403,-4.0062,-3.9662,-3.8824,-3.7979,-3.7198,-3.5449,-3.2706,-2.9009,-2.2511,-1.9857,-2.0708,-1.3429,-1.3461,-1.9528,-1.8073,-1.8564,-2.0483,-2.1041,-2.1723,-2.2437,-2.3515,-2.4543,-2.5615,-2.7499,-2.8675,0.0,-3.2435,-3.4231,-3.5487,-3.6875,-3.7725,-3.8322,-3.8929,-3.9973,-4.0967,-4.091,-4.0768,-4.0634,-4.0712,-4.0726,-4.0694,-4.0588,-4.0534,-4.0473,-4.0339,-4.0356,-4.0372,-4.0358,-4.0375,-4.0425,-4.0523,-4.0523,-4.0574,-4.0771,-4.081,-4.0871,-4.1078,-4.1576,-4.1947,-4.1947,-4.3469,-4.4543,-4.4543,-4.5533,-4.6111,-4.5925,-4.5848,-4.5737,-4.561,-4.5475,-4.54,-4.5399,-4.5032,-4.4737,-4.452,-4.3596,-4.269,-4.1805,-4.0234,-3.9203,-3.8676,-3.8289,-3.7949,-3.7685,-3.7132,-3.6741,-3.6492,-3.6293,-3.6148,-3.6028,-3.5844,-3.5756,-3.565,-3.5424,-3.4975,-3.4431,0.0,0.0,-4.1191,0.0,0.0,0.0,0.0,0.0,0.0,0.0,0.0,0.0,0.0,0.0,0.0,0.0,0.0,0.0,-4.0621,-4.0399,-4.0005,-3.9416,-3.752,-3.6143,-3.5432,-3.1052,-2.731,-2.4234,-1.7446,-1.2596,-0.9729,-0.7288,-0.645,-0.7183,-1.0899,-1.2866,-1.3614,-1.6339,-1.7777,-1.8545,-2.1829,-2.3902,-2.535,-2.8099,-2.9846,-3.1188,-3.3069,-3.4391,-3.5617,-3.7553,-3.8247,-3.8503,-3.9576,-4.0341,-4.0876,-4.0881,-4.0838,-4.0797,-4.0804,-4.0752,-4.0715,-4.0687,-4.0602,-4.0504,-4.0489,-4.0339,-4.0269,-4.0527,-4.0375,-4.0269,-4.0543,-4.0539,-4.0554,-4.0771,-4.081,-4.0871,-4.1078,-4.1108,-4.1108,-4.1108,-4.2591,-4.3645,-4.3704,-4.5246,-4.6206,-4.6112,-4.5936,-4.5802,-4.5796,-4.5522,-4.5343,-4.5322,-4.4439,-4.394,-4.394,-4.2791,-4.1569,-4.0235,-3.9202,-3.8707,-3.8676,-3.8292,-3.8072,-3.8052,-3.7246,-3.69,-3.6821,-3.6402,-3.6216,-3.6147,-3.5888,-3.5756,-3.5677,-3.5005,-3.4431,-3.402,0.0,0.0,0.0,0.0,0.0,0.0,0.0,0.0,0.0,0.0,0.0,0.0,0.0,0.0,0.0,0.0,0.0,0.0,-4.0759,-4.0279,-3.9768,-3.9269,-3.7205,-3.5572,-3.4564,-3.0507,-2.6458,-2.24,-0.9282,-0.336,-0.4097,0.625,0.6946,-0.0573,-0.2594,-0.6263,-1.1128,-1.3074,-1.5561,-1.8479,-2.0188,-2.2105,-2.4224,-2.6945,-2.8732,-3.0279,-3.3102,-3.4651,-3.56,-3.77,-3.9083,-3.9941,-4.0136,-4.0285,-4.0428,-4.0686,-4.0691,-4.0676,-4.083,-4.0867,-4.0822,-4.0721,-4.0667,-4.0577,-4.0336,-4.0288,-4.0288,-4.0306,-4.0139,-4.0101,-4.0508,-4.0425,-4.0386,-4.0672,-4.0771,-4.0855,-4.1006,-4.107,-4.1108,-4.1108,-4.2064,-4.2982,-4.3645,-4.4699,-4.5594,-4.6206,-4.6103,-4.5939,-4.5742,-4.5026,-4.4593,-4.4439,-4.3579,-4.312,-4.3119,-4.1775,-4.0521,-3.9405,-3.8934,-3.8707,-3.8707,-3.8277,-3.7941,-3.7626,-3.7114,-3.6711,-3.6451,-3.6266,-3.6139,-3.6045,-3.5885,-3.5475,-3.5021,-3.4864,-3.4219,-3.3399,0.0,0.0,0.0,0.0,0.0,0.0,0.0,0.0,0.0,0.0,0.0,0.0,0.0,0.0,0.0,0.0,0.0,0.0,0.0,-4.04,-3.991,-3.9359,-3.725,-3.5544,-3.4363,-2.8829,-2.385,-1.9485,-0.3678,0.4191,0.4641,1.4329,1.4537,0.6634,0.2199,-0.3446,-0.9833,-1.2717,-1.5998,0.0,0.0,-2.305,-2.546,-2.7629,-2.9417,-3.1093,-3.3763,-3.5739,-3.7262,-3.8682,-3.9702,-4.0371,-4.0423,-4.0385,-4.0402,-4.0735,-4.0785,-4.0766,-4.0879,-4.0898,-4.0887,-4.0818,-4.0733,-4.0616,-4.0307,-4.0247,-4.0213,-4.0081,-3.9962,-3.9983,-4.0389,-4.0321,-4.0334,-4.0707,-4.0791,-4.0855,-4.1022,-4.1074,-4.1108,-4.1108,-4.1878,-4.2583,-4.3079,-4.3918,-4.4641,-4.5129,-4.5382,-4.5455,-4.5304,-4.438,-4.3792,-4.3673,-4.2756,-4.203,-4.1527,-4.0623,-3.9791,-3.9098,-3.8817,-3.8707,-3.8676,-3.8281,-3.788,-3.7461,-3.7079,-3.6684,-3.6284,-3.6249,-3.613,-3.5977,-3.5841,-3.5508,-3.5102,-3.4889,-3.4249,-3.3542,0.0,0.0,0.0,0.0,0.0,0.0,0.0,0.0,0.0,0.0,-4.1152,-4.1113,-4.1119,-4.106,0.0,0.0,0.0,0.0,0.0,0.0,-4.0239,-3.9624,-3.7497,-3.587,-3.4732,-2.7505,-2.1968,-1.8301,-0.2842,0.636,0.9575,1.4962,1.515,1.0624,0.3081,-0.368,-0.9687,-1.4265,-1.7785,-2.0597,-2.2966,-2.5383,-2.7759,0.0,0.0,-3.2625,-3.4692,-3.7094,-3.9383,-3.98,-4.007,-4.0252,-4.0499,-4.0529,-4.0537,-4.0835,-4.0896,-4.084,-4.0883,-4.0893,-4.0898,-4.0913,-4.0817,-4.0654,-4.0376,-4.0268,-4.0174,-3.9983,-3.988,-3.9924,-4.0264,-4.0285,-4.0348,-4.0801,-4.0839,-4.0879,-4.1058,-4.1091,-4.1094,-4.1097,-4.1772,-4.2262,-4.2382,-4.3082,-4.3587,-4.3681,-4.4192,-4.4518,-4.4618,-4.3598,-4.2922,-4.2757,-4.1888,-4.0941,-3.9914,-3.9627,-3.9368,-3.9082,-3.8833,-3.8707,-3.8676,-3.8272,-3.7882,-3.7485,-3.7079,-3.6651,-3.6284,-3.6224,-3.6053,-3.59,-3.5762,-3.5525,-3.5245,-3.4771,-3.4242,-3.3712,0.0,0.0,0.0,0.0,0.0,0.0,0.0,0.0,0.0,0.0,-4.1191,-4.1172,0.0,0.0,0.0,0.0,0.0,0.0,0.0,0.0,0.0,-4.0024,-3.7953,-3.645,-3.577,-3.0463,-2.7422,-2.6769,-1.5779,-0.9996,-0.908,-0.2425,0.0348,-0.0454,-0.3924,-0.7718,-1.1729,-1.6261,-1.9576,-2.2052,-2.4107,-2.6131,-2.8197,0.0,0.0,0.0,-3.5239,-3.7485,-3.9411,-3.9606,-3.995,-4.0307,-4.0397,-4.0395,-4.0377,-4.0544,-4.0577,-4.063,-4.0846,-4.0887,-4.0902,-4.0976,-4.0923,-4.076,-4.0385,-4.0337,-4.0315,-4.0176,-4.0042,-4.0082,-4.0481,-4.0399,-4.0396,-4.0746,-4.0849,-4.0906,-4.1007,-4.106,-4.1092,-4.1093,-4.1228,-4.1601,-4.232,-4.2535,-4.2921,-4.3648,-4.315,-4.3072,-4.3687,-4.2903,-4.1985,-4.0974,-4.0677,-4.033,-3.9914,-3.9627,-3.937,-3.9098,-3.8811,-3.8707,-3.8676,-3.828,-3.7882,-3.7474,-3.7069,-3.6684,-3.6301,-3.6217,-3.5861,-3.5357,-3.5174,-3.453,-3.3614,-3.3519,-3.3171,-3.2633,0.0,0.0,0.0,0.0,0.0,0.0,0.0,-4.1131,-4.1152,-4.1147,-4.1146,-4.1168,-4.1191,-4.1191,-4.1191,0.0,0.0,0.0,0.0,0.0,0.0,0.0,0.0,0.0,-3.7461,-3.3328,-3.1072,-3.0766,0.0,-1.5493,-1.4724,-0.9482,-0.7552,-0.8606,-1.1644,-1.5088,-1.8848,-2.1151,-2.3391,-2.5546,-2.6447,-2.7916,0.0,0.0,0.0,0.0,0.0,-3.8208,-3.9603,-3.9943,-4.0301,-4.0611,-4.0574,-4.0516,-4.0442,-4.0404,-4.053,-4.0642,-4.0602,-4.0742,-4.0906,-4.0937,-4.0953,-4.0845,-4.0432,-4.0372,-4.0327,-4.0082,-4.0002,-4.0062,-4.0427,-4.0394,-4.0408,-4.0803,-4.0888,-4.094,-4.1038,-4.1074,-4.111,-4.1107,-4.1099,-4.1258,-4.1679,-4.1715,-4.1892,-4.2323,-4.1966,-4.2075,-4.2887,-4.21,-4.1295,-4.0571,-4.0462,-4.0229,-3.9897,-3.9773,-3.9507,-3.9106,-3.8976,-3.884,-3.8676,-3.8277,-3.7882,-3.7481,-3.7075,-3.6678,-3.6301,-3.6208,-3.598,-3.5564,-3.515,-3.4581,-3.3965,-3.3382,-3.302,-3.2779,0.0,0.0,0.0,0.0,0.0,0.0,-4.1073,-4.1094,-4.1092,-4.1085,-4.1078,-4.1108,-4.1146,-4.1167,-4.1167,0.0,0.0,0.0,0.0,0.0,0.0,0.0,0.0,0.0,0.0,0.0,0.0,-3.3902,-2.5773,0.0,0.0,0.0,0.0,0.0,-1.9597,-2.2476,-2.5858,-2.5917,-2.7131,0.0,0.0,-2.9925,0.0,0.0,0.0,0.0,0.0,-3.8745,-3.9738,-4.0308,-4.0677,-4.0896,-4.0813,-4.0715,-4.0557,-4.0319,-4.0477,-4.0674,-4.0414,-4.059,-4.0848,-4.0855,-4.093,-4.0898,-4.0569,-4.049,-4.041,-4.0119,-4.0062,-4.0139,-4.0415,-4.0447,-4.0523,-4.0846,-4.0897,-4.0933,-4.1055,-4.1055,-4.1031,-4.1042,-4.1013,-4.1008,-4.1003,-4.1031,-4.1055,-4.106,-4.1074,-4.1394,-4.2054,-4.1367,-4.0857,-4.0617,-4.053,-4.0312,-3.9901,-3.9854,-3.958,-3.9101,-3.9045,-3.8892,-3.8676,-3.8292,-3.7881,-3.7487,-3.7061,-3.6693,-3.6301,-3.6191,-3.6041,-3.5773,-3.5207,-3.4739,-3.4332,-3.3508,-3.3137,-3.2945,0.0,0.0,0.0,0.0,0.0,0.0,-4.1013,-4.1062,-4.1081,-4.1031,-4.1,-4.1006,-4.1031,-4.1031,-4.1031,0.0,0.0,0.0,0.0,0.0,0.0,0.0,0.0,0.0,0.0,0.0,0.0,-3.8485,-3.6778,0.0,0.0,0.0,0.0,0.0,0.0,-2.714,-2.8598,-2.833,0.0,0.0,0.0,0.0,0.0,0.0,0.0,0.0,0.0,-3.8599,-3.9623,-4.0288,-4.0674,-4.0918,-4.1023,-4.0902,-4.059,-4.0154,-4.0262,-4.0515,-4.0477,-4.0554,-4.063,-4.0692,-4.082,-4.0877,-4.0787,-4.0764,-4.0721,-4.0565,-4.0593,-4.0626,-4.0673,-4.0781,-4.0859,-4.0898,-4.089,-4.0937,-4.0991,-4.0902,-4.0827,-4.082,-4.0768,-4.0738,-4.0752,-4.084,-4.0922,-4.0925,-4.1035,-4.1117,-4.1123,-4.0929,-4.076,-4.0604,-4.0526,-4.0319,-3.9901,-3.9664,-3.9396,-3.9101,-3.8851,-3.8719,-3.8676,-3.8303,-3.7879,-3.7469,-3.7073,-3.6673,-3.6301,-3.6105,-3.5739,-3.5224,-3.4949,-3.4217,-3.3319,-3.323,-3.2911,-3.2492,0.0,0.0,0.0,0.0,0.0,0.0,-4.1054,-4.1048,-4.1023,-4.1,-4.0953,-4.0924,-4.0878,-4.0878,-4.0906,-4.0987,-4.0994,0.0,0.0,0.0,0.0,0.0,0.0,0.0,0.0,0.0,-4.0209,-4.0057,-3.9877,0.0,0.0,0.0,0.0,0.0,0.0,-3.3067,-3.2431,-3.2318,0.0,0.0,0.0,0.0,0.0,0.0,0.0,0.0,0.0,0.0,-3.9754,-4.0301,-4.0661,-4.0811,-4.0721,-4.074,-4.0734,-4.0268,-4.0323,-4.0492,-4.0226,-4.0312,-4.0521,-4.0616,-4.0712,-4.0772,-4.0742,-4.0797,-4.0824,-4.0694,-4.0687,-4.072,-4.0798,-4.0869,-4.0903,-4.0957,-4.0923,-4.0905,-4.0933,-4.0887,-4.0829,-4.0746,-4.0754,-4.0723,-4.0641,-4.0811,-4.094,-4.1003,-4.1069,-4.1068,-4.0998,-4.0948,-4.0855,-4.071,-4.0617,-4.045,-4.0196,-3.988,-3.9614,-3.935,-3.9073,-3.8851,-3.8676,-3.8034,-3.765,-3.7469,-3.6821,-3.6451,-3.6301,-3.6088,-3.5871,-3.5616,-3.5021,-3.4317,-3.3665,-3.3303,-3.2841,-3.2398,0.0,0.0,0.0,0.0,0.0,-4.1084,-4.1073,-4.1008,-4.0953,-4.0942,-4.0887,-4.0856,-4.0803,-4.079,-4.0843,-4.0932,-4.0941,0.0,0.0,0.0,0.0,0.0,0.0,0.0,0.0,0.0,-4.1054,-4.0781,-4.0968,-4.0821,0.0,0.0,-3.9605,-3.8188,0.0,0.0,0.0,0.0,0.0,0.0,0.0,0.0,0.0,0.0,0.0,0.0,0.0,0.0,0.0,0.0,0.0,-4.0804,-4.0647,-4.0762,-4.082,-4.0261,-4.0323,-4.0442,-4.0043,-4.0138,-4.0364,-4.0427,-4.0565,-4.0643,-4.0667,-4.0794,-4.0875,-4.0787,-4.0761,-4.0818,-4.0887,-4.0928,-4.0945,-4.0987,-4.0941,-4.089,-4.0898,-4.0804,-4.0713,-4.0617,-4.061,-4.0568,-4.0496,-4.0687,-4.0906,-4.1025,-4.1081,-4.1071,-4.1029,-4.1003,-4.0933,-4.0791,-4.0672,-4.0521,-4.027,-4.0061,-3.9769,-3.9376,-3.9192,-3.895,-3.8676,-3.8101,-3.7739,-3.7469,-3.69,-3.6492,-3.6276,-3.6062,-3.5975,-3.5844,-3.5115,-3.448,-3.3935,-3.3407,-3.2841,-3.2398,0.0,0.0,0.0,0.0,0.0,-4.1086,-4.1015,-4.0945,-4.0877,-4.0805,-4.0798,-4.079,-4.079,-4.079,-4.079,-4.0803,-4.0803,0.0,0.0,0.0,0.0,0.0,0.0,0.0,-4.0994,-4.107,-4.107,-4.0994,-4.0932,-4.0907,-4.0878,-4.0812,-4.054,-4.006,0.0,0.0,0.0,0.0,0.0,0.0,0.0,0.0,0.0,0.0,0.0,0.0,0.0,0.0,0.0,0.0,0.0,0.0,0.0,-4.1042,-4.084,-4.0114,-4.0137,-4.0356,-4.0059,-4.0099,-4.0196,-4.012,-4.03,-4.0507,-4.0584,-4.0758,-4.0897,-4.0898,-4.0957,-4.0986,-4.0906,-4.0949,-4.0996,-4.0996,-4.0944,-4.0907,-4.0907,-4.061,-4.0406,-4.0406,-4.0234,-4.0118,-4.0196,-4.05,-4.0754,-4.0878,-4.1025,-4.1094,-4.1094,-4.1032,-4.0903,-4.0706,-4.0703,-4.0477,-4.0022,-3.9983,-3.9705,-3.9101,-3.9101,-3.895,-3.8707,-3.8707,-3.8252,-3.7505,-3.7505,-3.6995,-3.6165,-3.6079,-3.5932,-3.5728,-3.5068,-3.448,-3.3935,-3.3407,-3.2841,-3.2398,0.0,0.0,0.0,0.0,0.0,0.0,-4.1072,-4.1001,-4.0969,-4.0933,-4.0869,-4.0808,-4.0808,-4.0803,-4.079,-4.079,-4.079,0.0,0.0,0.0,0.0,0.0,0.0,0.0,-4.0994,-4.1011,-4.0994,-4.0932,-4.0906,-4.0868,-4.0831,-4.0815,-4.054,-4.0096,-4.0227,-3.9926,0.0,0.0,0.0,0.0,0.0,0.0,-3.8968,0.0,0.0,0.0,0.0,0.0,0.0,0.0,0.0,0.0,0.0,0.0,0.0,-4.0609,-4.0496,-4.0434,-4.0194,-4.0177,-4.0214,-4.023,-4.0404,-4.061,-4.0769,-4.0884,-4.0976,-4.0974,-4.0993,-4.0992,-4.0968,-4.0991,-4.0972,-4.0933,-4.091,-4.0839,-4.0662,-4.0568,-4.0399,-4.0024,-3.9918,-4.0039,-4.0358,-4.0574,-4.0773,-4.0878,-4.1019,-4.1094,-4.1094,-4.1089,-4.0977,-4.0768,-4.0729,-4.0582,-4.0342,-4.012,-3.9775,-3.9371,-3.9173,-3.895,-3.8707,-3.8419,-3.8135,-3.7879,-3.7321,-3.6939,-3.6638,-3.6174,-3.5975,-3.5844,-3.5115,-3.448,-3.3935,-3.3407,-3.2841,-3.2398,0.0,0.0,0.0,0.0,0.0,0.0,-4.1101,-4.1048,-4.1007,-4.1007,-4.0894,-4.0792,-4.0792,-4.08,-4.0788,-4.0788,-4.0796,0.0,0.0,0.0,0.0,0.0,0.0,0.0,-4.0924,-4.0957,-4.0932,-4.0867,-4.0867,-4.0834,-4.079,-4.079,-4.0635,-4.0358,-4.045,-4.0266,0.0,0.0,0.0,0.0,0.0,0.0,-3.9797,0.0,0.0,0.0,0.0,0.0,0.0,0.0,0.0,0.0,0.0,0.0,0.0,0.0,-4.0734,-4.0521,-4.0332,-4.0264,-4.0283,-4.03,-4.0438,-4.0595,-4.0758,-4.0877,-4.0962,-4.0967,-4.0984,-4.0994,-4.0975,-4.096,-4.0955,-4.0915,-4.0828,-4.0655,-4.0408,-4.0348,-4.0138,-3.9683,-3.9698,-3.9895,-4.0214,-4.0466,-4.0681,-4.0798,-4.0945,-4.105,-4.1091,-4.1104,-4.1015,-4.0838,-4.0768,-4.0672,-4.0539,-4.0304,-4.0002,-3.9664,-3.9371,-3.911,-3.8822,-3.8332,-3.8034,-3.7844,-3.734,-3.6939,0.0,-3.635,-3.6011,-3.5543,-3.4847,-3.4202,-3.3614,-3.3093,-3.2695,-3.2398,0.0,0.0,0.0,0.0,0.0,0.0,0.0,-4.1053,-4.1019,-4.0996,-4.0898,-4.0798,-4.0807,-4.0807,-4.0807,-4.0807,-4.0804,0.0,0.0,0.0,0.0,0.0,0.0,-4.0858,-4.0803,-4.0867,-4.0848,-4.079,-4.079,-4.079,-4.079,-4.079,-4.079,-4.079,-4.0598,-4.0504,0.0,0.0,0.0,0.0,-4.0139,-4.012,0.0,0.0,0.0,0.0,0.0,0.0,0.0,0.0,0.0,0.0,0.0,0.0,0.0,0.0,0.0,0.0,0.0,-4.0408,-4.0412,-4.0315,-4.0415,-4.0535,-4.0602,-4.077,0.0,-4.0914,-4.0955,-4.0992,-4.0918,-4.0896,-4.0878,-4.0869,-4.0662,-4.0412,-4.0187,-3.9907,-3.9618,-3.9357,-3.9508,-3.9693,-3.9804,-4.0195,-4.0515,-4.0655,-4.0818,-4.0943,-4.1078,-4.1091,-4.1038,-4.0915,-4.0842,-4.074,-4.0604,-4.0539,-4.0306,-3.9901,-3.9641,-3.9371,-3.9073,-3.846,-3.7913,-3.7542,-3.7505,-3.7017,-3.6293,-3.6539,-3.6045,-3.5021,-3.4447,-3.3836,-3.3198,-3.2586,-3.2398,-3.2398,0.0,0.0,0.0,0.0,0.0,0.0,0.0,0.0,0.0,0.0,-4.0922,-4.0885,-4.0888,-4.0837,-4.0807,0.0,0.0,0.0,0.0,0.0,0.0,0.0,-4.0812,-4.0812,-4.0808,-4.0812,-4.0831,-4.079,-4.079,-4.079,-4.079,-4.079,-4.079,-4.079,-4.0746,-4.0646,0.0,0.0,0.0,0.0,-4.0356,-4.0425,0.0,0.0,0.0,0.0,-4.0578,-4.0682,0.0,0.0,0.0,0.0,0.0,0.0,0.0,0.0,-4.0711,-4.059,-4.0438,0.0,-4.054,-4.0462,-4.0593,-4.0752,0.0,-4.0878,-4.0904,-4.098,-4.098,-4.0981,-4.0906,-4.0772,-4.0645,-4.0604,-4.0462,-4.021,-3.9884,-3.9339,-3.9117,-3.9556,-3.9294,-3.9268,-3.9739,-4.0043,-4.021,-4.0243,-4.0648,-4.0917,-4.0963,-4.1032,-4.1091,-4.1055,-4.0935,-4.0805,-4.0681,-4.0596,-4.0364,-3.9963,-3.9645,-3.9371,-3.9101,-3.8713,-3.8336,-3.7948,-3.765,-3.7208,-3.6719,-3.6426,-3.6088,-3.5677,-3.4624,-3.4053,-3.3716,-3.2749,-3.2398,-3.2398,0.0,0.0,0.0,0.0,0.0,0.0,0.0,0.0,0.0,0.0,-4.0947,-4.0904,-4.0888,-4.0868,-4.0849,0.0,0.0,0.0,0.0,0.0,0.0,-4.0859,-4.0826,-4.0807,-4.0859,-4.0859,-4.0828,-4.08,-4.083,-4.0849,-4.0848,-4.0849,-4.0869,-4.0898,-4.0898,-4.0818,0.0,0.0,0.0,-4.0489,-4.0583,0.0,0.0,0.0,0.0,0.0,-4.0768,-4.0843,0.0,-4.0931,-4.0943,-4.0941,0.0,0.0,0.0,0.0,-4.0557,-4.0442,-4.038,-4.0446,-4.0511,-4.0511,-4.0574,-4.0694,-4.0815,-4.0856,-4.0848,-4.0907,-4.0917,-4.0869,-4.0734,-4.0546,-4.041,-4.0396,-4.0156,-3.9842,-3.9566,-3.9054,-3.8876,-3.9331,-3.9073,-3.9027,-3.9452,-3.9683,-3.9905,-4.01,-4.0373,-4.061,-4.0807,-4.0869,-4.0929,-4.1017,-4.0938,-4.0889,-4.0835,-4.0684,-4.0487,-4.0226,-3.9863,-3.9543,-3.9272,-3.8807,-3.8296,-3.7791,-3.7578,-3.717,-3.6597,-3.6533,-3.6199,-3.5633,-3.4688,-3.4037,-3.3614,-3.2749,-3.2398,-3.2398,0.0,0.0,0.0,0.0,0.0,0.0,0.0,0.0,0.0,0.0,0.0,0.0,0.0,0.0,0.0,0.0,0.0,0.0,0.0,0.0,-4.0911,-4.0922,-4.0857,-4.0867,-4.0921,-4.0921,-4.0882,-4.082,-4.087,-4.0894,-4.0898,-4.0902,-4.0933,-4.0994,-4.0994,-4.0979,-4.0926,-4.0926,-4.0878,-4.0831,-4.0831,0.0,0.0,0.0,0.0,0.0,0.0,0.0,0.0,-4.0976,-4.0944,-4.0882,-4.0857,0.0,0.0,0.0,0.0,0.0,-4.0248,-4.0208,-4.0241,-4.0412,-4.0462,-4.0511,-4.0687,-4.0733,-4.0733,-4.0733,-4.0733,-4.0654,-4.0392,-4.0224,-4.0117,-4.0118,-3.9697,-3.9264,-3.9063,-3.8693,-3.853,-3.8711,-3.8681,-3.87,-3.8847,-3.9208,-3.9548,-3.9907,-4.0043,-4.0279,-4.0655,-4.0681,-4.0738,-4.0871,-4.0883,-4.0921,-4.098,-4.0752,-4.0597,-4.0491,-4.0063,-3.9728,-3.9483,-3.8839,-3.8176,-3.7578,-3.7542,-3.7094,-3.6409,-3.662,-3.619,-3.5328,-3.4688,-3.3987,-3.3339,-3.2749,-3.2492,-3.2398,0.0,0.0,0.0,0.0,0.0,0.0,0.0,0.0,0.0,0.0,0.0,0.0,0.0,0.0,0.0,0.0,0.0,0.0,0.0,-4.0983,-4.1016,-4.1071,-4.1,-4.0974,-4.0983,-4.0983,-4.0955,-4.0881,-4.0896,-4.0896,-4.0905,-4.0896,-4.0911,-4.0914,-4.098,-4.0987,-4.0974,-4.0974,-4.0986,-4.0979,-4.0979,0.0,0.0,0.0,0.0,0.0,0.0,0.0,0.0,-4.0922,-4.0913,-4.0849,-4.063,0.0,0.0,0.0,0.0,0.0,-3.9979,-3.9603,-3.9373,-4.0155,-4.0334,-4.0334,-4.0367,-4.0386,-4.0386,-4.0386,-4.0386,-4.0206,-3.9656,-3.9686,-3.9697,-3.9429,-3.9021,-3.8511,-3.7887,-3.7506,-3.7396,-3.7541,-3.7719,-3.7877,-3.7853,-3.8529,-3.9026,-3.9066,-3.9724,-4.0227,-4.0519,-4.0629,-4.0718,-4.0723,-4.0835,-4.09,-4.0929,-4.0822,-4.0688,-4.0491,-3.9927,-3.9571,-3.9483,-3.8931,-3.8433,-3.7982,-3.765,-3.7246,-3.6741,-3.6079,-3.5661,-3.5316,-3.4673,-3.3969,-3.3371,-3.3161,-3.2788,-3.2342,0.0,0.0,0.0,0.0,0.0,0.0,0.0,0.0,0.0,0.0,0.0,0.0,0.0,0.0,0.0,0.0,0.0,0.0,0.0,-4.1052,-4.1073,-4.1107,-4.1073,-4.1054,-4.1047,-4.1047,-4.1006,-4.0906,-4.0974,-4.0957,-4.0858,-4.0851,-4.085,-4.0851,-4.0874,-4.0918,-4.0943,-4.0943,-4.0976,-4.0994,0.0,0.0,0.0,0.0,0.0,0.0,0.0,0.0,0.0,0.0,-4.0798,-4.0662,-4.054,0.0,0.0,0.0,0.0,0.0,-3.9911,-3.9585,-3.9314,-3.9528,-3.941,-3.9223,-3.9255,-3.926,-3.9365,-3.9694,-3.9754,-3.9673,-3.9354,-3.9288,-3.9029,-3.8389,-3.8272,-3.8099,-3.7629,-3.7344,-3.7251,-3.7399,-3.7361,-3.736,-3.7434,-3.8008,-3.8444,-3.8678,-3.9245,-3.9687,-3.9962,-4.0176,-4.0298,-4.0377,-4.066,-4.0836,-4.0901,-4.0918,-4.0824,-4.0653,-4.0114,-3.974,-3.947,-3.9082,-3.8634,-3.8101,-3.7913,-3.7469,-3.686,-3.6399,-3.6037,-3.5739,-3.4704,-3.4103,-3.3751,-3.3055,-3.2586,-3.2342,0.0,0.0,0.0,0.0,0.0,0.0,0.0,0.0,0.0,0.0,0.0,0.0,0.0,0.0,0.0,0.0,0.0,0.0,0.0,-4.1055,-4.1051,-4.1051,-4.1042,-4.1039,-4.1087,-4.1087,-4.1008,-4.0887,-4.098,-4.095,-4.0792,-4.0797,-4.0793,-4.0793,-4.0793,-4.083,-4.0882,-4.0884,-4.0937,-4.0987,0.0,0.0,0.0,0.0,0.0,0.0,0.0,0.0,0.0,0.0,0.0,0.0,0.0,0.0,0.0,-4.0061,-3.9977,-3.9889,-3.9826,-3.9556,-3.9223,-3.8869,-3.8559,-3.8302,-3.8298,-3.828,-3.8395,-3.885,-3.8964,-3.8957,-3.8811,-3.8683,-3.8358,-3.7578,-3.7613,-3.7646,-3.7272,-3.7086,-3.6973,-3.7066,-3.6946,-3.6882,-3.6925,-3.7488,-3.8011,-3.8295,-3.8799,-3.9219,-3.9502,-3.9693,-3.9897,-4.0043,-4.0371,-4.0655,-4.085,-4.0937,-4.092,-4.0791,-4.0312,-3.9889,-3.9481,-3.9227,-3.8796,-3.8252,-3.8135,-3.7756,-3.7152,-3.6746,-3.644,-3.6071,-3.4878,-3.4333,-3.4003,-3.2841,-3.2342,-3.2104,0.0,0.0,0.0,0.0,0.0,0.0,0.0,0.0,0.0,0.0,0.0,0.0,0.0,0.0,0.0,0.0,0.0,0.0,-4.1011,-4.0944,-4.0914,-4.0914,-4.0857,-4.0874,-4.1006,-4.1006,-4.0935,-4.0799,-4.0818,-4.0809,-4.08,-4.0807,-4.0796,-4.0796,-4.0793,-4.0809,-4.0816,-4.0877,-4.089,-4.0928,-4.1046,0.0,0.0,0.0,0.0,0.0,0.0,0.0,0.0,0.0,0.0,0.0,0.0,0.0,-4.023,-3.9998,-3.9911,-3.9845,-3.9599,-3.9117,-3.8578,-3.825,-3.8277,-3.8315,-3.8077,-3.7911,-3.786,-3.7893,-3.8027,-3.798,-3.768,-3.7716,-3.7666,-3.7266,-3.7193,-3.6929,-3.6224,-3.6002,-3.5871,-3.5766,-3.6114,-3.6216,-3.5932,-3.7058,-3.7789,-3.7747,-3.8596,-3.9219,-3.9502,-3.9526,-3.9647,-3.9895,-4.0063,-4.0331,-4.0714,-4.085,-4.0877,-4.0791,-4.0303,-3.989,-3.9481,-3.9227,-3.895,-3.8627,-3.8252,-3.8068,-3.7913,-3.6751,-3.6222,-3.6113,-3.5419,-3.4673,-3.3869,-3.2803,-3.2048,-3.1537,0.0,0.0,0.0,0.0,0.0,0.0,0.0,0.0,0.0,0.0,0.0,0.0,0.0,0.0,0.0,0.0,0.0,0.0,-4.1062,-4.1047,-4.1025,-4.1025,-4.0926,-4.0866,-4.0885,-4.0874,-4.0839,-4.0746,-4.0655,-4.0655,-4.0746,-4.0648,-4.061,-4.061,-4.0604,-4.0665,-4.0742,-4.0752,-4.0843,-4.0959,-4.1012,-4.1041,0.0,0.0,0.0,0.0,0.0,0.0,0.0,0.0,-4.0654,-4.0469,-4.0334,-4.0195,-4.004,-3.9933,-3.9781,-3.9623,-3.9526,-3.8765,-3.7935,-3.7785,-3.7272,0.0,0.0,-3.7026,-3.6991,-3.7199,-3.7218,-3.7182,-3.7106,-3.6929,-3.6701,-3.6492,-3.6416,-3.6291,-3.5932,-3.5756,-3.5667,-3.5622,-3.5756,-3.5844,-3.5817,-3.6498,-3.7061,-3.7417,-3.8026,-3.8548,-3.896,-3.9156,-3.9357,-3.9647,-3.9944,-4.0284,-4.0694,-4.0836,-4.0908,-4.0916,-4.0455,-4.0109,-3.9865,-3.932,-3.9045,-3.8921,-3.859,-3.8186,-3.7685,-3.7379,-3.6847,-3.6114,-3.5391,-3.4415,-3.3443,-3.3055,-3.2532,-3.2048,0.0,0.0,0.0,0.0,0.0,0.0,0.0,0.0,0.0,0.0,0.0,0.0,0.0,0.0,0.0,0.0,0.0,0.0,-4.11,-4.1064,-4.1033,-4.1033,-4.091,-4.0801,-4.0715,-4.0738,-4.0703,-4.0629,-4.0485,-4.0454,-4.054,-4.0454,-4.0408,-4.0425,-4.0473,-4.0545,-4.0649,-4.0649,-4.0759,-4.0875,-4.0909,-4.0974,0.0,0.0,0.0,0.0,0.0,0.0,0.0,0.0,-4.0612,-4.0367,-4.0317,-4.0139,-3.9935,-3.9804,-3.958,-3.9275,-3.898,-3.8259,-3.7488,-3.7143,0.0,0.0,-3.619,-3.6165,-3.619,-3.6295,-3.6342,-3.6406,-3.6659,-3.6364,-3.6114,-3.6174,-3.6088,-3.5932,-3.5817,-3.5667,-3.5622,-3.5622,-3.5622,-3.5622,-3.5728,-3.6156,-3.6563,-3.6964,-3.756,-3.798,-3.8234,-3.8707,-3.9027,-3.9189,-3.9668,-4.0098,-4.0514,-4.0723,-4.0877,-4.0935,-4.061,-4.0318,-4.008,-3.9595,-3.9272,-3.9101,-3.891,-3.8478,-3.7879,-3.7808,-3.7114,-3.6079,-3.5316,-3.4464,-3.3649,-3.3339,-3.3002,-3.2641,0.0,0.0,0.0,0.0,0.0,0.0,0.0,0.0,-4.1104,-4.1105,-4.1107,0.0,0.0,0.0,0.0,0.0,0.0,0.0,-4.111,-4.098,-4.0907,-4.0907,-4.0768,-4.0642,-4.0492,-4.0574,-4.0579,-4.0489,-4.0304,-4.0214,-4.0196,-4.0196,-4.0196,-4.0195,-4.0425,-4.0489,-4.0489,-4.0573,-4.0598,-4.0615,-4.0746,-4.084,-4.0917,0.0,0.0,0.0,0.0,0.0,0.0,0.0,-4.0668,-4.0462,-4.0351,-4.0212,-4.0021,-3.9628,-3.9257,-3.8823,-3.7866,-3.7559,-3.7254,-3.6342,-3.6295,-3.6288,-3.547,-3.5464,-3.547,-3.5068,-3.5323,-3.5735,-3.613,-3.5968,-3.5994,-3.6516,-3.6259,-3.5932,-3.5817,-3.5684,-3.5577,-3.5577,-3.5577,-3.5577,-3.5622,-3.6097,-3.6374,-3.6374,-3.7305,-3.7702,-3.7342,-3.8183,-3.8634,-3.8487,-3.9144,-3.9683,-4.01,-4.0501,-4.0729,-4.0803,-4.0804,-4.0558,-4.0109,-3.9964,-3.9604,-3.9129,-3.9101,-3.895,-3.8627,-3.7844,-3.69,-3.5915,-3.5253,-3.4927,-3.4673,-3.3598,-3.3198,-3.313,0.0,0.0,0.0,0.0,0.0,0.0,0.0,0.0,-4.1095,-4.1111,-4.1091,0.0,0.0,0.0,0.0,0.0,0.0,0.0,-4.111,-4.1052,-4.0996,-4.0888,-4.0765,-4.0636,-4.0492,-4.0473,-4.0479,-4.0499,-4.043,-4.0342,-4.0196,-4.0196,-4.0101,-3.9943,-4.0177,-4.0286,-4.0304,-4.0457,-4.0579,-4.0668,-4.0723,-4.0791,-4.0902,0.0,0.0,0.0,0.0,0.0,0.0,0.0,0.0,0.0,-4.0194,-4.008,-3.9914,-3.9599,-3.9268,-3.884,-3.8071,-3.7217,-3.6423,-3.6053,-3.552,-3.4941,-3.4333,-3.4736,-3.5111,-3.4706,-3.4897,-3.5207,-3.5571,-3.5554,-3.5644,-3.5958,-3.5949,-3.5667,-3.5178,-3.5068,-3.5021,-3.5021,-3.5021,-3.5178,-3.556,-3.5739,-3.5968,-3.6374,-3.6684,-3.6981,-3.7268,-3.756,-3.7977,-3.8487,-3.8685,-3.9207,-4.01,-4.0221,-4.0475,-4.087,-4.0767,-4.0672,-4.0574,-4.0149,-3.9884,-3.9716,-3.947,-3.9073,-3.848,-3.7506,-3.7017,-3.6764,-3.6011,-3.5345,-3.4769,-3.4464,-3.3853,-3.3198,0.0,0.0,0.0,0.0,0.0,0.0,0.0,0.0,-4.111,-4.111,-4.111,-4.111,0.0,0.0,0.0,0.0,0.0,0.0,-4.111,-4.1045,-4.0988,-4.0888,-4.0765,-4.0642,-4.0496,-4.0413,-4.0326,-4.0252,-4.0196,-4.0139,-4.0001,-3.9918,-3.9791,-3.966,-3.9922,-4.0042,-4.0042,-4.0176,-4.0281,-4.0396,-4.0468,-4.0578,-4.0668,0.0,0.0,0.0,0.0,0.0,0.0,0.0,0.0,0.0,-4.012,-4.0,-3.9826,-3.9477,-3.9017,-3.8462,-3.7735,-3.6738,-3.5795,-3.5493,-3.4944,-3.4349,-3.3797,-3.4185,-3.4592,-3.4529,-3.448,-3.4578,-3.4897,-3.4927,-3.4958,-3.5161,-3.5362,-3.5224,-3.4577,-3.448,-3.4577,-3.4769,-3.4625,-3.4673,-3.5224,-3.5085,-3.5191,-3.5715,-3.5942,-3.6281,-3.6746,-3.7117,-3.747,-3.7855,-3.8269,-3.8869,-3.9618,-3.9947,-4.035,-4.082,-4.0778,-4.0796,-4.0855,-4.0428,-4.0181,-4.0062,-3.9712,-3.9141,-3.8456,-3.7735,-3.7287,-3.6943,-3.6392,-3.5749,-3.5161,-3.488,-3.4366,-3.3751,0.0,0.0,-4.1096,-4.1104,0.0,0.0,0.0,0.0,-4.111,-4.111,-4.111,-4.111,0.0,0.0,0.0,0.0,0.0,0.0,-4.111,-4.098,-4.0888,-4.0878,-4.073,-4.0621,-4.0473,-4.0345,-4.0138,-3.9899,-3.9788,-3.9717,-3.967,-3.9477,-3.9376,-3.9395,-3.9637,-3.9775,-3.9775,-3.9797,-3.9859,-3.9901,-4.012,-4.0229,-4.0317,-4.0579,0.0,0.0,0.0,0.0,0.0,0.0,0.0,0.0,-4.0081,-4.0,-3.9823,-3.9324,-3.8696,-3.7947,-3.7046,-3.6256,-3.5515,-3.4883,-3.4594,-3.43,-3.3848,-3.3764,-3.3901,-3.4333,-3.4118,-3.3901,-3.4234,-3.4251,-3.4186,-3.4186,-3.4609,-3.4673,-3.402,-3.3935,-3.4136,-3.4577,-3.4219,-3.4136,-3.4673,-3.4284,-3.4185,-3.4673,-3.5227,-3.5647,-3.5915,-3.6706,-3.7097,-3.69,-3.7839,-3.8481,-3.8795,-3.9513,-4.0116,-4.0571,-4.0645,-4.0764,-4.0938,-4.0707,-4.0481,-4.0221,-3.9808,-3.9264,-3.8619,-3.8401,-3.7733,-3.6808,-3.6563,-3.6241,-3.5756,-3.5161,-3.4864,-3.4673,0.0,0.0,-4.1834,-4.1917,0.0,0.0,0.0,0.0,0.0,0.0,0.0,0.0,0.0,0.0,0.0,0.0,0.0,0.0,-4.111,-4.098,-4.0849,-4.0742,-4.0504,-4.0381,-4.0327,-4.0118,-3.9956,-3.9895,-3.9857,-3.9702,-3.9401,-3.935,-3.9237,-3.9092,-3.9376,-3.9508,-3.9561,-3.9731,-3.9819,-3.984,-4.0101,-4.0212,-4.0247,-4.0523,-4.0612,0.0,0.0,0.0,0.0,0.0,0.0,0.0,-3.9977,-3.9914,-3.9781,-3.9216,-3.8773,-3.8264,-3.7285,-3.6563,-3.5907,-3.5211,-3.4448,-3.3899,-3.4,-3.3848,-3.3745,-3.3848,-3.3933,-3.4084,-3.425,-3.4184,-3.4152,-3.4186,-3.4202,-3.402,-3.3443,-3.3339,-3.3391,-3.3547,-3.3443,-3.3563,-3.4119,-3.4086,-3.4036,-3.4169,-3.464,-3.5035,-3.5224,-3.5881,-3.6416,-3.6746,-3.7079,-3.7542,-3.8113,-3.8297,-3.8711,-3.9451,-3.9681,-4.0039,-4.0526,-4.0691,-4.0662,-4.0492,-4.01,-3.9827,-3.9596,-3.8785,-3.825,-3.7803,-3.725,-3.6701,-3.6174,-3.6028,-3.5464,-3.4785,0.0,0.0,0.0,0.0,0.0,0.0,0.0,0.0,0.0,0.0,0.0,0.0,0.0,0.0,0.0,0.0,-4.2299,-4.2299,-4.2299,-4.2121,-4.1732,-4.1101,-4.0591,-4.0234,-4.0118,-3.9956,-3.9762,-3.9526,-3.9513,-3.9414,-3.9192,-3.9129,-3.9017,-3.895,-3.9129,-3.9264,-3.9324,-3.9414,-3.947,-3.9494,-3.9769,-3.9859,-3.9903,-4.0266,-4.0403,-4.0415,-4.0559,0.0,0.0,0.0,0.0,0.0,0.0,0.0,-3.9826,-3.9414,-3.8962,-3.8425,-3.7649,-3.6847,-3.5977,-3.5102,-3.4399,-3.3832,-3.3697,-3.3781,-3.3797,-3.3507,-3.3575,-3.3797,-3.4,-3.3815,-3.3646,-3.3594,-3.3407,-3.3077,-3.2571,-3.2461,-3.2555,-3.281,-3.2826,-3.3055,-3.3563,-3.3198,-3.3039,-3.3287,-3.3344,-3.3636,-3.4268,-3.4607,-3.5199,-3.6028,-3.6305,-3.6781,-3.7593,-3.7817,-3.8224,-3.8838,-3.9282,-3.9876,-4.054,-4.0789,-4.0816,-4.0676,-4.0482,-4.0243,-3.9966,-3.9416,-3.8878,-3.8282,-3.7855,-3.7287,-3.6701,-3.6409,-3.5968,-3.5464,0.0,0.0,0.0,0.0,0.0,0.0,0.0,0.0,0.0,0.0,0.0,0.0,0.0,0.0,-4.3598,0.0,0.0,0.0,-4.3564,-4.3319,-4.2726,-4.1762,-4.1036,-4.0479,-4.0122,-4.0034,-3.9682,-3.9101,-3.9045,-3.8989,-3.8913,-3.8833,-3.8822,-3.8892,-3.8968,-3.9007,-3.9045,-3.9073,-3.9073,-3.9073,-3.9376,-3.9502,-3.9556,-3.9964,-4.0119,-4.0156,-4.0383,-4.0367,-4.0285,-4.0389,0.0,0.0,0.0,0.0,-3.9892,-3.9647,-3.9152,-3.8559,-3.8005,-3.7046,-3.5977,-3.5038,-3.4497,-3.4034,-3.3475,-3.3748,-3.3933,-3.3303,-3.3245,-3.3346,-3.3591,-3.323,-3.2841,-3.2703,-3.2437,-3.2114,-3.1667,-3.1552,-3.1766,-3.221,-3.2185,-3.2312,-3.2772,-3.2089,-3.1751,-3.221,-3.1957,-3.2189,-3.3156,-3.3415,-3.3972,-3.5065,-3.5569,-3.6201,-3.6958,-3.7399,-3.7842,-3.8214,-3.9038,-3.9809,-4.0519,-4.0819,-4.0905,-4.0824,-4.082,-4.0557,-4.0133,-4.0062,-3.9509,-3.8718,-3.8493,-3.8005,-3.7285,-3.6706,-3.6433,-3.6156,0.0,0.0,0.0,0.0,0.0,0.0,0.0,0.0,0.0,0.0,-4.352,-4.3598,0.0,-4.3598,-4.3598,-4.3598,-4.3497,-4.3433,-4.3433,0.0,0.0,-4.2642,-4.2265,-4.1677,-4.0975,-4.0483,-3.9872,-3.9101,-3.8881,-3.8578,-3.8234,-3.8578,-3.878,-3.891,-3.891,-3.8881,-3.8833,-3.9017,-3.8989,-3.8892,-3.9324,-3.9502,-3.9532,-3.9754,-3.9861,-3.9861,-3.9884,-3.9859,-3.9832,-4.0081,-4.0042,0.0,0.0,0.0,-4.0001,-3.9628,-3.9257,-3.8813,-3.8232,-3.7159,-3.602,-3.5299,-3.4866,-3.4497,-3.4084,-3.4034,-3.3933,-3.3303,-3.3093,-3.3124,-3.3293,-3.2407,-3.1664,-3.1838,-3.1495,-3.119,-3.1087,-3.1087,-3.1131,-3.119,-3.119,-3.119,-3.1291,-3.119,-3.1131,-3.1175,-3.1577,-3.1886,-3.2038,-3.2929,-3.3569,-3.3721,-3.4891,-3.552,-3.5637,-3.6232,-3.6706,-3.714,-3.8516,-3.9353,-3.9755,-4.0432,-4.0789,-4.0874,-4.0825,-4.0752,-4.0664,-4.0312,-3.9986,-3.9702,-3.9416,-3.8757,-3.7923,-3.7417,-3.6855,-3.6216,0.0,0.0,0.0,0.0,0.0,0.0,0.0,0.0,0.0,0.0,0.0,-4.499,-4.499,-4.5032,-4.5066,-4.5066,-4.4928,-4.4777,-4.4592,-4.4052,-4.3652,-4.3482,-4.2715,-4.2059,-4.1556,-4.1157,-4.0518,-3.9545,-3.9186,-3.8722,-3.8101,-3.8068,-3.8083,-3.8198,-3.8296,-3.8378,-3.8415,-3.8615,-3.8664,-3.8572,-3.8807,-3.8876,-3.8905,-3.9115,-3.9296,-3.9414,-3.9538,-3.9649,-3.9772,-3.9941,-4.0002,-4.0002,-4.0002,0.0,0.0,0.0,-3.9513,-3.9061,-3.8136,-3.7064,-3.6105,-3.5677,-3.5102,-3.4594,-3.4052,-3.4018,-3.3815,-3.2795,-3.2485,-3.2446,-3.2571,-3.1849,-3.1218,-3.1522,-3.1014,-3.0613,-3.0613,-3.0613,-3.0613,-3.0613,-3.0911,-3.1087,-3.1029,-3.0851,-3.0747,-3.0613,-3.0569,-3.0674,-3.097,-3.1447,-3.2023,-3.2663,-3.362,-3.4284,-3.4686,-3.5582,-3.6504,-3.7453,-3.8149,-3.8883,-3.9665,-4.0181,-4.0604,-4.0892,-4.0867,-4.0857,-4.085,-4.0624,-4.0333,-3.9984,-3.9707,-3.9163,-3.8431,-3.7889,-3.7232,-3.6557,0.0,0.0,0.0,0.0,0.0,0.0,0.0,0.0,0.0,0.0,0.0,-4.5958,-4.5968,0.0,0.0,0.0,-4.5936,-4.5742,-4.5455,-4.488,-4.448,-4.4341,-4.3373,-4.2636,-4.225,-4.1872,-4.1138,-4.0028,-3.9524,-3.8902,-3.8079,-3.7594,-3.7303,-3.7285,-3.7649,-3.7843,-3.7931,-3.8201,-3.8234,-3.8135,-3.8165,-3.8165,-3.8147,-3.8345,-3.8541,-3.8765,-3.9051,-3.9321,-3.9571,-3.9687,-3.9819,-3.9962,-3.9963,-4.0002,0.0,0.0,0.0,-3.9268,-3.8218,-3.7325,-3.6528,-3.6037,-3.5391,-3.4738,-3.4169,-3.4002,-3.3662,-3.236,-3.1931,-3.1705,-3.1577,-3.0896,-3.0495,-3.0822,-3.0119,-2.9608,-2.9608,-2.9623,-2.9685,-2.9685,-3.0176,-3.0404,-3.0269,-3.0054,-2.987,-2.9685,-2.9324,-2.9324,-2.9794,-2.9979,-3.048,-3.1546,-3.2353,-3.3156,-3.3822,-3.5157,-3.6305,-3.7363,-3.7662,-3.8315,-3.9289,-3.973,-4.0198,-4.0655,-4.0812,-4.0879,-4.0886,-4.0824,-4.0587,-4.0256,-3.9986,-3.9524,-3.8943,-3.8269,-3.7667,-3.7076,0.0,0.0,0.0,0.0,0.0,0.0,0.0,0.0,0.0,0.0,0.0,-4.563,-4.5621,-4.5636,-4.565,-4.5731,-4.5603,-4.5455,-4.5319,-4.526,-4.5241,-4.522,-4.4625,0.0,-4.3152,-4.2563,-4.1622,-4.0365,-3.9657,-3.8887,-3.8063,-3.7308,-3.6719,-3.6409,-3.7248,-3.756,-3.7468,-3.7913,-3.7844,-3.745,-3.7524,-3.7524,-3.7453,-3.7542,-3.7665,-3.7839,-3.8296,-3.8615,-3.8902,-3.9144,-3.9358,-3.9599,-3.9966,-4.0004,-3.9922,0.0,0.0,0.0,-3.8744,-3.8237,-3.7649,-3.6487,-3.583,-3.5295,-3.4771,-3.4151,-3.3403,-3.2305,-3.1747,-3.113,-3.0101,-2.9205,-2.8798,-2.9275,-2.8414,-2.767,-2.767,-2.7829,-2.7908,-2.7908,-2.8091,-2.8157,-2.8157,-2.8157,-2.8105,-2.7908,-2.7908,-2.8091,-2.8556,-2.9038,-2.9614,-3.0358,-3.1489,-3.2408,-3.3119,-3.4908,-3.5854,-3.5924,-3.6897,-3.761,-3.8095,-3.8822,-3.9452,-3.9983,-4.0558,-4.0842,-4.0884,-4.0832,-4.0783,-4.0733,-4.0472,-4.0061,-3.9551,-3.8672,-3.8136,-3.7685,0.0,0.0,0.0,0.0,0.0,0.0,0.0,0.0,0.0,0.0,0.0,0.0,0.0,-4.5584,-4.5615,-4.563,-4.5522,-4.54,-4.5317,-4.5297,-4.5297,-4.5297,-4.472,-4.4252,-4.397,-4.3365,-4.2463,-4.1162,-4.0184,-3.9144,-3.8093,-3.7004,-3.6451,-3.6343,-3.6834,-3.7009,-3.697,-3.7261,-3.7299,-3.7147,-3.696,-3.6904,-3.6865,-3.6733,-3.6777,-3.7008,-3.7177,-3.7596,-3.8143,-3.8407,-3.8869,-3.9333,-3.9524,-3.9731,-3.992,-3.9958,-3.9762,-3.9414,-3.8961,-3.8481,-3.7821,-3.6893,-3.6288,-3.5742,-3.5008,-3.4594,-3.3901,-3.2321,-3.1819,-3.1174,-2.9317,-2.8698,-2.8556,-2.8721,-2.8051,-2.7484,-2.7484,-2.7245,-2.7018,-2.7018,-2.6857,-2.6642,-2.6561,-2.7059,-2.7352,-2.7245,-2.7683,-2.8026,-2.8143,-2.8325,-2.8776,-2.9526,-3.0392,-3.1516,-3.2977,-3.4005,-3.4875,-3.5613,-3.6377,-3.7084,-3.7771,-3.8209,-3.8682,-3.9214,-3.9542,-4.0057,-4.0643,-4.0795,-4.0815,-4.0716,-4.0576,-4.0194,-3.9659,-3.9258,-3.8601,-3.7859,0.0,0.0,0.0,0.0,0.0,-4.522,-4.522,-4.522,-4.522,-4.522,0.0,0.0,0.0,0.0,-4.5399,-4.5417,-4.5362,-4.5282,-4.5235,-4.5235,-4.5275,-4.5275,-4.4695,-4.4383,-4.4383,-4.3398,-4.2541,-4.1805,-4.0399,-3.9217,-3.8231,-3.717,-3.6559,-3.6301,-3.636,-3.6419,-3.6419,-3.6748,-3.669,-3.6409,-3.6308,-3.6319,-3.637,-3.6466,-3.6817,-3.7182,-3.7143,-3.7471,-3.7918,-3.7685,-3.7983,-3.8516,-3.8888,-3.9395,-3.9816,-3.9785,-3.9647,-3.9439,-3.916,-3.8783,-3.8314,-3.7646,-3.6897,-3.6187,-3.562,-3.4958,-3.4002,-3.247,-3.1931,-3.1101,-2.9002,-2.8376,-2.8117,-2.7841,-2.6963,-2.6352,-2.6352,-2.5901,-2.553,-2.553,-2.546,-2.5308,-2.5155,-2.5726,-2.6027,-2.5914,-2.6569,-2.7069,-2.7271,-2.7497,-2.8105,-2.9099,-2.9827,-3.0911,-3.2345,-3.3098,-3.3856,-3.4631,-3.5508,-3.6253,-3.6914,-3.7417,-3.7969,-3.8529,-3.8841,-3.9532,-4.0462,-4.063,-4.073,-4.0758,-4.0629,-4.0346,-3.9947,-3.9633,-3.9069,-3.8394,0.0,0.0,-4.4738,-4.487,-4.4895,-4.4914,-4.4895,-4.4895,-4.4895,-4.4895,0.0,0.0,0.0,0.0,0.0,-4.5103,-4.5103,-4.5103,-4.5103,-4.517,-4.5192,-4.5192,-4.4688,-4.4383,-4.4402,-4.2647,-4.1861,-4.2198,-4.0276,-3.9093,-3.8612,-3.7836,-3.7077,-3.6293,-3.5993,-3.5817,-3.5861,-3.6412,-3.614,-3.5337,-3.5605,-3.5799,-3.6024,-3.6848,-3.7607,-3.8184,-3.8039,-3.8166,-3.8241,-3.7018,-3.6781,-3.7182,-3.8187,-3.9063,-3.9664,-3.9532,-3.9502,-3.9458,0.0,0.0,0.0,-3.8685,-3.7626,-3.6636,-3.665,-3.5268,-3.3697,-3.2855,-3.2053,-3.0881,-2.9156,-2.813,-2.7271,-2.6552,-2.5122,-2.412,-2.4108,-2.3745,-2.3526,-2.3452,-2.3818,-2.4036,-2.4036,-2.4047,-2.3975,-2.3852,-2.4576,-2.5217,-2.5755,-2.6539,-2.763,-2.9035,-2.9827,-3.0526,-3.1175,-3.229,-3.287,-3.2924,-3.4268,-3.5148,-3.5555,-3.6516,-3.7323,-3.7893,-3.8499,-3.9317,-4.0261,-4.0287,-4.0537,-4.086,-4.0602,-4.0544,-4.0517,-3.987,-3.9557,-3.9339,0.0,-4.4468,-4.4605,-4.4719,-4.4764,-4.4789,-4.4889,-4.4895,-4.4895,0.0,0.0,0.0,-4.4938,-4.4919,-4.4943,-4.5014,-4.5033,-4.5057,-4.5103,-4.517,-4.5192,-4.5192,-4.4688,-4.4374,-4.4318,-4.308,-4.2304,-4.2074,-4.0662,-3.9756,-3.9353,-3.782,-3.6949,-3.67,-3.6354,-3.6011,-3.5756,-3.6215,-3.6721,-3.7165,-3.6815,-3.6614,-3.6505,-3.6298,-3.6016,-3.5857,-3.5778,-3.6038,-3.6363,-3.6232,-3.6619,-3.7398,-3.8499,-3.9117,-3.9414,-3.9483,-3.9502,-3.9483,-3.9433,0.0,0.0,0.0,0.0,0.0,-3.626,-3.5391,-3.4463,-3.3308,-3.2648,-3.169,-2.994,-2.8996,-2.8115,-2.6921,-2.5767,-2.4862,-2.4432,-2.3936,-2.3423,-2.2979,-2.2606,-2.2456,-2.2456,-2.2979,-2.3287,-2.3287,-2.4443,-2.53,-2.5441,-2.6663,-2.7736,-2.8648,-2.9407,-3.0101,-3.0732,-3.1962,-3.2664,-3.2924,-3.4414,-3.5311,-3.5742,-3.6249,-3.6764,-3.7268,-3.7631,-3.8334,-3.9263,-4.0017,-4.0359,-4.0489,-4.0706,-4.0649,-4.0441,-4.0359,-3.9967,-3.9457,-4.4285,-4.4373,-4.4458,-4.4578,-4.4605,-4.4632,-4.4738,-4.4719,-4.4745,0.0,0.0,0.0,-4.4895,-4.4895,-4.4938,-4.4943,-4.4943,-4.4967,-4.5014,-4.508,-4.5061,-4.4905,-4.4538,-4.426,-4.4084,-4.2632,-4.1899,-4.2015,-4.0569,-3.979,-3.9559,-3.8325,-3.7543,-3.7254,-3.6733,-3.6572,-3.6635,-3.6719,-3.6953,-3.727,-3.6884,-3.6699,-3.6702,-3.6736,-3.6654,-3.6539,-3.6219,-3.6471,-3.676,-3.5842,-3.6205,-3.714,-3.7905,-3.8584,-3.911,-3.9298,-3.935,-3.935,-3.9401,-3.9298,-3.9119,-3.8869,0.0,0.0,-3.6844,-3.601,-3.5015,-3.3905,-3.3308,-3.2369,-3.0379,-2.9652,-2.8919,-2.7564,-2.6595,-2.5557,-2.4276,-2.3559,-2.299,-2.2252,-2.1949,-2.1807,-2.1807,-2.2252,-2.2478,-2.2478,-2.3925,-2.5075,-2.5734,-2.6633,-2.7417,-2.8051,-2.8762,-2.9484,-3.019,-3.1407,-3.213,-3.2305,-3.3871,-3.4752,-3.4971,-3.5749,-3.6308,-3.6643,-3.717,-3.7755,-3.8407,-3.9406,-3.9999,-4.0333,-4.0708,-4.0742,-4.0569,-4.0597,-4.0308,-3.9886,0.0,-4.4255,-4.4314,-4.4458,-4.4487,-4.4487,-4.4515,-4.4515,-4.4524,0.0,-4.4685,-4.4764,-4.4889,-4.4895,-4.4895,-4.4895,-4.4895,-4.4895,-4.4895,-4.4943,-4.4833,-4.4519,-4.4318,-4.4053,-4.3772,-4.1841,-4.118,-4.1955,-4.0331,-3.9447,-3.9399,-3.8971,-3.8419,-3.7698,-3.7034,-3.7154,-3.7761,-3.7497,-3.7025,-3.6405,-3.6448,-3.6522,-3.6741,-3.7469,-3.8081,-3.8389,-3.7819,-3.7933,-3.807,-3.5871,-3.5749,-3.6579,-3.6935,-3.7787,-3.8725,-3.8989,-3.9073,-3.9101,-3.9245,-3.9272,-3.9298,-3.9427,-3.8707,0.0,-3.7902,-3.6802,-3.5576,-3.4605,-3.4022,-3.3019,-3.0954,-3.0379,-2.9775,-2.8465,-2.7564,-2.6327,-2.4074,-2.3305,-2.267,-2.1873,-2.1949,-2.2101,-2.2101,-2.1949,-2.1949,-2.1949,-2.3254,-2.4767,-2.6383,-2.6533,-2.6782,-2.7484,-2.8182,-2.8826,-2.9623,-3.0881,-3.1537,-3.1595,-3.3114,-3.3853,-3.3937,-3.5174,-3.5854,-3.6097,-3.6939,-3.7413,-3.7756,-3.8685,-3.9509,-4.0246,-4.0626,-4.0777,-4.0778,-4.0665,-4.0583,-4.0427,-4.4005,-4.4067,-4.4116,-4.4314,-4.4344,-4.4373,-4.4487,-4.4515,-4.4515,-4.4542,-4.4632,-4.4764,-4.4889,-4.4895,-4.4895,-4.4895,-4.4895,-4.4895,-4.4895,-4.4943,-4.4833,-4.4519,-4.4318,-4.3992,-4.3572,-4.2225,-4.1594,-4.1778,-4.0681,-3.9901,-3.9547,-3.8585,-3.7735,-3.7161,-3.6678,-3.6662,-3.7069,-3.7552,-3.754,-3.7197,-3.7181,-3.7238,-3.7155,-3.6508,-3.6083,-3.5983,-3.6291,-3.6502,-3.6591,-3.6398,-3.6253,-3.6271,-3.6988,-3.756,-3.8044,-3.8676,-3.8862,-3.8892,-3.9101,-3.9156,-3.9156,-3.9165,-3.8913,0.0,-3.7873,-3.7124,-3.6243,-3.5369,-3.4861,-3.4203,-3.3171,-3.2455,-3.1581,-3.0153,-2.9018,-2.7643,-2.5807,-2.4957,-2.4276,-2.3683,-2.361,-2.3683,-2.3683,-2.3128,-2.2777,-2.2777,-2.3621,-2.4767,-2.6383,-2.6533,-2.6782,-2.7484,-2.8182,-2.8826,-2.9623,-3.0881,-3.1766,-3.2231,-3.3287,-3.407,-3.4513,-3.5085,-3.5498,-3.5898,-3.6374,-3.6939,-3.7523,-3.8407,-3.9111,-3.9724,-4.0323,-4.061,-4.0723,-4.0808,-4.074,-4.0519,-4.3942,-4.4005,-4.4036,-4.4147,-4.4147,-4.4177,-4.4218,-4.4248,-4.4296,-4.4401,-4.4578,-4.4738,-4.4796,-4.4846,-4.4895,-4.4895,-4.4895,-4.4895,-4.4895,-4.4919,-4.4783,-4.4465,-4.4184,-4.3899,-4.3542,-4.2248,-4.1648,-4.1709,-4.0676,-3.9918,-3.9401,-3.8665,-3.7855,-3.7049,-3.6938,-3.6821,-3.6747,-3.7361,-3.746,-3.7147,-3.7103,-3.6867,-3.6625,-3.6195,-3.5949,-3.5829,-3.6118,-3.6156,-3.6161,-3.6655,-3.6721,-3.6638,-3.6638,-3.7026,-3.7613,-3.8259,-3.8436,-3.8548,-3.897,-3.9101,-3.9101,-3.9101,-3.895,0.0,0.0,-3.7718,-3.7197,-3.6441,-3.6136,-3.5702,-3.4678,-3.4233,-3.353,-3.2199,-3.0863,-2.9407,-2.7954,-2.6221,-2.4862,-2.4181,-2.4108,-2.4108,-2.4108,-2.3423,-2.3139,-2.3486,-2.3902,-2.4767,-2.6383,-2.6533,-2.6658,-2.6973,-2.7986,-2.8698,-2.903,-3.0689,-3.1652,-3.1936,-3.3024,-3.3751,-3.4284,-3.4927,-3.5316,-3.5543,-3.635,-3.6776,-3.6978,-3.7959,-3.8637,-3.9189,-4.0089,-4.0577,-4.0754,-4.0835,-4.0812,-4.0707,-4.3832,-4.3923,-4.4005,-4.4005,-4.4005,-4.4005,-4.4005,-4.4005,-4.4067,-4.4285,-4.4421,-4.456,-4.4659,-4.4629,-4.4707,-4.4821,-4.4726,-4.4707,-4.4846,-4.4802,-4.4681,-4.443,-4.4095,-4.3804,-4.3579,-4.2208,-4.1543,-4.1648,-4.0611,-3.9747,-3.9028,-3.8843,-3.8067,-3.698,-3.6935,-3.6753,-3.6569,-3.689,-3.6829,-3.6585,-3.6538,-3.629,-3.5864,-3.5879,-3.6006,-3.6182,-3.6282,-3.626,-3.6222,-3.6751,-3.7067,-3.7069,-3.6327,-3.6661,-3.7408,-3.7857,-3.8023,-3.8172,-3.8905,-3.9101,-3.9129,-3.9165,-3.9017,-3.8815,0.0,0.0,0.0,-3.7435,-3.7308,-3.6958,-3.588,-3.5736,-3.5358,-3.4215,-3.2792,-3.146,-3.0295,-2.8015,-2.5864,-2.4469,-2.4409,-2.448,-2.4337,-2.3632,-2.3486,-2.4047,-2.4108,-2.4767,-2.6383,-2.6533,-2.6533,-2.6533,-2.7802,-2.8492,-2.8492,-3.0375,-3.1422,-3.1709,-3.2625,-3.3339,-3.3903,-3.4625,-3.5085,-3.527,-3.6326,-3.6696,-3.6597,-3.7596,-3.8259,-3.8795,-3.9833,-4.0442,-4.0734,-4.08,-4.0855,-4.0835,-4.3433,-4.3675,-4.4005,-4.4005,-4.4005,-4.4005,-4.4005,-4.4005,-4.4067,-4.4285,-4.4079,-4.4042,-4.4468,-4.4065,-4.3955,-4.4496,-4.4065,-4.4046,-4.4667,-4.4495,-4.4374,-4.4402,-4.4095,-4.3754,-4.344,-4.2167,-4.1481,-4.1525,-4.0563,-3.9523,-3.839,-3.8351,-3.7738,-3.6538,-3.5533,-3.5533,-3.618,-3.571,-3.5454,-3.537,-3.5834,-3.5864,-3.5688,-3.5067,-3.5082,-3.5444,-3.6166,-3.636,-3.6346,-3.6814,-3.6983,-3.687,-3.6458,-3.6819,-3.7457,-3.7685,-3.7736,-3.7941,-3.8847,-3.9101,-3.9156,-3.9401,-3.9272,-3.9055,-3.9036,0.0,-3.8523,-3.7771,0.0,-3.7471,-3.692,0.0,0.0,-3.5792,-3.4617,-3.3533,-3.2631,-3.1268,-2.9016,-2.5368,-2.5652,-2.5943,-2.5229,-2.442,-2.4047,-2.412,-2.4108,-2.4767,-2.6383,-2.6533,-2.6533,-2.6533,-2.7802,-2.8492,-2.8492,-2.9979,-3.1263,-3.2272,-3.2437,-3.3018,-3.4084,-3.4184,-3.4561,-3.5224,-3.5776,-3.635,-3.7009,-3.7685,-3.8259,-3.8756,-3.9422,-3.9996,-4.0486,-4.0777,-4.0896,-4.0862,-4.4467,-4.4711,-4.4831,-4.4656,-4.4647,-4.448,-4.4079,-4.4005,-4.4036,-4.4097,-4.4097,-4.4158,-4.4373,-4.4229,-4.4162,-4.4202,-4.3986,-4.4016,-4.4439,-4.4173,-4.4125,-4.4402,-4.3893,-4.3437,-4.3014,-4.1985,-4.1366,-4.1094,-4.0434,-3.9454,-3.8278,-3.8278,-3.7472,-3.6006,-3.5065,-3.464,-3.4721,-3.4507,-3.424,-3.3998,-3.4365,-3.4394,-3.4138,-3.4549,-3.4898,-3.5279,-3.6006,-3.6322,-3.6422,-3.6926,-3.7215,-3.7197,-3.6438,-3.6485,-3.683,-3.7005,-3.7179,-3.7542,-3.864,-3.8748,-3.8663,-3.9146,-3.899,-3.8803,-3.9223,-3.9371,-3.9308,-3.8987,0.0,0.0,0.0,0.0,0.0,0.0,-3.6595,-3.5509,-3.4203,-3.3226,-3.1605,-2.8788,-2.8416,-2.7735,-2.6077,-2.5193,-2.485,-2.4981,-2.485,-2.5358,-2.6589,-2.6905,-2.6905,-2.6533,-2.8195,-2.8953,-2.8492,-2.9917,-3.0851,-3.1364,-3.2048,-3.2749,-3.3443,-3.4118,-3.4802,-3.5402,-3.5933,-3.6416,-3.6878,-3.7685,-3.8216,-3.8573,-3.9093,-3.9755,-4.0443,-4.0739,-4.0878,-4.0879,-4.5689,-4.5685,-4.5479,-4.5411,-4.5419,-4.5175,-4.4406,-4.4153,-4.4005,-4.4005,-4.4067,-4.4147,-4.4207,-4.4079,-4.398,-4.3912,-4.3652,-4.3634,-4.3838,-4.3684,-4.3634,-4.3776,-4.3502,-4.3105,-4.2663,-4.1877,-4.1321,-4.0972,-4.0385,-3.9454,-3.8278,-3.8278,-3.7472,-3.5879,-3.4802,-3.4105,-3.3682,-3.3338,-3.3003,-3.2664,-3.3045,-3.3017,-3.2903,-3.3962,-3.4668,-3.5148,-3.5703,-3.6006,-3.6166,-3.6727,-3.7191,-3.7411,-3.658,-3.639,-3.6538,-3.6723,-3.6719,-3.7011,-3.8194,-3.8291,-3.825,-3.9008,-3.8943,-3.8868,-3.9529,-3.9772,-3.9819,-3.9821,-3.9821,0.0,0.0,0.0,-3.949,-3.9032,0.0,-3.7358,-3.616,-3.5307,-3.3793,-3.1086,-2.9985,-2.8816,-2.7076,-2.6108,-2.5697,-2.5881,-2.5557,-2.5861,-2.6918,-2.7364,-2.743,-2.704,-2.8712,-2.9345,-2.8826,-2.9993,-3.0687,-3.0851,-3.1879,-3.2571,-3.2992,-3.4052,-3.4849,-3.5357,-3.5977,-3.6416,-3.6724,-3.7559,-3.8086,-3.8446,-3.8849,-3.9513,-4.0288,-4.0602,-4.0779,-4.0867,-4.6653,-4.6104,-4.5624,-4.6081,-4.6151,-4.5909,-4.5193,-4.4443,-4.4005,-4.4005,-4.3795,-4.373,-4.3974,-4.3249,-4.2995,-4.3545,-4.2826,-4.2422,-4.2648,-4.2905,-4.2776,-4.2201,-4.2777,-4.2923,-4.2513,-4.1768,-4.1445,-4.1481,-4.0563,-3.9454,-3.8278,-3.8278,-3.7679,-3.6414,-3.478,-3.393,-3.3628,-3.2508,-3.1742,-3.1315,-3.2033,-3.2263,-3.2218,-3.3143,-3.4031,-3.4765,-3.5082,-3.5213,-3.5329,-3.5991,-3.6675,-3.7171,-3.7038,-3.6926,-3.6937,-3.703,-3.6603,-3.6295,-3.7434,-3.7889,-3.8327,-3.9177,-3.9414,-3.959,-4.0063,-4.0024,-3.9882,-3.9887,-3.9907,-3.9888,-3.9888,-3.9986,-4.0062,-4.0062,-3.9591,0.0,0.0,-3.8047,-3.5618,-3.0773,-2.9294,-2.8602,-2.8539,-2.7183,-2.6327,-2.6587,-2.5938,-2.6252,-2.7709,-2.7776,-2.8026,-2.8427,-2.9219,-2.9623,-2.9546,-3.0251,-3.0911,-3.1495,-3.2104,-3.2695,-3.3182,-3.3815,-3.4399,-3.493,-3.5616,-3.6165,-3.6655,-3.7337,-3.7915,-3.8428,-3.8626,-3.9207,-3.9965,-4.0353,-4.0626,-4.0821,-4.7097,-4.6597,-4.606,-4.6327,-4.6691,-4.6688,-4.5993,-4.5245,-4.4642,-4.437,-4.3736,-4.3318,-4.3212,-4.2922,-4.2828,-4.2995,-4.275,-4.2501,-4.234,-4.2698,-4.2603,-4.1795,-4.2567,-4.26,-4.1586,-4.1348,-4.1094,-4.0926,-4.0204,-3.9242,-3.8133,-3.8124,-3.7504,-3.6211,-3.4537,-3.3476,-3.2807,-3.1729,-3.0882,-3.0215,-3.0732,-3.097,-3.0983,-3.1549,-3.2635,-3.3948,-3.4002,-3.4572,-3.5279,-3.5958,-3.6352,-3.6552,-3.6564,-3.6453,-3.6268,-3.5776,-3.5927,-3.6229,-3.6417,-3.6689,-3.7163,-3.8253,-3.8389,-3.8541,-3.9721,-4.0043,-4.0138,-4.0332,-4.0345,-4.038,-4.0415,-4.0466,-4.0466,-4.038,-4.0221,-3.9986,0.0,-3.8674,-3.7322,-3.5567,-3.3469,-3.1634,-3.0205,-2.9265,-2.8584,-2.8244,-2.7998,-2.8155,-2.8789,-2.898,-2.903,-2.8812,-2.9794,-3.0068,-2.9747,-3.0312,-3.0911,-3.148,-3.2104,-3.2695,-3.3235,-3.3917,-3.4578,-3.5115,-3.5776,-3.6333,-3.686,-3.7577,-3.8086,-3.8415,-3.8658,-3.9205,-3.9905,-4.0351,-4.063,-4.0784,-4.7142,-4.6724,-4.633,-4.6801,-4.7126,-4.715,-4.6703,-4.5714,-4.4821,-4.429,-4.3576,-4.2876,-4.2275,-4.2487,-4.258,-4.2382,-4.232,-4.2244,-4.2154,-4.2144,-4.1877,-4.1262,-4.1842,-4.1647,-4.0426,-4.0685,-4.0559,-4.0152,-3.9645,-3.8832,-3.7962,-3.7764,-3.7147,-3.6085,-3.4551,-3.3323,-3.2297,-3.114,-3.0152,-2.9328,-2.9639,-2.9793,-2.9871,-3.0228,-3.1402,-3.2932,-3.3059,-3.3561,-3.4327,-3.5124,-3.5449,-3.5503,-3.6135,-3.6094,-3.5763,-3.5482,-3.5852,-3.6217,-3.591,-3.626,-3.687,-3.7666,-3.7763,-3.7981,-3.9336,-3.9747,-3.989,-4.0095,-4.0326,-4.0342,-3.9908,-4.0268,-4.0506,-4.0197,-4.0404,-4.0446,0.0,-3.9233,-3.8586,-3.82,-3.5942,-3.386,-3.2384,-3.0906,-3.0098,-3.0079,-2.9226,-2.9129,-2.9922,-2.9964,-2.9931,-2.978,-3.0433,-3.0628,-3.0251,-3.0507,-3.097,-3.1595,-3.2104,-3.2695,-3.3251,-3.3968,-3.4658,-3.522,-3.5644,-3.6249,-3.6939,-3.7395,-3.7913,-3.8415,-3.8496,-3.9027,-3.98,-4.0185,-4.0557,-4.0855,-4.6771,-4.6507,-4.6489,-4.7421,-4.7432,-4.7335,-4.7371,-4.5906,-4.4584,-4.383,-4.3179,-4.2414,-4.1262,-4.1824,-4.2139,-4.175,-4.1587,-4.1587,-4.1853,-4.1213,-4.072,-4.046,-4.0672,-4.0331,-3.9201,-3.9851,-3.9952,-3.9426,-3.8912,-3.8358,-3.7764,-3.7191,-3.6554,-3.5894,-3.4624,-3.338,-3.2082,-3.0794,-2.9561,-2.851,-2.8724,-2.8882,-2.9131,-2.9263,-3.0304,-3.1723,-3.2119,-3.2249,-3.2464,-3.3602,-3.3959,-3.4216,-3.5834,-3.5861,-3.5385,-3.6009,-3.623,-3.6206,-3.596,-3.6569,-3.7332,-3.7376,-3.7539,-3.7881,-3.8894,-3.9132,-3.9137,-3.9232,-3.9754,-3.9794,-3.8469,-3.944,-4.0252,-3.9642,-4.0246,-4.0593,-4.0005,-3.9802,-3.94,-3.8564,-3.6605,-3.52,-3.4835,-3.2168,-3.0878,-3.1962,-2.985,-2.9303,-3.1056,-3.0629,-3.0568,-3.1073,-3.1087,-3.1087,-3.1087,-3.0881,-3.1146,-3.1736,-3.2216,-3.2695,-3.3303,-3.4018,-3.4658,-3.5174,-3.5328,-3.5977,-3.686,-3.69,-3.7487,-3.835,-3.8119,-3.8722,-3.9747,-3.9965,-4.0442,-4.0995,-4.6189,-4.62,-4.6363,-4.6999,-4.7611,-4.8069,-4.8162,-4.6684,-4.5186,-4.4143,-4.277,-4.1457,-4.0431,-4.0477,-4.0638,-4.0698,-4.078,-4.0703,-4.038,-4.0839,-4.0668,-3.9627,-4.0573,-4.0474,-3.9163,-3.9749,-3.9817,-3.9337,-3.869,-3.8149,-3.7648,-3.7011,-3.6087,-3.4942,-3.4341,-3.3101,-3.1336,-3.0594,-2.9561,-2.851,-2.8724,-2.8724,-2.8669,-2.9052,-2.9419,-2.9947,-3.0882,-3.1669,-3.2464,-3.3339,-3.3408,-3.3449,-3.5023,-3.51,-3.4623,-3.4891,-3.532,-3.5697,-3.5598,-3.584,-3.6303,-3.7161,-3.7084,-3.7053,-3.794,-3.8157,-3.821,-3.8452,-3.8614,-3.8712,-3.8652,-3.9248,-3.9814,-3.9929,-4.0423,-4.07,-4.0396,-4.01,-3.974,-3.92,-3.8091,-3.6738,-3.5165,-3.4088,-3.3212,-3.2633,-3.1804,-3.1534,-3.2018,-3.1422,-3.1161,-3.1366,-3.119,-3.1132,-3.1234,-3.1073,-3.1495,-3.2516,-3.2641,-3.3214,-3.4168,-3.4497,-3.4691,-3.4866,-3.5345,-3.5847,-3.6399,-3.6781,-3.7358,-3.8119,-3.8346,-3.9088,-4.0043,-4.0397,-4.0682,-4.0937,-4.6847,-4.7084,-4.7391,-4.7635,-4.8055,-4.8218,-4.7852,-4.6958,-4.59,-4.4894,-4.3152,-4.1699,-4.1018,-4.0375,-3.9986,-3.9902,-4.0069,-4.0169,-4.0248,-3.9968,-3.9682,-3.9318,-3.9443,-3.9043,-3.7914,-3.8564,-3.8619,-3.8028,-3.7674,-3.7354,-3.7071,-3.6445,-3.5529,-3.4461,-3.3919,-3.2607,-3.0742,-2.9833,-2.9028,-2.8419,-2.8578,-2.8578,0.0,-2.8816,-2.8961,-2.9118,-2.9935,-3.067,-3.1341,-3.2205,-3.2407,-3.2478,-3.3768,-3.4259,-3.4307,-3.4383,-3.5148,-3.5902,-3.5571,-3.5815,-3.6198,-3.625,-3.6047,-3.6024,-3.6814,-3.7005,-3.7149,-3.7476,-3.7854,-3.7997,-3.7564,-3.8516,-3.9556,-4.0135,-4.0492,-4.0635,-4.0454,-4.0298,-4.0063,-3.9571,-3.8728,-3.7641,-3.6422,-3.5304,-3.446,-3.3869,-3.3029,-3.2656,-3.3033,-3.2176,-3.1739,-3.191,-3.1467,-3.1307,-3.1409,-3.1234,-3.1625,-3.2547,-3.2477,-3.3018,-3.4151,-3.43,-3.4578,-3.5038,-3.5224,-3.5776,-3.6522,-3.6563,-3.719,-3.8101,-3.867,-3.9212,-3.9747,-4.0337,-4.0735,-4.096,-4.8032,-4.8449,-4.8821,-4.8848,-4.8556,-4.7961,-4.7037,-4.6795,-4.6442,-4.5561,-4.3717,-4.2342,-4.1903,-4.0641,-3.9645,-3.9279,-3.9401,-3.9749,-4.034,-3.8896,-3.8325,-3.8944,-3.7939,-3.7071,-3.6368,-3.6935,-3.6935,-3.643,-3.629,-3.629,-3.6368,-3.5653,-3.4905,-3.4095,-3.3422,-3.2019,-3.0227,-2.8767,-2.8179,-2.8179,-2.8259,-2.8351,-2.851,-2.8566,-2.8712,-2.887,-2.9263,-2.9521,-2.9921,-3.0833,-3.1193,-3.1502,-3.255,-3.3463,-3.4163,-3.4245,-3.534,-3.6307,-3.5782,-3.62,-3.6517,-3.5353,-3.509,-3.5281,-3.5722,-3.5967,-3.6177,-3.6486,-3.7219,-3.7435,-3.6079,-3.7569,-3.9279,-4.0118,-4.0377,-4.0338,-4.01,-4.0172,-4.0061,-3.9486,-3.8644,0.0,-3.7763,-3.6041,-3.5031,-3.5178,-3.3758,-3.3196,-3.3917,-3.2926,-3.2342,-3.2398,-3.191,-3.1582,-3.1482,-3.1409,-3.1625,-3.2247,-3.2064,-3.2586,-3.3761,-3.3848,-3.4464,-3.5345,-3.5024,-3.5616,-3.6701,-3.6357,-3.6964,-3.8183,-3.8961,-3.9223,-3.9271,-4.0074,-4.0599,-4.0948,-4.8655,-4.8806,-4.9017,-4.9431,-4.859,-4.763,-4.7069,-4.6317,-4.5555,-4.4884,-4.3006,-4.153,-4.0867,-3.9544,-3.8655,-3.86,-3.8711,-3.8606,-3.8213,-3.7962,-3.7674,-3.7243,-3.7203,-3.6829,-3.6258,-3.6369,-3.643,-3.643,-3.5788,-3.5788,-3.6368,-3.5109,-3.4109,-3.3353,-3.2648,-3.1254,-2.9549,-2.8419,-2.803,-2.8167,-2.7406,-2.7661,-2.8431,-2.7753,-2.7995,-2.8803,-2.9052,-2.9275,-2.9651,-3.0594,-3.0696,-3.0659,-3.2245,-3.2932,-3.331,-3.4095,-3.4957,-3.5816,-3.6307,-3.6222,-3.6048,-3.6446,-3.6238,-3.5837,-3.5613,-3.5789,-3.5937,-3.5701,-3.6002,-3.6316,-3.6097,-3.7074,-3.8343,-3.9392,-3.9586,-3.9422,-3.8896,-3.8889,-3.8707,-3.812,-3.7708,-3.747,-3.756,-3.6452,-3.5786,-3.583,-3.4686,-3.4037,-3.4301,-3.3391,-3.2749,-3.2398,-3.2287,-3.2023,-3.1524,-3.1467,-3.1739,-3.2342,-3.2342,-3.2926,-3.405,-3.405,-3.4382,-3.4977,-3.4947,-3.5224,-3.5864,-3.6105,-3.7006,-3.831,-3.8781,-3.9231,-3.9645,-4.0024,-4.0385,-4.0694,-4.8374,-4.8768,-4.9017,-4.8959,-4.8154,-4.7357,-4.6893,-4.6012,-4.5386,-4.5445,-4.3767,-4.2637,-4.2637,-4.0466,-3.8958,-3.8958,-3.8357,-3.7828,-3.7504,-3.6995,-3.6569,-3.6259,-3.6087,-3.5849,-3.5494,-3.513,-3.518,-3.5623,-3.4898,-3.4684,-3.5044,-3.438,-3.3408,-3.2205,-3.0206,-2.8731,-2.768,-2.6246,-2.5755,-2.5813,-2.5469,-2.5699,-2.62,-2.5801,-2.6041,-2.6607,-2.6843,-2.7085,-2.7648,-2.968,-3.0216,-3.0292,-3.1246,-3.1869,-3.2407,-3.2989,-3.3973,-3.4957,-3.5275,-3.5655,-3.5937,-3.5895,-3.5859,-3.5735,-3.5637,-3.5503,-3.5465,-3.5877,-3.5921,-3.6011,-3.6429,-3.7013,-3.7724,-3.8618,-3.8925,-3.8957,-3.872,-3.8618,-3.8356,-3.7874,-3.731,-3.7106,-3.7451,-3.658,-3.6114,-3.6323,-3.5487,-3.4971,-3.4925,-3.4203,-3.3633,-3.3298,-3.3287,-3.3008,-3.2516,-3.2461,-3.2625,-3.2949,-3.2841,-3.3108,-3.3646,-3.3984,-3.425,-3.4497,-3.4804,-3.5211,-3.5766,-3.6522,-3.7323,-3.8165,-3.8579,-3.8915,-3.9178,-3.9709,-4.0005,-4.0178,-4.8001,-4.8555,-4.8781,-4.8049,-4.7233,-4.6629,-4.6272,-4.5341,-4.5016,-4.5958,-4.444,-4.357,-4.4158,-4.1357,-3.9328,-3.9167,-3.8074,-3.7259,-3.6982,-3.6102,-3.5559,-3.5429,-3.4905,-3.4572,-3.4572,-3.3547,-3.3394,-3.4095,-3.3394,-3.3045,-3.3127,-3.2974,-3.2061,-3.0429,-2.7584,-2.6265,-2.5938,-2.4223,-2.3524,-2.3604,-2.3583,-2.3801,-2.4119,-2.3949,-2.4129,-2.4467,-2.4692,-2.5093,-2.5723,-2.8059,-2.9167,-2.9741,-2.9973,-3.0771,-3.1709,-3.1928,-3.2975,-3.4027,-3.4027,-3.481,-3.5439,-3.4913,-3.5107,-3.5415,-3.5622,-3.5393,-3.5356,-3.6338,-3.6165,-3.6041,-3.6823,-3.6921,-3.7214,-3.8117,-3.8407,-3.8588,-3.8707,-3.8431,-3.8065,-3.768,-3.7013,-3.6819,-3.734,-3.6638,-3.6326,-3.6825,-3.6215,-3.5759,-3.5644,-3.5031,-3.4576,-3.4251,-3.4186,-3.3905,-3.3391,-3.3391,-3.3391,-3.3391,-3.3235,-3.3182,-3.3235,-3.3815,-3.4101,-3.4134,-3.4691,-3.5333,-3.6028,-3.69,-3.7559,-3.8052,-3.8428,-3.8585,-3.8688,-3.9402,-3.9664,-3.9757,-4.8164,-4.8322,-4.8015,-4.6884,-4.5585,-4.4772,-4.4708,-4.3652,-4.3406,-4.5112,-4.3785,-4.2722,-4.2785,-4.0478,-3.87,-3.8106,-3.7622,-3.6886,-3.5688,-3.5464,-3.5154,-3.4534,-3.3948,-3.3644,-3.3644,-3.1602,-3.0913,-3.1621,-3.0913,-3.065,-3.0828,-3.0211,-2.903,-2.7383,-2.5693,-2.5205,-2.536,-2.3924,-2.3444,-2.3524,-2.2737,-2.3031,-2.3881,-2.301,-2.3332,-2.4277,-2.4434,-2.4714,-2.5004,-2.5451,-2.6843,-2.8335,-2.8779,-2.9986,-3.1328,-3.1723,-3.2407,-3.3101,-3.3269,-3.3782,-3.4259,-3.4201,-3.4589,-3.5066,-3.5505,-3.579,-3.6151,-3.6678,-3.6191,-3.5987,-3.6908,-3.6509,-3.6523,-3.8129,-3.8169,-3.8025,-3.8185,-3.7694,-3.7175,-3.6781,-3.6638,-3.6701,-3.6939,-3.6771,-3.6851,-3.7395,-3.6563,-3.6182,-3.6492,-3.5715,-3.5111,-3.4669,-3.4333,-3.3969,-3.3391,-3.3391,-3.3391,-3.3391,-3.3235,-3.3182,-3.3235,-3.3815,-3.4118,-3.4235,-3.4835,-3.5633,-3.6539,-3.6724,-3.7266,-3.8052,-3.8428,-3.8585,-3.8658,-3.9287,-3.9609,-3.9731,-4.5748,-4.5782,-4.5538,-4.4699,-4.415,-4.3717,-4.34,-4.2956,-4.2875,-4.3546,-4.2864,-4.2294,-4.2388,-4.052,-3.9001,-3.8111,-3.7192,-3.6235,-3.5444,-3.5023,-3.4423,-3.3742,-3.3451,-3.3073,-3.2648,-3.0817,-3.0189,-3.0987,-3.0189,-2.9606,-2.9176,-2.9454,-2.8381,-2.6161,-2.4476,-2.3472,-2.305,-2.1382,-2.0736,-2.0806,-2.0585,-2.0816,-2.1283,-2.0895,-2.1134,-2.1658,-2.1903,-2.2234,-2.2549,-2.2945,-2.4624,-2.6624,-2.6936,-2.7529,-2.8275,-2.9045,-2.9882,-3.0626,-3.1198,-3.2234,-3.3278,-3.3509,-3.4051,-3.4787,-3.5766,-3.5858,-3.6043,-3.6978,-3.6949,-3.6787,-3.711,-3.6662,-3.6604,-3.7575,-3.7386,-3.7291,-3.7762,-3.7344,-3.6843,-3.6416,-3.6139,-3.6054,-3.6224,-3.6241,-3.6516,-3.7188,-3.6597,-3.6308,-3.6504,-3.619,-3.5476,-3.4366,-3.4971,-3.4925,-3.402,-3.4431,-3.4658,-3.4658,-3.4448,-3.3969,-3.3339,-3.4267,-3.4739,-3.4866,-3.5182,-3.5854,-3.6643,-3.6498,-3.7094,-3.8122,-3.7982,-3.8117,-3.8401,-3.8807,-3.8971,-3.909,-4.3956,-4.3714,-4.3337,-4.2574,-4.2507,-4.2398,-4.2036,-4.2001,-4.2007,-4.2046,-4.1663,-4.1478,-4.1748,-4.0359,-3.9025,-3.7918,-3.6689,-3.581,-3.5281,-3.4404,-3.3687,-3.3157,-3.2464,-3.196,-3.1783,-2.9591,-2.8893,-2.9732,-2.8893,-2.81,-2.7366,-2.7789,-2.7015,-2.5154,-2.3182,-2.208,-2.1461,-1.9635,-1.8922,-1.8922,-1.9152,-1.9311,-1.9399,-1.9478,-1.9636,-1.9872,-2.0029,-2.0378,-2.0777,-2.1105,-2.2538,-2.4249,-2.5058,-2.5612,-2.6159,-2.7162,-2.7996,-2.8666,-2.9535,-3.0733,-3.187,-3.21,-3.2762,-3.3671,-3.4976,-3.5167,-3.555,-3.7054,-3.7253,-3.7129,-3.7299,-3.7003,-3.6936,-3.7632,-3.7551,-3.7539,-3.799,-3.7606,-3.7154,-3.6992,-3.6429,-3.614,-3.6336,-3.626,-3.6399,-3.6978,-3.6615,-3.6492,-3.6706,-3.6522,-3.589,-3.4738,-3.5481,-3.5543,-3.4754,-3.5228,-3.5492,-3.5492,-3.5105,-3.4415,-3.3495,-3.4185,-3.4818,-3.5354,-3.5321,-3.5793,-3.6563,-3.6367,-3.6956,-3.7967,-3.7632,-3.781,-3.8241,-3.851,-3.8585,-3.8628,-4.3553,-4.2749,-4.1933,-4.0768,-4.0539,-4.0539,-4.0555,-4.0555,-4.0576,-4.0674,-4.0103,-3.9953,-4.0616,-3.9783,-3.859,-3.7317,-3.6258,-3.5439,-3.4853,-3.3479,-3.2761,-3.2974,-3.0654,-2.9834,-3.0882,-2.7567,-2.6235,-2.7139,-2.6235,-2.5579,-2.5028,-2.4538,-2.4183,-2.3727,-2.1799,-2.1121,-2.1392,-1.9485,-1.87,-1.87,-1.8922,-1.9002,-1.9002,-1.9231,-1.939,-1.9566,-1.9645,-1.9882,-2.0274,-2.0274,-2.0596,-2.1376,-2.3556,-2.4781,-2.5724,-2.695,-2.7385,-2.7729,-2.8723,-2.9447,-2.9854,-2.9854,-3.0419,-3.1316,-3.2786,-3.3521,-3.4547,-3.693,-3.6817,-3.6596,-3.7514,-3.7466,-3.7617,-3.8717,-3.9064,-3.9157,-3.9157,-3.855,-3.8236,-3.8696,-3.7757,-3.7193,-3.7575,-3.7155,-3.6882,-3.6829,-3.6597,-3.6748,-3.7259,-3.6719,-3.6308,-3.6097,-3.5728,-3.5492,-3.5492,-3.5492,-3.5492,-3.5492,-3.4851,-3.4202,-3.3582,-3.3182,-3.3935,-3.5492,-3.4991,-3.5374,-3.6301,-3.6301,-3.6799,-3.7505,-3.7505,-3.781,-3.8241,-3.851,-3.8585,-3.8658,-4.2207,-4.1681,-4.114,-4.0338,-4.0261,-4.0246,-3.9809,-3.9895,-3.9813,-3.9445,-3.9223,-3.9017,-3.8839,-3.8468,-3.7866,-3.6785,-3.5935,-3.5077,-3.4066,-3.3179,-3.2001,-3.0366,-2.9526,-2.876,-2.8152,-2.6273,-2.5641,-2.6235,-2.5819,-2.5576,-2.5507,-2.4807,-2.4262,-2.3794,-2.1991,-2.1048,-2.0751,-1.9155,-1.8523,-1.8523,-1.8692,-1.878,-1.8772,-1.8851,-1.9002,-1.924,-1.9311,-1.9548,-1.9872,-2.0186,-2.043,-2.0625,-2.1673,-2.2299,-2.2981,-2.3857,-2.4357,-2.4935,-2.6399,-2.7321,-2.8107,-2.9061,-2.9916,-3.0868,-3.1891,-3.3358,-3.4755,-3.5842,-3.6195,-3.6651,-3.76,-3.7284,-3.7331,-3.8639,-3.8564,-3.8587,-3.9182,-3.8846,-3.8472,-3.8146,-3.7513,-3.6844,-3.6236,-3.6488,-3.6741,-3.6781,-3.7223,-3.7337,-3.7094,-3.6696,-3.6054,-3.5111,-3.547,-3.5441,-3.4911,-3.5333,-3.5396,-3.5008,-3.4787,-3.4546,-3.4317,-3.3818,-3.4317,-3.5549,-3.5424,-3.5722,-3.6259,-3.5958,-3.6498,-3.7469,-3.7208,-3.7541,-3.8225,-3.8307,-3.8322,-3.8354,-4.2184,-4.1404,-4.0788,-4.0046,-3.9745,-3.9508,-3.8826,-3.8826,-3.8679,-3.8084,-3.8084,-3.7843,-3.6922,-3.6936,-3.6782,-3.6186,-3.539,-3.4408,-3.3308,-3.1902,-3.0467,-2.8929,-2.7956,-2.7174,-2.673,-2.5316,-2.4893,-2.5557,-2.5073,-2.4914,-2.4999,-2.4155,-2.3594,-2.3228,-2.158,-2.0568,-2.0072,-1.8965,-1.8403,-1.8282,-1.8523,-1.8612,-1.8612,-1.87,-1.8772,-1.8843,-1.8745,-1.9063,-1.9469,-1.9529,-1.9854,-2.0186,-2.043,-2.0809,-2.1328,-2.2435,-2.2861,-2.3441,-2.4898,-2.5788,-2.654,-2.7403,-2.8499,-2.9713,-3.1152,-3.2634,-3.391,-3.482,-3.5338,-3.6122,-3.7526,-3.7454,-3.7543,-3.877,-3.8905,-3.8931,-3.918,-3.9101,-3.8901,-3.8668,-3.7981,-3.7399,-3.7046,-3.6956,-3.7015,-3.7218,-3.7365,-3.7301,-3.7076,-3.6816,-3.6165,-3.5174,-3.556,-3.5515,-3.4988,-3.5207,-3.5115,-3.4769,-3.435,-3.4267,-3.4415,-3.3614,-3.4153,-3.5577,-3.5178,-3.5391,-3.6002,-3.5711,-3.6165,-3.7055,-3.6939,-3.7321,-3.7967,-3.814,-3.8192,-3.8192,-4.3137,-4.1954,-4.0736,-3.9786,-3.9091,-3.8428,-3.751,-3.7448,-3.7218,-3.6624,-3.683,-3.6582,-3.5101,-3.5345,-3.5588,-3.5494,-3.4532,-3.3534,-3.2607,-2.9953,-2.8493,-2.8469,-2.613,-2.5242,-2.6235,-2.4573,-2.4069,-2.4861,-2.4069,-2.3657,-2.3657,-2.2755,-2.2306,-2.2199,-2.0747,-1.9844,-1.9469,-1.8751,-1.8309,-1.7993,-1.821,-1.8282,-1.8362,-1.8531,-1.8612,-1.8531,-1.7861,-1.8256,-1.8966,-1.847,-1.8957,-1.9784,-1.9863,-2.0177,-2.0789,-2.2134,-2.2638,-2.2999,-2.4036,-2.4767,-2.5181,-2.5252,-2.6501,-2.8277,-3.0446,-3.1468,-3.2378,-3.3862,-3.4244,-3.4985,-3.7191,-3.7658,-3.7994,-3.9077,-3.9731,-3.9883,-3.9302,-3.9279,-3.953,-3.9909,-3.8997,-3.8643,-3.9294,-3.8229,-3.7611,-3.7983,-3.7213,-3.6834,-3.7188,-3.7017,-3.6638,-3.6019,-3.5888,-3.5728,-3.5577,-3.5068,-3.4769,-3.4673,-3.3649,-3.3459,-3.3935,-3.2895,-3.3614,-3.547,-3.4431,-3.4625,-3.5622,-3.5577,-3.5827,-3.6343,-3.6741,-3.7132,-3.7505,-3.7967,-3.814,-3.814,-4.2878,-4.1942,-4.089,-3.9496,-3.8777,-3.804,-3.6752,-3.6674,-3.661,-3.6017,-3.6017,-3.5749,-3.4841,-3.5019,-3.4677,-3.3467,-3.3489,-3.2984,-3.1767,-3.0003,-2.8233,-2.6565,-2.5231,-2.4498,-2.4251,-2.2931,-2.2394,-2.2717,-2.2746,-2.2755,-2.2755,-2.1747,-2.1293,-2.1194,-2.0015,-1.9448,-1.9233,-1.8014,-1.7459,-1.7363,-1.7171,-1.731,-1.7635,-1.7716,-1.7546,-1.7367,-1.7204,-1.7017,-1.6911,-1.7738,-1.8238,-1.8647,-1.9618,-1.9942,-2.0177,-2.0857,-2.1471,-2.2004,-2.301,-2.3661,-2.4313,-2.511,-2.6501,-2.796,-2.8876,-3.0263,-3.1438,-3.1946,-3.2937,-3.4105,-3.537,-3.6014,-3.6859,-3.8446,-3.8887,-3.932,-4.0144,-4.0063,-3.9876,-3.9767,-3.9234,-3.871,-3.832,-3.8254,-3.8183,-3.8081,-3.7905,-3.769,-3.7374,-3.7013,-3.6632,-3.6165,-3.6019,-3.5694,-3.5131,-3.4927,-3.4366,-3.3547,-3.2895,-3.2895,-3.3391,-3.3145,-3.3751,-3.4975,-3.4284,-3.4625,-3.5577,-3.5178,-3.5526,-3.6343,-3.6741,-3.6978,-3.7094,-3.7505,-3.7667,-3.7667,-4.255,-4.1784,-4.0637,-3.8677,-3.7882,-3.6967,-3.5209,-3.5087,-3.4924,-3.4262,-3.4345,-3.4178,-3.3395,-3.3186,-3.2562,-3.1276,-3.1809,-3.1614,-3.0276,-2.8379,-2.6701,-2.5263,-2.4317,-2.3647,-2.3319,-2.2236,-2.1507,-2.1221,-2.1311,-2.14,-2.14,-2.0404,-1.9951,-1.9943,-1.9126,-1.8685,-1.841,-1.7882,-1.7548,-1.7162,-1.6964,-1.6964,-1.7066,-1.7066,-1.6804,-1.637,-1.6206,-1.5951,-1.5764,-1.6347,-1.7017,-1.7836,-1.8638,-1.9213,-1.9696,-2.002,-2.0576,-2.1262,-2.1918,-2.2585,-2.339,-2.4743,-2.6008,-2.7043,-2.7828,-2.9086,-3.0228,-3.0687,-3.1696,-3.3001,-3.4589,-3.5184,-3.6014,-3.7815,-3.8206,-3.869,-3.9715,-3.9765,-3.975,-3.9887,-3.9725,-3.9442,-3.9052,-3.8965,-3.895,-3.8961,-3.8737,-3.8292,-3.7676,-3.7461,-3.6939,-3.5949,-3.5844,-3.5515,-3.4961,-3.4513,-3.3783,-3.2841,-3.2547,-3.2695,-3.3182,-3.2949,-3.3547,-3.4769,-3.3969,-3.4366,-3.5577,-3.5021,-3.5098,-3.5644,-3.6088,-3.6239,-3.6323,-3.6694,-3.7155,-3.7505,-4.2155,-4.1305,-4.0085,-3.7865,-3.6944,-3.5768,-3.373,-3.3398,-3.3129,-3.2401,-3.255,-3.2376,-3.1436,-3.0819,-3.0067,-2.9223,-2.9688,-2.9544,-2.8407,-2.6147,-2.4753,-2.4423,-2.3377,-2.2862,-2.2872,-2.1961,-2.097,-1.9968,-1.9968,-1.9968,-1.9877,-1.8972,-1.8519,-1.8519,-1.8164,-1.7827,-1.7455,-1.7951,-1.7658,-1.7079,-1.7032,-1.6889,-1.6574,-1.6484,-1.6057,-1.5455,-1.4963,-1.4873,-1.4866,-1.4622,-1.5696,-1.7188,-1.7496,-1.8318,-1.9231,-1.9478,-1.9942,-2.0489,-2.0964,-2.1578,-2.2531,-2.4302,-2.5157,-2.5951,-2.6963,-2.7907,-2.8862,-2.9794,-3.0595,-3.1845,-3.4074,-3.4621,-3.5309,-3.7026,-3.751,-3.7978,-3.8849,-3.9082,-3.9418,-4.007,-4.0238,-4.0305,-4.0355,-3.9873,-3.9714,-4.0016,-3.9417,-3.8746,-3.8021,-3.7941,-3.7197,-3.5655,-3.5583,-3.535,-3.4787,-3.4,-3.3277,-3.2563,-3.2508,-3.2711,-3.3161,-3.2656,-3.3266,-3.4593,-3.3563,-3.407,-3.5532,-3.4927,-3.4769,-3.4958,-3.534,-3.5459,-3.5459,-3.5874,-3.6516,-3.721,-4.199,-4.0796,-3.9313,-3.7795,-3.6944,-3.5768,-3.373,-3.3398,-3.3129,-3.2401,-3.1641,-3.0909,-3.0135,-2.9362,-2.8615,-2.7945,-2.739,-2.6961,-2.6818,-2.5058,-2.3957,-2.4166,-2.2541,-2.1676,-2.1872,-2.0962,-1.9968,-1.9063,-1.9063,-1.888,-1.8703,-1.7878,-1.7426,-1.7254,-1.7333,-1.739,-1.7323,-1.715,-1.6907,-1.6535,-1.6189,-1.6139,-1.6162,-1.556,-1.5054,-1.4552,-1.3873,-1.3203,-1.2625,-1.3535,-1.4699,-1.5854,-1.6838,-1.7844,-1.8851,-1.9231,-1.9381,-1.9696,-2.0489,-2.1415,-2.2402,-2.3508,-2.4409,-2.5216,-2.5869,-2.6828,-2.792,-2.8986,-2.9812,-3.0821,-3.2161,-3.3384,-3.452,-3.5747,-3.656,-3.7456,-3.8745,-3.9065,-3.9487,-4.0188,-4.0305,-4.0337,-4.0485,-4.0383,-4.0246,-4.0105,-3.9652,-3.9181,-3.8503,-3.76,-3.6666,-3.5712,-3.5652,-3.5148,-3.425,-3.3642,-3.3293,-3.3134,-3.2935,-3.2897,-3.2935,-3.2827,-3.3187,-3.3848,-3.324,-3.3832,-3.5274,-3.4448,-3.4673,-3.547,-3.5476,-3.5249,-3.4941,-3.5397,-3.5708,-3.5925,-4.0689,-3.9578,-3.8229,-3.6476,-3.5561,-3.4487,-3.2561,-3.2264,-3.1801,-3.0519,-2.9966,-2.9304,-2.8473,-2.7012,-2.6048,-2.5702,-2.4337,-2.3304,-2.2935,-2.2916,-2.276,-2.2403,-2.1105,-2.0124,-1.9679,-1.9222,-1.8596,-1.7598,-1.7598,-1.7505,-1.7412,-1.7044,-1.6864,-1.6784,-1.6864,-1.6958,-1.6951,-1.6807,-1.6557,-1.6242,-1.5934,-1.5706,-1.5565,-1.5049,-1.4643,-1.4139,-1.3633,-1.296,-1.2454,-1.2705,-1.3451,-1.4448,-1.5018,-1.6191,-1.7359,-1.7908,-1.8807,-1.9784,-2.0411,-2.1175,-2.1939,-2.2617,-2.3559,-2.4492,-2.4862,-2.5824,-2.6909,-2.7551,-2.8435,-2.95,-3.0993,-3.1884,-3.3029,-3.4988,-3.5615,-3.6424,-3.7873,-3.8446,-3.892,-3.9435,-3.9833,-4.0138,-4.0271,-4.0337,-4.0429,-4.0522,-4.0366,-3.9851,-3.8905,-3.8048,-3.6986,-3.5745,-3.5086,-3.4529,-3.3899,-3.3658,-3.345,-3.3309,-3.315,-3.3112,-3.3112,-3.3112,-3.3398,-3.3899,-3.3203,-3.3658,-3.4835,-3.4251,-3.4284,-3.4769,-3.5035,-3.4988,-3.4816,-3.5035,-3.5493,-3.5994,-3.9285,-3.8302,-3.7078,-3.5002,-3.3986,-3.2943,-3.1026,-3.0612,-3.0079,-2.8527,-2.8154,-2.7683,-2.6914,-2.4935,-2.3647,-2.3647,-2.1971,-2.0583,-1.986,-2.0779,-2.1113,-2.0619,-1.9679,-1.8764,-1.8033,-1.7762,-1.7311,-1.6588,-1.6588,-1.6588,-1.6494,-1.6581,-1.6588,-1.6494,-1.6581,-1.6588,-1.6588,-1.6588,-1.6406,-1.6092,-1.5791,-1.5483,-1.5168,-1.4684,-1.4314,-1.3977,-1.3385,-1.2875,-1.2363,-1.1946,-1.2443,-1.319,-1.336,-1.4531,-1.6034,-1.6601,-1.7989,-1.945,-2.0245,-2.0857,-2.1395,-2.1863,-2.2692,-2.3593,-2.397,-2.4874,-2.5836,-2.6501,-2.7245,-2.8302,-3.0017,-3.07,-3.171,-3.3875,-3.4636,-3.5508,-3.6908,-3.7742,-3.8367,-3.8788,-3.9398,-3.9833,-3.9969,-4.0138,-4.0387,-4.0806,-4.0776,-4.0309,-3.9404,-3.8611,-3.7398,-3.5712,-3.4658,-3.4,-3.3797,-3.3797,-3.371,-3.3503,-3.3398,-3.3398,-3.3398,-3.3398,-3.3607,-3.3949,-3.3309,-3.3607,-3.4546,-3.4152,-3.4136,-3.4382,-3.4673,-3.4769,-3.4769,-3.4673,-3.5191,-3.5968,-3.8469,-3.7415,-3.6,-3.3541,-3.2759,-3.1692,-2.9347,-2.8712,-2.8172,-2.7369,-2.6542,-2.5887,-2.579,-2.3908,-2.2619,-2.2619,-2.1599,-2.0583,-1.986,-1.9146,-1.8847,-1.9255,-1.8488,-1.8126,-1.8033,-1.7131,-1.6676,-1.6588,-1.6588,-1.6494,-1.6218,-1.6494,-1.6494,-1.6224,-1.6494,-1.6588,-1.6588,-1.6588,-1.6406,-1.6092,-1.5791,-1.5483,-1.5081,-1.4182,-1.3737,-1.3646,-1.296,-1.2186,-1.1408,-1.1327,-1.1832,-1.2413,-1.2413,-1.3931,-1.5786,-1.6034,-1.6772,-1.7917,-1.9539,-2.0333,-2.0789,-2.1385,-2.1863,-2.2478,-2.3446,-2.4043,-2.4743,-2.6296,-2.6773,-2.7391,-2.8853,-3.0164,-3.1219,-3.1816,-3.3696,-3.5278,-3.6115,-3.7223,-3.8214,-3.892,-3.9259,-3.947,-3.961,-3.9816,-4.0121,-4.0594,-4.0336,-4.0137,-4.0118,-3.9009,-3.7552,-3.5677,-3.4624,-3.4101,-3.405,-3.405,-3.405,-3.405,-3.3797,-3.3642,-3.3642,-3.3642,-3.3694,-3.3694,-3.3398,-3.3899,-3.4851,-3.4251,-3.4577,-3.5424,-3.4975,-3.4769,-3.4721,-3.4235,-3.4431,-3.4958,-3.6718,-3.5544,-3.4233,-3.1724,-3.0569,-2.9418,-2.7452,-2.682,-2.6038,-2.4478,-2.3907,-2.3439,-2.2785,-2.1371,-2.0467,-2.0467,-1.9435,-1.8554,-1.791,-1.7591,-1.7218,-1.7052,-1.6749,-1.6655,-1.6655,-1.6292,-1.6116,-1.6116,-1.6116,-1.6021,-1.5927,-1.6021,-1.6021,-1.5927,-1.6021,-1.6116,-1.6116,-1.6116,-1.6048,-1.5912,-1.562,-1.532,-1.5021,-1.4462,-1.4143,-1.4068,-1.3392,-1.296,-1.2699,-1.2272,-1.2351,-1.2522,-1.2522,-1.3021,-1.3776,-1.4525,-1.5771,-1.7107,-1.7747,-1.8718,-1.9835,-2.0702,-2.1328,-2.1928,-2.2692,-2.3372,-2.4093,-2.5063,-2.5697,-2.6458,-2.7762,-2.899,-3.0233,-3.1672,-3.2946,-3.4254,-3.5783,-3.6679,-3.7472,-3.8206,-3.8717,-3.9115,-3.9348,-3.9418,-3.9696,-4.0237,-4.0154,-3.9952,-3.9714,-3.8648,-3.7258,-3.5643,-3.5215,-3.4806,-3.4349,-3.425,-3.425,-3.4201,-3.405,-3.3949,-3.3949,-3.3949,-3.4101,-3.43,-3.3745,-3.3899,-3.4546,-3.4399,-3.4593,-3.4961,-3.5287,-3.5379,-3.5316,-3.5402,-3.5554,-3.5749,-3.5291,-3.373,-3.2118,-2.9578,-2.7953,-2.6454,-2.4581,-2.3899,-2.2863,-2.1038,-2.0836,-2.0554,-1.9892,-1.9095,-1.8693,-1.8693,-1.7982,-1.7335,-1.6747,-1.6533,-1.6246,-1.5845,-1.5832,-1.5832,-1.5832,-1.5832,-1.5832,-1.5832,-1.5832,-1.5832,-1.5832,-1.5832,-1.5832,-1.5832,-1.5832,-1.5832,-1.5832,-1.573,-1.573,-1.5805,-1.5418,-1.5126,-1.4834,-1.4542,-1.4329,-1.4146,-1.3561,-1.3307,-1.313,-1.2357,-1.21,-1.2186,-1.1929,-1.2186,-1.2869,-1.3789,-1.5039,-1.6124,-1.6206,-1.718,-1.8399,-1.9687,-2.0469,-2.1165,-2.1939,-2.2617,-2.335,-2.4238,-2.4957,-2.5721,-2.6786,-2.809,-2.9505,-3.0939,-3.2214,-3.3478,-3.4852,-3.5959,-3.686,-3.7371,-3.8213,-3.8805,-3.9007,-3.9115,-3.9365,-3.9952,-3.9918,-3.9713,-3.9398,-3.8471,-3.7373,-3.6123,-3.5876,-3.5399,-3.4659,-3.4448,-3.4349,-3.43,-3.425,-3.4201,-3.4101,-3.4151,-3.4349,-3.4643,-3.4,-3.4,-3.4546,-3.4593,-3.4658,-3.4835,-3.5549,-3.5728,-3.5622,-3.5766,-3.6028,-3.6301,-3.4388,-3.2297,-2.9891,-2.6929,-2.4783,-2.278,-2.0524,-1.9557,-1.8719,-1.7539,-1.7324,-1.7324,-1.7324,-1.7475,-1.7508,-1.7508,-1.7549,-1.7328,-1.674,-1.6152,-1.5737,-1.5737,-1.5825,-1.5832,-1.5825,-1.5825,-1.5825,-1.5825,-1.5825,-1.5825,-1.5825,-1.5825,-1.5825,-1.5825,-1.5825,-1.5825,-1.5737,-1.554,-1.5635,-1.571,-1.5225,-1.4845,-1.4558,-1.4278,-1.3991,-1.3652,-1.3483,-1.2966,-1.2192,-1.1068,-1.0895,-1.1149,-1.0202,-1.1499,-1.3483,-1.3913,-1.4412,-1.4817,-1.5228,-1.5726,-1.6542,-1.8256,-1.9301,-2.0167,-2.1231,-2.1832,-2.251,-2.3886,-2.4599,-2.5229,-2.6013,-2.771,-2.9129,-2.9442,-3.147,-3.3026,-3.32,-3.5034,-3.6374,-3.6432,-3.7697,-3.8616,-3.8616,-3.8821,-3.9206,-3.9732,-3.9487,-3.9272,-3.9272,-3.8609,-3.788,-3.7119,-3.639,-3.5644,-3.4899,-3.4659,-3.4448,-3.43,-3.4448,-3.4349,-3.4101,-3.425,-3.4448,-3.4643,-3.4,-3.425,-3.5088,-3.4754,-3.4897,-3.5337,-3.5684,-3.5728,-3.5532,-3.5021,-3.5464,-3.6241,-3.2542,-3.015,-2.7941,-2.5709,-2.3661,-2.1655,-1.9372,-1.8411,-1.7279,-1.5382,-1.5062,-1.5062,-1.5062,-1.4967,-1.4866,-1.5085,-1.483,-1.4423,-1.4019,-1.4078,-1.419,-1.419,-1.5248,-1.5445,-1.4777,-1.4777,-1.4675,-1.4484,-1.4484,-1.4777,-1.5267,-1.5267,-1.5267,-1.5267,-1.5267,-1.5267,-1.5267,-1.5267,-1.5267,-1.5261,-1.5177,-1.475,-1.4302,-1.4219,-1.3892,-1.3476,-1.3392,-1.3307,-1.3052,-1.2705,-1.2619,-1.2619,-1.1666,-1.2272,-1.3307,-1.279,-1.33,-1.4068,-1.4153,-1.465,-1.5553,-1.7261,-1.8006,-1.8656,-1.9678,-2.0372,-2.1125,-2.2435,-2.361,-2.4636,-2.5441,-2.7352,-2.8975,-2.9442,-3.1087,-3.2665,-3.369,-3.4486,-3.549,-3.698,-3.7578,-3.8084,-3.881,-3.8969,-3.9131,-3.9451,-3.9379,-3.9272,-3.9272,-3.9073,-3.8394,-3.7152,-3.6887,-3.6174,-3.4916,-3.4756,-3.4594,-3.4594,-3.4448,-3.4349,-3.4399,-3.425,-3.4529,-3.5148,-3.4626,-3.4675,-3.5195,-3.5362,-3.5333,-3.5182,-3.5711,-3.5861,-3.5756,-3.581,-3.6207,-3.6701,-3.1073,-2.8239,-2.5775,-2.3546,-2.1399,-1.9248,-1.7366,-1.6097,-1.486,-1.295,-1.263,-1.263,-1.263,-1.2733,-1.2945,-1.3053,-1.3092,-1.2761,-1.2104,-1.2562,-1.2926,-1.2926,-1.4184,-1.4573,-1.4004,-1.4004,-1.3709,-1.3119,-1.3511,-1.3806,-1.3806,-1.4688,-1.4688,-1.3902,-1.4688,-1.4885,-1.449,-1.4394,-1.4592,-1.5083,-1.449,-1.4327,-1.4201,-1.4088,-1.3774,-1.3372,-1.3174,-1.3222,-1.3222,-1.2619,-1.2357,-1.2272,-1.202,-1.2454,-1.2881,-1.2198,-1.2625,-1.3307,-1.3222,-1.3639,-1.43,-1.5365,-1.6363,-1.7269,-1.831,-1.9018,-1.9797,-2.1125,-2.2478,-2.3806,-2.4969,-2.6979,-2.8771,-2.9566,-3.094,-3.2272,-3.3325,-3.4006,-3.493,-3.6335,-3.722,-3.792,-3.8525,-3.8929,-3.9202,-3.9379,-3.9379,-3.9379,-3.9379,-3.9379,-3.8795,-3.7582,-3.7268,-3.6539,-3.5346,-3.5,-3.4739,-3.4691,-3.4594,-3.4546,-3.4497,-3.4561,-3.4897,-3.5379,-3.5115,-3.5178,-3.5453,-3.5677,-3.5605,-3.535,-3.58,-3.5932,-3.5817,-3.5958,-3.6392,-3.69,-2.9787,-2.6513,-2.3419,-2.0944,-1.8414,-1.6134,-1.4641,-1.3312,-1.1982,-1.0798,-1.0472,-1.0257,-1.0257,-1.0899,-1.1324,-1.1328,-1.202,-1.1885,-1.0663,-1.1274,-1.1755,-1.1755,-1.2635,-1.3119,-1.3119,-1.3318,-1.2829,-1.175,-1.2732,-1.2732,-1.1853,-1.3806,-1.3806,-1.2042,-1.3908,-1.4298,-1.3414,-1.3216,-1.3709,-1.4688,-1.3613,-1.3559,-1.4068,-1.3896,-1.3709,-1.3336,-1.2887,-1.2796,-1.2796,-1.1505,-1.0895,-1.0895,-1.1693,-1.2203,-1.2283,-1.2037,-1.2289,-1.2619,-1.2363,-1.2534,-1.2875,-1.279,-1.4203,-1.5854,-1.6814,-1.7552,-1.8372,-1.9719,-2.1247,-2.2881,-2.4447,-2.6591,-2.8579,-2.9752,-3.0925,-3.1951,-3.2532,-3.3675,-3.4601,-3.5013,-3.6669,-3.7854,-3.8038,-3.8788,-3.9379,-3.9501,-3.9501,-3.9501,-3.9501,-3.9501,-3.9099,-3.828,-3.7534,-3.6804,-3.6009,-3.5263,-3.4851,-3.4691,-3.4851,-3.4739,-3.4546,-3.5115,-3.5391,-3.5407,-3.552,-3.5671,-3.581,-3.5871,-3.5783,-3.5667,-3.5932,-3.5949,-3.5817,-3.5711,-3.6182,-3.69,-2.869,-2.4124,-2.0181,-1.9456,-1.7153,-1.489,-1.3532,-1.2769,-1.1878,-1.0582,-1.0366,-1.0147,-0.9926,-0.9923,-0.9923,-1.0139,-1.0674,-1.042,-0.8992,-0.9628,-1.0096,-1.0096,-1.0288,-1.0485,-1.0485,-1.1658,-1.1658,-1.0386,-1.0681,-1.0974,-1.1365,-1.1853,-1.2242,-1.2533,-1.2145,-1.2344,-1.2829,-1.2829,-1.2538,-1.2145,-1.3511,-1.3559,-1.283,-1.3336,-1.335,-1.2909,-1.2549,-1.2375,-1.2209,-1.1866,-1.1774,-1.1693,-1.1952,-1.2037,-1.2037,-1.2043,-1.2037,-1.2032,-1.1677,-1.158,-1.1585,-1.1235,-1.1574,-1.2668,-1.4768,-1.5681,-1.6413,-1.7705,-1.9634,-2.1535,-2.2794,-2.5697,-2.8295,-2.9213,-3.0659,-3.1992,-3.2911,-3.3441,-3.4178,-3.5462,-3.6024,-3.6819,-3.8183,-3.9087,-3.9573,-3.9501,-3.959,-3.9642,-3.9642,-3.9642,-3.9308,-3.8521,-3.7786,-3.7035,-3.6171,-3.5407,-3.4994,-3.4851,-3.4804,-3.4756,-3.4835,-3.5115,-3.5345,-3.556,-3.6011,-3.6037,-3.5827,-3.6335,-3.6191,-3.5827,-3.6284,-3.6259,-3.5975,-3.6088,-3.6474,-3.7017,-2.6261,-2.2576,-1.9455,-1.7466,-1.5377,-1.361,-1.2284,-1.1717,-1.0785,-0.9027,-0.9368,-0.9592,-0.8813,-0.9044,-0.9208,-0.9162,-0.9417,-0.9179,-0.8254,-0.8627,-0.9019,-0.9608,-0.9608,-0.9608,-0.9608,-1.0386,-1.0293,-0.9019,-0.9509,-0.9805,-0.9706,-1.0681,-1.0974,-1.0485,-1.0974,-1.117,-1.1268,-1.1268,-1.117,-1.1268,-1.1853,-1.1884,-1.1647,-1.1884,-1.1673,-1.1341,-1.1527,-1.1677,-1.1871,-1.1871,-1.1785,-1.1699,-1.1699,-1.1699,-1.1607,-1.1424,-1.1338,-1.1251,-1.0814,-1.0636,-1.0641,-1.0381,-1.0467,-1.1149,-1.3021,-1.386,-1.4601,-1.5838,-1.7886,-1.9966,-2.1312,-2.4496,-2.7354,-2.8661,-3.0513,-3.2145,-3.3071,-3.3575,-3.4246,-3.5169,-3.5679,-3.6622,-3.8354,-3.889,-3.9309,-3.9661,-3.9746,-3.9798,-3.9798,-3.9798,-3.9613,-3.9125,-3.8053,-3.73,-3.6801,-3.5733,-3.5258,-3.5362,-3.5224,-3.5195,-3.5224,-3.5759,-3.6037,-3.6131,-3.6615,-3.6655,-3.6385,-3.6602,-3.652,-3.6276,-3.6557,-3.6409,-3.6148,-3.6557,-3.696,-3.7414,-2.3811,-2.1104,-1.8695,-1.5031,-1.326,-1.1986,-1.0594,-0.99,-0.8916,-0.7138,-0.8036,-0.8484,-0.7593,-0.8134,-0.8567,-0.8506,-0.8351,-0.812,-0.8055,-0.8038,-0.8432,-0.9316,-0.9316,-0.9316,-0.9316,-0.9316,-0.8924,-0.8038,-0.8924,-0.8821,-0.8038,-0.9801,-0.9805,-0.8333,-0.9899,-1.0194,-0.9509,-0.9509,-0.9899,-1.0485,-0.9998,-0.9998,-1.0445,-1.0274,-1.0014,-0.9841,-1.019,-1.0835,-1.1348,-1.1348,-1.1262,-1.1176,-1.1176,-1.1089,-1.0997,-1.0641,-1.0463,-1.0376,-0.9951,-0.9864,-0.9864,-0.9689,-0.9859,-1.0202,-1.1149,-1.1997,-1.2845,-1.3944,-1.586,-1.7888,-1.9388,-2.2407,-2.5375,-2.7548,-2.9729,-3.1637,-3.2971,-3.3866,-3.4497,-3.4787,-3.5658,-3.6785,-3.8104,-3.8506,-3.9009,-3.9716,-3.9868,-4.0003,-3.9986,-3.9952,-3.9884,-3.9833,-3.8354,-3.7533,-3.7533,-3.6075,-3.5532,-3.5907,-3.582,-3.5749,-3.5776,-3.658,-3.6799,-3.6632,-3.7126,-3.722,-3.6987,-3.6806,-3.6766,-3.6788,-3.6821,-3.662,-3.6468,-3.7076,-3.7524,-3.7877,-2.3054,-1.8346,-1.4217,-1.2515,-1.0728,-0.9134,-0.7838,-0.7135,-0.6584,-0.6031,-0.6144,-0.648,-0.7152,-0.7281,-0.7696,-0.8391,-0.7528,-0.7292,-0.7952,-0.8038,-0.8038,-0.8237,-0.8237,-0.8237,-0.8237,-0.8237,-0.8137,-0.8038,-0.8137,-0.8137,-0.8038,-0.8336,-0.8726,-0.9312,-0.8726,-0.8726,-0.9217,-0.9217,-0.8619,-0.7925,-0.9587,-0.9784,-0.9178,-0.9748,-0.9857,-0.9507,-0.9375,-0.9641,-1.012,-1.012,-1.0381,-1.0727,-1.0727,-1.0467,-1.0125,-1.0125,-1.0125,-0.9951,-0.9519,-0.9432,-0.9257,-0.864,-0.846,-0.8548,-0.889,-1.0019,-1.1058,-1.166,-1.3012,-1.451,-1.5871,-1.803,-2.0956,-2.4856,-2.6956,-2.9272,-3.2638,-3.4053,-3.4849,-3.5182,-3.5974,-3.6606,-3.6791,-3.8179,-3.9105,-3.914,-3.9832,-4.0288,-4.0436,-4.0188,-4.0138,-4.0205,-3.8667,-3.7793,-3.7696,-3.6232,-3.5639,-3.589,-3.6274,-3.6399,-3.6298,-3.6821,-3.6895,-3.6632,-3.7261,-3.7354,-3.6987,-3.6987,-3.7048,-3.715,-3.7264,-3.7228,-3.721,-3.7596,-3.7808,-3.7946,-1.9849,-1.5882,-1.2508,-0.9849,-0.8414,-0.7295,-0.6061,-0.5919,-0.5475,-0.4254,-0.492,-0.5697,-0.6144,-0.6712,-0.7463,-0.8391,-0.7407,-0.7068,-0.7949,-0.8038,-0.8038,-0.8038,-0.8038,-0.8038,-0.8038,-0.8038,-0.8038,-0.8038,-0.8038,-0.8038,-0.8038,-0.8038,-0.8137,-0.8432,-0.7939,-0.7939,-0.8127,-0.8127,-0.7733,-0.7235,-0.8216,-0.8216,-0.771,-0.8049,-0.7896,-0.7643,-0.7854,-0.8777,-0.9676,-0.9589,-0.9589,-0.9763,-1.012,-1.012,-0.9951,-0.9694,-0.9519,-0.9257,-0.8819,-0.8644,-0.8468,-0.8116,-0.8028,-0.8028,-0.8113,-0.8544,-0.9148,-1.0188,-1.1337,-1.2379,-1.3111,-1.5242,-1.77,-1.995,-2.0688,-2.3176,-2.954,-2.9871,-3.1047,-3.5351,-3.6117,-3.6446,-3.678,-3.7534,-3.8142,-3.8503,-3.9347,-3.9822,-3.987,-4.0148,-4.015,-3.979,-3.8639,-3.778,-3.7246,-3.6134,-3.5756,-3.6139,-3.6539,-3.6781,-3.6821,-3.7243,-3.7319,-3.7185,-3.7466,-3.7503,-3.7317,-3.722,-3.7126,-3.7129,-3.7487,-3.7809,-3.8083,-3.8016,-3.8135,-3.8382]},{"header":{"parameterUnit":"m.s-1","parameterCategory":1,"la1":30.6,"la2":28.766,"lo1":-90.7593,"lo2":-88.6598,"dy":0.0162,"dx":0.0183,"nx":116,"ny":114,"refTime":"2024-05-10T12:00:00:Z","depth":0,"parameterNumber":3,"parameterNumberName":"V-component_of_WINDS"},"data":[0.0,0.0,0.0,0.0,0.0,0.0,0.0,0.0,0.0,0.0,0.0,0.0,0.0,0.0,0.0,0.0,0.0,0.0,0.0,0.0,0.0,0.0,0.0,0.0,0.0,0.0,0.0,0.0,0.0,0.0,0.0,0.0,0.0,0.0,0.0,0.0,0.0,0.0,0.0,0.0,0.0,0.0,0.0,0.0,0.0,0.0,0.0,0.0,0.0,0.0,0.0,0.0,0.0,0.0,0.0,0.0,0.0,0.0,0.0,0.0,0.0,0.0,0.0,0.0,0.0,0.0,0.0,0.0,0.0,0.0,0.0,0.0,0.0,0.0,0.0,0.0,0.0,0.0,0.0,0.0,0.0,0.0,0.0,0.0,0.0,0.0,0.0,0.0,0.0,0.0,0.0,0.0,0.0,0.0,0.0,0.0,0.0,0.0,0.0,0.0,0.0,0.0,0.0,0.0,0.0,0.0,0.0,0.0,0.0,0.0,0.0,0.0,0.0,0.0,0.0,0.0,0.0,0.0,0.0,0.0,0.0,0.0,0.0,0.0,0.0,0.0,0.0,0.0,0.0,0.0,0.0,0.0,0.0,0.0,0.0,0.0,0.0,0.0,0.0,0.0,0.0,0.0,0.0,0.0,0.0,0.0,0.0,0.0,0.0,0.0,0.0,0.0,0.0,0.0,0.0,0.0,0.0,0.0,0.0,0.0,0.0,0.0,0.0,0.0,0.0,0.0,0.0,0.0,0.0,0.0,0.0,0.0,0.0,0.0,0.0,0.0,0.0,0.0,0.0,0.0,0.0,0.0,0.0,0.0,0.0,0.0,0.0,0.0,0.0,0.0,0.0,0.0,0.0,0.0,0.0,0.0,0.0,0.0,0.0,0.0,0.0,0.0,0.0,0.0,0.0,0.0,0.0,0.0,0.0,0.0,0.0,0.0,0.0,0.0,0.0,0.0,0.0,0.0,0.0,0.0,0.0,0.0,0.0,0.0,0.0,0.0,0.0,0.0,0.0,0.0,0.0,0.0,0.0,0.0,0.0,0.0,0.0,0.0,0.0,0.0,0.0,0.0,0.0,0.0,0.0,0.0,0.0,0.0,0.0,0.0,0.0,0.0,0.0,0.0,0.0,0.0,0.0,0.0,0.0,0.0,0.0,0.0,0.0,0.0,0.0,0.0,0.0,0.0,0.0,0.0,0.0,0.0,0.0,0.0,0.0,0.0,0.0,0.0,0.0,0.0,0.0,0.0,0.0,0.0,0.0,0.0,0.0,0.0,0.0,0.0,0.0,0.0,0.0,0.0,0.0,0.0,0.0,0.0,0.0,0.0,0.0,0.0,0.0,0.0,0.0,0.0,0.0,0.0,0.0,0.0,0.0,0.0,0.0,0.0,0.0,0.0,0.0,0.0,0.0,0.0,0.0,0.0,0.0,0.0,0.0,0.0,0.0,0.0,0.0,0.0,0.0,0.0,0.0,0.0,0.0,0.0,0.0,0.0,0.0,0.0,0.0,0.0,0.0,0.0,0.0,0.0,0.0,0.0,0.0,0.0,0.0,0.0,0.0,0.0,0.0,0.0,0.0,0.0,0.0,0.0,0.0,0.0,0.0,0.0,0.0,0.0,0.0,0.0,0.0,0.0,0.0,0.0,0.0,0.0,0.0,0.0,0.0,0.0,0.0,0.0,0.0,0.0,0.0,0.0,0.0,0.0,0.0,0.0,0.0,0.0,0.0,0.0,0.0,0.0,0.0,0.0,0.0,0.0,0.0,0.0,0.0,0.0,0.0,0.0,0.0,0.0,0.0,0.0,0.0,0.0,0.0,0.0,0.0,0.0,0.0,0.0,0.0,0.0,0.0,0.0,0.0,0.0,0.0,0.0,0.0,0.0,0.0,0.0,0.0,0.0,0.0,0.0,0.0,0.0,0.0,0.0,0.0,0.0,0.0,0.0,0.0,0.0,0.0,0.0,0.0,0.0,0.0,0.0,0.0,0.0,0.0,0.0,0.0,0.0,0.0,0.0,0.0,0.0,0.0,0.0,0.0,0.0,0.0,0.0,0.0,0.0,0.0,0.0,0.0,0.0,0.0,0.0,0.0,0.0,0.0,0.0,0.0,0.0,0.0,0.0,0.0,0.0,0.0,0.0,0.0,0.0,0.0,0.0,0.0,0.0,0.0,0.0,0.0,0.0,0.0,0.0,0.0,0.0,0.0,0.0,0.0,0.0,0.0,0.0,0.0,0.0,0.0,0.0,0.0,0.0,0.0,0.0,0.0,0.0,0.0,0.0,0.0,0.0,0.0,0.0,0.0,0.0,0.0,0.0,0.0,0.0,0.0,0.0,0.0,0.0,0.0,0.0,0.0,0.0,0.0,0.0,0.0,0.0,0.0,0.0,0.0,0.0,0.0,0.0,0.0,0.0,0.0,0.0,0.0,0.0,0.0,0.0,0.0,0.0,0.0,0.0,0.0,0.0,0.0,0.0,0.0,0.0,0.0,0.0,0.0,0.0,0.0,0.0,0.0,0.0,0.0,0.0,0.0,0.0,0.0,0.0,0.0,0.0,0.0,0.0,0.0,0.0,0.0,0.0,0.0,0.0,0.0,0.0,0.0,0.0,0.0,0.0,0.0,0.0,0.0,0.0,0.0,0.0,0.0,0.0,0.0,0.0,0.0,0.0,0.0,0.0,0.0,0.0,0.0,0.0,0.0,0.0,0.0,0.0,0.0,0.0,0.0,0.0,0.0,0.0,0.0,0.0,0.0,0.0,0.0,0.0,0.0,0.0,0.0,0.0,0.0,0.0,0.0,0.0,0.0,0.0,0.0,0.0,0.0,0.0,0.0,0.0,0.0,0.0,0.0,0.0,0.0,0.0,0.0,0.0,0.0,0.0,0.0,0.0,0.0,0.0,0.0,0.0,0.0,0.0,0.0,0.0,0.0,0.0,0.0,0.0,0.0,0.0,0.0,0.0,0.0,0.0,0.0,0.0,0.0,0.0,0.0,0.0,0.0,0.0,0.0,0.0,0.0,0.0,0.0,0.0,0.0,0.0,0.0,0.0,0.0,0.0,0.0,0.0,0.0,0.0,0.0,0.0,0.0,0.0,0.0,0.0,0.0,0.0,0.0,0.0,0.0,0.0,0.0,0.0,0.0,0.0,0.0,0.0,0.0,0.0,0.0,0.0,0.0,0.0,0.0,0.0,0.0,0.0,0.0,0.0,0.0,0.0,0.0,0.0,0.0,0.0,0.0,0.0,0.0,0.0,0.0,0.0,0.0,0.0,0.0,0.0,0.0,0.0,0.0,0.0,0.0,0.0,0.0,0.0,0.0,0.0,0.0,0.0,0.0,0.0,0.0,0.0,0.0,0.0,0.0,0.0,0.0,0.0,0.0,0.0,0.0,0.0,0.0,0.0,0.0,0.0,0.0,0.0,0.0,0.0,0.0,0.0,0.0,0.0,0.0,0.0,0.0,0.0,0.0,0.0,0.0,0.0,0.0,0.0,0.0,0.0,0.0,0.0,0.0,0.0,0.0,0.0,0.0,0.0,0.0,0.0,0.0,0.0,0.0,0.0,0.0,0.0,0.0,0.0,0.0,0.0,0.0,0.0,0.0,0.0,0.0,0.0,0.0,0.0,0.0,0.0,0.0,0.0,0.0,0.0,0.0,0.0,0.0,0.0,0.0,0.0,0.0,0.0,0.0,0.0,0.0,0.0,0.0,0.0,0.0,0.0,0.0,0.0,0.0,0.0,0.0,0.0,0.0,0.0,0.0,0.0,0.0,0.0,0.0,0.0,0.0,0.0,0.0,0.0,0.0,0.0,0.0,0.0,0.0,0.0,0.0,0.0,0.0,0.0,0.0,0.0,0.0,0.0,0.0,0.0,0.0,0.0,0.0,0.0,0.0,0.0,0.0,0.0,0.0,0.0,0.0,0.0,0.0,0.0,0.0,0.0,0.0,0.0,0.0,0.0,0.0,0.0,0.0,0.0,0.0,0.0,0.0,0.0,0.0,0.0,0.0,0.0,0.0,0.0,0.0,0.0,0.0,0.0,0.0,0.0,0.0,0.0,0.0,0.0,0.0,0.0,0.0,0.0,0.0,0.0,0.0,0.0,0.0,0.0,0.0,0.0,0.0,0.0,0.0,0.0,0.0,0.0,0.0,0.0,0.0,0.0,0.0,0.0,0.0,0.0,0.0,0.0,0.0,0.0,0.0,0.0,0.0,0.0,0.0,0.0,0.0,0.0,0.0,0.0,0.0,0.0,0.0,0.0,0.0,0.0,0.0,0.0,0.0,0.0,0.0,0.0,0.0,0.0,0.0,0.0,0.0,0.0,0.0,0.0,0.0,0.0,0.0,0.0,0.0,0.0,0.0,0.0,0.0,0.0,0.0,0.0,0.0,0.0,0.0,0.0,0.0,0.0,0.0,0.0,0.0,0.0,0.0,0.0,0.0,0.0,0.0,0.0,0.0,0.0,0.0,0.0,0.0,0.0,0.0,0.0,0.0,0.0,0.0,0.0,0.0,0.0,0.0,0.0,0.0,0.0,0.0,0.0,0.0,0.0,0.0,0.0,0.0,0.0,0.0,0.0,0.0,0.0,0.0,0.0,0.0,0.0,0.0,0.0,0.0,0.0,0.0,0.0,0.0,0.0,0.0,0.0,0.0,0.0,0.0,0.0,0.0,0.0,0.0,0.0,0.0,0.0,0.0,0.0,0.0,0.0,0.0,0.0,0.0,0.0,0.0,0.0,0.0,0.0,0.0,0.0,0.0,0.0,0.0,0.0,0.0,0.0,0.0,0.0,0.0,0.0,0.0,0.0,0.0,0.0,0.0,0.0,0.0,0.0,0.0,0.0,0.0,0.0,0.0,0.0,0.0,0.0,0.0,0.0,0.0,0.0,0.0,0.0,0.0,0.0,0.0,0.0,0.0,0.0,0.0,0.0,0.0,0.0,0.0,0.0,0.0,0.0,0.0,0.0,0.0,0.0,0.0,0.0,0.0,0.0,0.0,0.0,0.0,0.0,0.0,0.0,0.0,0.0,0.0,0.0,0.0,0.0,0.0,0.0,0.0,0.0,0.0,0.0,0.0,0.0,0.0,0.0,0.0,0.0,0.0,0.0,0.0,0.0,0.0,0.0,0.0,0.0,0.0,0.0,0.0,0.0,0.0,0.0,0.0,0.0,0.0,0.0,0.0,0.0,0.0,0.0,0.0,0.0,0.0,0.0,0.0,0.0,0.0,0.0,0.0,0.0,0.0,0.0,0.0,0.0,0.0,0.0,0.0,0.0,0.0,0.0,0.0,0.0,0.0,0.0,0.0,0.0,0.0,0.0,0.0,0.0,0.0,0.0,0.0,0.0,0.0,0.0,0.0,0.0,0.0,0.0,0.0,0.0,0.0,0.0,0.0,0.0,0.0,0.0,0.0,0.0,0.0,0.0,0.0,0.0,0.0,0.0,0.0,0.0,0.0,0.0,0.0,0.0,0.0,0.0,0.0,0.0,0.0,0.0,0.0,0.0,0.0,0.0,0.0,0.0,0.0,0.0,0.0,0.0,0.0,0.0,0.0,0.0,0.0,0.0,0.0,0.0,0.0,0.0,0.0,0.0,0.0,0.0,0.0,0.0,0.0,0.0,0.0,0.0,0.0,0.0,0.0,0.0,0.0,0.0,0.0,0.0,0.0,0.0,0.0,0.0,0.0,0.0,0.0,0.0,0.0,0.0,0.0,0.0,0.0,0.0,0.0,0.0,0.0,0.0,0.0,0.0,0.0,0.0,0.0,0.0,0.0,0.0,0.0,0.0,0.0,0.0,0.0,0.0,0.0,0.0,0.0,0.0,0.0,0.0,0.0,0.0,0.0,0.0,0.0,0.0,0.0,0.0,0.0,0.0,0.0,0.0,0.0,0.0,0.0,0.0,0.0,0.0,0.0,0.0,0.0,0.0,0.0,0.0,0.0,0.0,0.0,0.0,0.0,0.0,0.0,0.0,0.0,0.0,0.0,0.0,0.0,0.0,0.0,0.0,0.0,0.0,0.0,0.0,0.0,0.0,0.0,0.0,0.0,0.0,0.0,0.0,0.0,0.0,0.0,0.0,0.0,0.0,0.0,0.0,-2.1445,-2.1909,0.0,0.0,0.0,0.0,0.0,0.0,0.0,0.0,0.0,0.0,0.0,0.0,0.0,0.0,0.0,0.0,0.0,0.0,0.0,0.0,0.0,0.0,0.0,-0.652,-0.6694,-0.7397,-0.7658,-0.8006,-0.8352,0.0,0.0,0.0,0.0,0.0,-0.9405,-1.0448,-1.1408,-1.2369,-1.2369,-1.2289,-1.2203,-1.246,-1.3137,-1.4132,0.0,0.0,0.0,0.0,0.0,0.0,0.0,0.0,0.0,0.0,0.0,0.0,0.0,0.0,0.0,0.0,0.0,0.0,0.0,0.0,0.0,0.0,0.0,0.0,0.0,0.0,0.0,0.0,0.0,0.0,0.0,0.0,0.0,0.0,0.0,0.0,0.0,0.0,0.0,0.0,0.0,0.0,0.0,0.0,0.0,0.0,0.0,0.0,0.0,0.0,0.0,0.0,0.0,0.0,0.0,0.0,0.0,0.0,0.0,0.0,0.0,0.0,0.0,0.0,0.0,0.0,0.0,0.0,0.0,0.0,-2.0339,-2.1257,0.0,0.0,0.0,0.0,0.0,0.0,0.0,0.0,0.0,0.0,0.0,0.0,0.0,0.0,0.0,0.0,0.0,0.0,0.0,0.0,0.0,-0.6432,-0.6163,-0.6074,-0.6163,-0.6605,-0.7132,-0.7309,-0.6956,-0.7221,-0.7044,-0.6074,-0.6956,-0.7921,-0.8882,-0.9836,-1.0794,-1.1774,-1.1866,-1.1957,-1.1957,-1.1957,-1.254,-1.362,-1.5538,0.0,0.0,0.0,0.0,0.0,0.0,0.0,0.0,0.0,0.0,0.0,0.0,0.0,0.0,0.0,0.0,0.0,0.0,0.0,0.0,0.0,0.0,0.0,0.0,0.0,0.0,0.0,0.0,0.0,0.0,0.0,0.0,0.0,0.0,0.0,0.0,0.0,0.0,0.0,0.0,0.0,0.0,0.0,0.0,0.0,0.0,0.0,0.0,0.0,0.0,0.0,0.0,0.0,0.0,0.0,0.0,0.0,0.0,0.0,0.0,0.0,0.0,0.0,-1.7044,-1.6581,-1.5832,-1.6676,-1.7777,-1.9047,-1.8872,-2.0249,-2.2441,-2.1998,0.0,0.0,0.0,0.0,0.0,0.0,0.0,0.0,0.0,0.0,0.0,0.0,0.0,0.0,0.0,0.0,0.0,0.0,0.0,-0.5179,-0.4917,-0.4741,-0.4565,-0.4654,-0.546,-0.5638,-0.4743,-0.5547,-0.5549,-0.4654,-0.5722,-0.6786,-0.7661,-0.8794,-0.9836,-1.0788,-1.1424,-1.1699,-1.1699,-1.1699,-1.2118,-1.2869,-1.3789,-1.5206,-1.7033,0.0,0.0,0.0,0.0,0.0,0.0,0.0,0.0,0.0,0.0,0.0,0.0,0.0,0.0,0.0,0.0,0.0,0.0,0.0,0.0,0.0,0.0,0.0,0.0,0.0,0.0,0.0,0.0,0.0,0.0,0.0,0.0,0.0,0.0,0.0,0.0,0.0,0.0,0.0,0.0,0.0,-1.425,-1.4088,0.0,0.0,0.0,0.0,0.0,0.0,0.0,0.0,0.0,0.0,0.0,0.0,0.0,-1.5825,-1.6015,-1.6015,-1.6015,-1.6015,-1.6015,-1.592,-1.5832,-1.5927,-1.703,-1.888,-1.8956,0.0,-2.2706,-2.2441,0.0,0.0,0.0,0.0,0.0,0.0,0.0,0.0,0.0,0.0,0.0,0.0,0.0,0.0,0.0,0.0,0.0,0.0,0.0,0.0,0.0,-0.4474,-0.4478,-0.5015,-0.5466,-0.5285,-0.4389,-0.4656,-0.4748,-0.43,-0.4832,-0.5811,-0.7224,-0.8009,-0.9144,-1.0626,-1.1165,-1.144,-1.144,-1.144,-1.2198,-1.3457,-1.4041,-1.5123,-1.6542,-1.7764,0.0,0.0,0.0,0.0,0.0,0.0,0.0,0.0,0.0,0.0,0.0,0.0,0.0,0.0,0.0,0.0,0.0,0.0,0.0,0.0,0.0,0.0,0.0,0.0,0.0,0.0,0.0,0.0,0.0,0.0,0.0,0.0,0.0,0.0,0.0,0.0,0.0,0.0,0.0,-1.3307,-1.3193,-1.2724,-1.2307,-1.2405,0.0,0.0,0.0,0.0,0.0,0.0,0.0,0.0,0.0,-1.5825,-1.5832,-1.5832,-1.5832,-1.5832,-1.5832,-1.5832,-1.5832,-1.5832,-1.5832,-1.5832,-1.6936,-1.8788,-1.8872,-2.0249,-2.2451,-2.2441,-2.253,-2.2803,0.0,0.0,0.0,0.0,-2.2969,-2.3135,0.0,0.0,0.0,0.0,0.0,0.0,0.0,0.0,0.0,0.0,0.0,0.0,-0.4202,-0.4295,-0.4567,-0.5285,-0.5552,-0.5285,-0.4389,-0.4208,-0.4119,-0.3941,-0.3941,-0.4652,-0.6251,-0.7041,-0.8356,-1.0197,-1.0467,-1.0824,-1.1084,-1.1084,-1.2106,-1.388,-1.4294,-1.5206,-1.655,-1.8416,-1.9073,-1.8922,0.0,0.0,0.0,0.0,0.0,0.0,0.0,0.0,0.0,0.0,0.0,0.0,0.0,0.0,0.0,0.0,0.0,0.0,0.0,0.0,0.0,0.0,0.0,0.0,0.0,0.0,0.0,0.0,0.0,0.0,0.0,0.0,0.0,0.0,0.0,0.0,0.0,-1.2398,-1.2215,-1.1725,-1.1436,-1.16,0.0,0.0,0.0,0.0,0.0,0.0,-1.3978,-1.5132,-1.5832,-1.5832,-1.5832,-1.5832,-1.5832,-1.5832,-1.5832,-1.5832,-1.5832,-1.5832,-1.5832,-1.5832,-1.6756,-1.8427,-1.8696,-1.9977,-2.1722,-2.2176,-2.253,-2.2803,-2.2618,-2.2618,-2.2882,-2.2882,-2.2969,-2.3135,0.0,0.0,0.0,0.0,0.0,0.0,0.0,0.0,0.0,0.0,0.0,-0.313,-0.3045,-0.3762,-0.43,-0.4389,-0.5015,-0.5104,-0.4389,-0.4028,-0.3671,-0.2956,-0.2956,-0.3314,-0.4026,-0.562,-0.7298,-0.8978,-0.8978,-0.9589,-1.0636,-1.0636,-1.1671,-1.3476,-1.388,-1.5296,-1.7392,-1.8523,-1.9073,-1.9381,-2.0382,0.0,0.0,0.0,0.0,0.0,0.0,0.0,0.0,0.0,0.0,0.0,0.0,0.0,0.0,0.0,0.0,0.0,0.0,0.0,0.0,0.0,0.0,0.0,0.0,0.0,0.0,0.0,0.0,0.0,0.0,0.0,0.0,0.0,0.0,0.0,0.0,0.0,0.0,-1.1866,-1.091,0.0,0.0,0.0,0.0,-1.1322,-1.3193,-1.4274,-1.4274,-1.5248,-1.5832,-1.5832,-1.5832,-1.5832,-1.5832,-1.5832,-1.5832,-1.5832,-1.5832,-1.5832,-1.5832,-1.5832,-1.6393,-1.7419,-1.8596,-1.9679,-2.0782,-2.1722,-2.2362,-2.2803,-2.2803,-2.2882,-2.3047,-2.3047,-2.3057,-2.3135,0.0,0.0,0.0,0.0,0.0,-0.4736,-0.3931,-0.2411,-0.143,-0.1971,-0.1521,-0.152,-0.2508,-0.3492,-0.4206,-0.4743,-0.501,-0.4743,-0.3939,-0.3132,-0.2597,-0.2418,-0.179,-0.2325,-0.4113,-0.562,-0.6854,-0.7742,-0.8536,-0.9065,-0.9501,-1.0284,-1.1408,-1.2942,-1.3704,-1.497,-1.6656,-1.7942,-1.8825,-1.9381,-2.0079,-2.1078,0.0,0.0,0.0,0.0,0.0,0.0,0.0,0.0,0.0,0.0,0.0,0.0,0.0,0.0,0.0,0.0,0.0,0.0,0.0,0.0,0.0,0.0,0.0,0.0,0.0,0.0,0.0,0.0,0.0,0.0,0.0,0.0,0.0,0.0,0.0,0.0,0.0,-1.0154,-0.9767,0.0,-1.0927,-1.0396,-1.0427,-1.1165,-1.1853,-1.2339,-1.2339,-1.3896,-1.4478,-1.3794,-1.5051,-1.5445,-1.4873,-1.5445,-1.5832,-1.5832,-1.5832,-1.5832,-1.5832,-1.5832,-1.6393,-1.7326,-1.7777,-1.8872,-2.043,-2.0799,-2.1713,-2.2803,-2.2803,-2.2882,-2.3105,-2.2832,-2.2734,-2.2695,0.0,0.0,0.0,-0.509,-0.4289,-0.3396,-0.2324,-0.0626,0.0179,-0.0806,-0.0268,-0.0536,-0.2326,-0.2952,-0.3487,-0.4022,-0.3933,-0.3667,-0.3129,-0.1787,-0.1163,-0.1611,-0.1253,-0.1968,-0.3846,-0.509,-0.5977,-0.6511,-0.757,-0.8277,-0.8719,-0.968,-1.0977,-1.2425,-1.319,-1.4378,-1.5824,-1.7367,-1.8487,-1.9362,-2.0469,-2.1405,-2.2025,0.0,0.0,0.0,0.0,0.0,0.0,0.0,0.0,0.0,0.0,0.0,0.0,0.0,0.0,0.0,0.0,0.0,0.0,0.0,0.0,0.0,0.0,0.0,0.0,0.0,0.0,0.0,0.0,0.0,0.0,0.0,0.0,0.0,0.0,-0.9522,-0.9405,-0.9235,-0.9181,-0.9581,-1.056,-1.0015,-0.992,-1.0596,-1.0979,-1.117,-1.117,-1.2829,-1.3414,-1.2727,-1.4082,-1.4573,-1.4298,-1.4968,-1.5445,-1.5832,-1.5832,-1.5832,-1.5832,-1.5832,-1.6204,-1.6857,-1.7022,-1.8064,-1.9602,-1.9834,-2.0853,-2.2294,-2.2447,-2.2582,-2.2685,-2.2402,-2.2305,-2.2266,0.0,-0.5985,-0.5181,-0.465,-0.3041,-0.1342,-0.0179,0.0806,0.1076,0.0089,0.0179,-0.0357,-0.2233,-0.2233,-0.2054,-0.2054,-0.1878,-0.1878,-0.2054,-0.0089,0.0625,-0.0537,-0.1342,-0.2149,-0.3136,-0.3851,-0.4656,-0.5371,-0.5988,-0.6959,-0.8201,-0.8907,-1.0125,-1.1671,-1.2339,-1.3607,-1.522,-1.678,-1.8149,-1.9492,-2.1538,-2.1883,-2.1359,0.0,0.0,0.0,0.0,0.0,0.0,0.0,0.0,0.0,0.0,0.0,0.0,0.0,0.0,0.0,0.0,0.0,0.0,0.0,0.0,0.0,0.0,0.0,0.0,0.0,0.0,0.0,0.0,0.0,0.0,0.0,0.0,0.0,-0.8886,-0.882,-0.8954,-0.9311,-0.9356,-0.9425,-0.9612,-0.9628,-0.9628,-0.9628,-1.0596,-1.1175,-1.1175,-1.2145,-1.263,-1.263,-1.2732,-1.3221,-1.4196,-1.4292,-1.4777,-1.5737,-1.5737,-1.5832,-1.5832,-1.5818,-1.5812,-1.5798,-1.6494,-1.7357,-1.824,-1.8849,-1.9978,-2.1201,-2.1636,-2.1824,-2.1885,-2.1865,-2.1855,-2.1846,-0.5714,-0.5181,-0.438,-0.2597,-0.1882,-0.1166,-0.0179,0.0808,0.0807,-0.0806,-0.0179,-0.0268,-0.2057,-0.2057,-0.1789,-0.1609,-0.1521,-0.1252,-0.0625,0.0625,0.1519,0.1879,0.0,-0.1165,-0.1345,-0.2598,-0.3583,-0.4123,-0.483,-0.5716,-0.6959,-0.8021,-0.924,-1.0707,-1.1918,-1.3353,-1.5184,-1.7074,-1.8461,-1.9599,-2.0702,-2.1415,-2.1883,0.0,0.0,0.0,0.0,0.0,0.0,0.0,0.0,0.0,0.0,0.0,0.0,0.0,0.0,0.0,0.0,0.0,0.0,0.0,0.0,0.0,0.0,0.0,0.0,0.0,0.0,0.0,0.0,0.0,0.0,0.0,-0.8732,-0.8886,-0.8796,-0.882,-0.8954,-0.9311,-0.9356,-0.9425,-0.9612,-0.9628,-0.9628,-0.9628,-0.9916,-1.0015,-1.0015,-1.1077,-1.1658,-1.1658,-1.3022,-1.3613,-1.3119,-1.4669,-1.5159,-1.4682,-1.5445,-1.5832,-1.5818,-1.5611,-1.5518,-1.5498,-1.5561,-1.6045,-1.6994,-1.7787,-1.8786,-1.9833,-2.0931,-2.1547,-2.1846,-2.1533,-2.1211,-2.0928,-0.5001,-0.4111,-0.3041,-0.1613,-0.1077,-0.0359,0.0987,0.1704,0.1343,-0.0536,0.0536,0.0625,-0.1788,-0.1164,-0.0448,-0.0269,0.0179,0.0626,0.1161,0.2144,0.2857,0.3217,0.1429,0.0089,-0.0717,-0.188,-0.2597,-0.2867,-0.3848,-0.4828,-0.5716,-0.6956,-0.8448,-1.0096,-1.1483,-1.3178,-1.5267,-1.7066,-1.8691,-2.0051,-2.0857,-2.1415,-2.1731,-2.1873,-2.2176,-2.2553,-2.1721,-2.1369,-2.103,-1.9979,0.0,0.0,0.0,0.0,0.0,0.0,0.0,0.0,0.0,0.0,0.0,0.0,0.0,0.0,0.0,0.0,0.0,0.0,0.0,0.0,0.0,0.0,0.0,0.0,-0.8271,-0.8555,-0.8539,-0.875,-0.9039,-0.9319,-0.9421,-0.951,-0.9616,-0.9628,-0.9628,-0.9628,-0.9628,-0.9628,-0.9628,-1.0207,-1.0788,-1.117,-1.2344,-1.3125,-1.3414,-1.4573,-1.5064,-1.4968,-1.554,-1.5765,-1.5645,-1.5471,-1.5331,-1.5197,-1.4903,-1.5549,-1.6726,-1.711,-1.8104,-1.9435,0.0,0.0,0.0,0.0,-2.0791,-2.0566,-0.438,-0.2952,-0.1612,-0.1345,-0.0539,0.0629,0.2419,0.2688,0.2057,0.0267,0.1785,0.1787,-0.1607,-0.0179,0.1166,0.1345,0.2331,0.2956,0.3224,0.4202,0.4463,0.3918,0.2761,0.1427,-0.0268,-0.1074,-0.1522,-0.1611,-0.2953,-0.3937,-0.4556,-0.598,-0.7654,-0.9497,-1.0956,-1.2911,-1.526,-1.6993,-1.8841,-2.0575,-2.17,-2.1807,-2.1282,-2.1359,-2.1655,-2.2025,-2.1252,-2.1247,-2.1566,-2.0175,0.0,0.0,0.0,0.0,0.0,0.0,0.0,0.0,0.0,0.0,0.0,0.0,0.0,0.0,0.0,0.0,0.0,0.0,0.0,0.0,0.0,0.0,0.0,0.0,-0.808,-0.8337,-0.8128,-0.864,-0.9099,-0.9268,-0.9429,-0.9529,-0.9529,-0.9529,-0.9529,-0.9628,-0.9628,-0.9628,-0.9628,-0.9628,0.0,0.0,0.0,-1.2247,-1.41,-1.4394,-1.4873,-1.5635,-1.5737,-1.5678,-1.5398,-1.5364,-1.519,-1.4897,-1.4683,-1.5476,-1.6875,-1.6818,-1.7925,-1.9673,-2.0358,-2.0591,-2.0566,-2.0566,-2.0566,-2.0566,-0.2326,-0.1881,-0.1256,-0.0449,-0.009,0.0359,0.1524,0.1704,0.1254,0.0179,0.1252,0.1252,-0.1073,0.0179,0.1076,0.1166,0.224,0.358,0.5095,0.5536,0.5711,0.562,0.3748,0.2591,0.2234,0.0895,0.0,-0.0358,-0.1254,-0.2593,-0.437,-0.5265,-0.6688,-0.8544,-1.0356,-1.1963,-1.362,-1.6758,-1.8876,-2.0304,-2.1907,-2.2327,-2.1949,-2.2111,-2.2252,-2.2252,-2.1425,-2.1328,-2.1334,-2.0428,-1.9459,-1.8496,-1.8374,-1.7417,0.0,0.0,0.0,0.0,0.0,0.0,0.0,0.0,0.0,0.0,0.0,0.0,0.0,0.0,0.0,0.0,0.0,0.0,0.0,-0.6251,-0.7272,-0.7879,-0.7085,-0.7974,-0.8794,-0.8856,-0.911,-0.9236,-0.9236,-0.9236,-0.9331,-0.9628,-0.9628,-0.9628,-0.9628,-0.9628,-1.0113,-1.117,-1.195,-1.2635,-1.3022,-1.4669,-1.5159,-1.4586,-1.5445,0.0,-1.5391,-1.5157,-1.4883,-1.4589,-1.5043,-1.5405,-1.5808,-1.7212,-1.8567,-1.9872,-2.0194,-2.0488,-2.0566,-2.0566,-2.0566,-2.0566,-0.0897,-0.0808,-0.0539,-0.009,0.0359,0.0987,0.1973,0.2509,0.2505,0.1695,0.2412,0.2415,0.0714,0.152,0.2326,0.2772,0.3929,0.5442,0.7217,0.7132,0.6868,0.6422,0.5531,0.4554,0.3578,0.2506,0.1612,0.0896,-0.0179,-0.1433,-0.2771,-0.4287,-0.5885,-0.7555,-0.9831,-1.1798,-1.3626,-1.675,-1.9224,-2.1156,-2.2574,-2.3287,-2.3338,-2.2894,-2.2767,-2.2777,-2.2402,-2.2101,-2.1756,-2.0629,-1.954,-1.8559,-1.7713,-1.666,-1.5681,0.0,0.0,0.0,0.0,0.0,0.0,0.0,0.0,0.0,0.0,0.0,0.0,0.0,0.0,-0.8189,-0.8197,0.0,-0.7146,-0.6071,-0.66,-0.6848,-0.5779,-0.6807,-0.7946,-0.8715,-0.8928,-0.9031,-0.9031,-0.9031,-0.913,-0.9331,-0.943,-0.943,-0.9628,-0.9628,-1.0113,-1.117,-1.1658,-1.2145,-1.2727,-1.4286,-1.4777,-1.4298,-1.535,-1.5605,-1.5177,-1.503,-1.4723,-1.4295,-1.4642,-1.5228,-1.6214,-1.7917,-1.9134,-1.9942,-2.0029,-2.0333,-2.0566,-2.0566,-2.0566,-2.0566,0.0,0.0,0.0,0.0,0.0629,0.1524,0.2688,0.3582,0.3846,0.3476,0.3931,0.3846,0.2585,0.3034,0.384,0.4816,0.5791,0.7034,0.8452,0.8113,0.7672,0.7132,0.7051,0.6428,0.4921,0.3935,0.3042,0.2242,0.0628,-0.0448,-0.1075,-0.3662,-0.5523,-0.7011,-0.9976,-1.2378,-1.4379,-1.7379,-1.9898,-2.204,-2.3231,-2.4166,-2.4659,-2.3706,-2.3423,-2.3434,-2.3287,-2.299,-2.2521,-2.0998,-1.9985,-1.903,-1.7417,-1.6231,-1.5357,-1.4789,-1.4048,0.0,0.0,0.0,0.0,0.0,0.0,0.0,0.0,-0.8536,-0.7577,-0.7231,-0.7143,-0.7231,-0.7415,-0.7415,-0.7054,-0.5891,-0.5987,-0.5764,-0.4462,-0.5477,-0.6799,-0.7918,-0.8425,-0.8726,-0.8726,-0.8726,-0.8829,-0.9133,-0.9133,-0.9232,-0.9628,-0.9529,-0.9916,-1.0886,-1.1072,-1.156,-1.2436,-1.3414,-1.41,-1.4298,-1.5159,-1.5338,-1.4963,-1.4963,-1.4643,-1.4088,-1.4496,-1.5553,-1.735,-1.8727,-1.9548,-1.9942,-1.9942,-2.0255,-2.0566,-2.0566,-2.0566,-2.0566,0.0,0.0,0.0,0.0,0.009,0.0808,0.2599,0.2956,0.3314,0.4117,0.4208,0.4113,0.3742,0.4011,0.4636,0.58,0.6239,0.6684,0.7228,0.7676,0.794,0.8021,0.7404,0.6962,0.6786,0.5097,0.4119,0.403,0.1702,0.009,-0.0804,-0.4094,-0.6225,-0.7639,-1.2041,-1.431,-1.5054,-1.9394,-2.1546,-2.2072,-2.3694,-2.4574,-2.479,-2.4646,-2.4383,-2.3902,-2.3254,-2.339,-2.3706,-2.2126,-2.1033,-2.0071,-1.8351,-1.6873,-1.5288,-1.347,-1.2504,-1.1649,-1.0529,-1.0269,-1.0009,-0.9148,-1.0106,-1.0544,0.0,-0.8899,-0.951,-0.7764,-0.7415,-0.7415,-0.7143,-0.7143,-0.6605,-0.4823,-0.528,-0.5298,-0.3507,-0.4257,-0.5127,-0.5214,-0.7126,-0.8432,-0.8432,-0.8432,-0.863,-0.9133,-0.8931,-0.9027,-0.9529,-0.9335,-0.943,-0.9723,-1.069,-1.1268,-1.1365,-1.2339,-1.3318,-1.4298,-1.4394,-1.4678,-1.4963,-1.4963,-1.4643,-1.4173,-1.5718,-1.7432,-1.9054,-1.939,-1.9715,-1.9942,-2.0186,-2.042,-2.0566,-2.0566,-2.0566,-2.0566,0.009,0.0449,0.0628,0.009,0.0449,0.1256,0.2688,0.3405,0.4119,0.5191,0.5193,0.5102,0.5179,0.5528,0.6062,0.6868,0.6953,0.7217,0.7746,0.7672,0.7768,0.8028,0.7848,0.758,0.7139,0.6861,0.5974,0.43,0.339,0.1692,-0.0803,-0.3733,-0.6449,-0.9103,-1.3035,-1.5516,-1.7037,-2.0843,-2.2739,-2.3335,-2.4732,-2.5594,-2.6025,-2.5746,-2.5523,-2.5264,-2.3975,-2.3147,0.0,-2.1435,-2.0146,-1.8806,-1.7131,-1.586,-1.4624,-1.3162,-1.1821,-1.0773,-1.0091,-0.9923,-0.9836,-0.9405,-0.9497,-0.9497,-0.8973,-0.8627,-0.8368,-0.8109,-0.7672,-0.7231,-0.7139,-0.7139,-0.6517,-0.4645,-0.4634,-0.4342,-0.2429,-0.3168,-0.3826,-0.3857,-0.5289,-0.6528,-0.7132,-0.7232,-0.7633,-0.8634,-0.863,-0.873,-0.9126,-0.913,-0.9236,-0.9331,-0.9916,-1.0596,-1.117,-1.2242,-1.3221,-1.4292,-1.471,-1.4989,-1.4957,-1.4783,-1.4729,-1.4908,-1.6124,-1.7432,-1.8567,-1.9143,-1.9627,-1.9942,-2.002,-2.0255,-2.0566,-2.0566,-2.0566,-2.0644,0.0539,0.0718,0.0808,0.009,0.0539,0.1345,0.2331,0.3314,0.4297,0.5458,0.5641,0.5819,0.6257,0.6782,0.7132,0.7309,0.7401,0.7485,0.7837,0.7584,0.7676,0.8201,0.846,0.8456,0.8189,0.886,0.7888,0.509,0.497,0.2648,-0.1769,-0.4487,-0.7916,-1.1755,-1.5591,-1.8177,-2.0049,-2.3232,-2.4903,-2.5561,-2.6158,-2.6722,-2.7206,-2.6526,-2.6208,-2.6,-2.4636,-2.3441,-2.2296,-2.0974,-1.9429,-1.7691,-1.5851,-1.4389,-1.3077,-1.1866,-1.0514,-0.93,-0.9139,-0.9139,-0.9139,-0.9139,-0.8798,-0.8627,-0.9056,-0.8444,-0.7925,-0.8105,-0.7753,-0.7401,-0.7139,-0.7139,-0.6517,-0.4645,-0.4344,-0.3665,-0.1756,-0.218,-0.2705,-0.272,-0.3457,-0.4292,-0.539,-0.6016,-0.6833,-0.7832,-0.8134,-0.8432,-0.8825,-0.9031,-0.9133,-0.9236,-0.943,-1.0015,-1.0788,-1.1755,-1.2796,-1.3796,-1.4546,-1.4917,-1.483,-1.4536,-1.4781,-1.5477,-1.6288,-1.718,-1.8078,-1.8984,-1.9548,-1.9872,-1.9942,-2.0177,-2.0566,-2.0867,-2.0789,-2.0712,0.1345,0.0628,0.0,0.0,0.0,0.0359,0.1346,0.2331,0.3314,0.4208,0.5107,0.5994,0.6691,0.7394,0.7482,0.6868,0.6959,0.7054,0.6881,0.7054,0.7749,0.9061,0.9405,0.9932,1.0895,1.108,0.9761,0.7017,0.6253,0.2347,-0.4329,-0.7403,-1.1239,-1.5913,-2.0805,-2.3266,-2.4038,-2.7157,-2.8608,-2.8706,-2.7937,-2.7758,-2.7731,-2.6764,-2.6057,-2.5523,-2.4933,-2.4636,-2.4181,-2.1456,-1.9412,-1.7685,-1.5168,-1.2796,-1.0572,-0.9056,-0.7826,-0.6969,-0.7143,-0.7228,-0.7228,-0.7228,-0.7841,-0.8281,-0.7404,-0.8532,-0.9314,-0.7489,-0.7841,-0.8193,-0.7228,-0.7139,-0.6517,-0.4645,-0.4291,-0.3605,-0.1752,-0.1574,-0.1587,-0.1523,-0.1651,-0.2161,-0.3234,-0.5176,-0.6534,-0.683,-0.7534,-0.8237,-0.8726,-0.8825,-0.8928,-0.9236,-0.943,-0.9628,-0.9624,-1.069,-1.1651,-1.2393,-1.3409,-1.406,-1.4522,-1.4235,-1.4587,-1.5477,-1.6288,-1.718,-1.8078,-1.9152,-1.9566,-1.9645,-2.0108,-2.0264,-2.042,-2.1385,-2.1242,-2.0566,0.1524,0.1166,0.0718,0.009,0.0,0.009,0.0449,0.1256,0.224,0.3226,0.421,0.0,0.0,0.0,0.0,0.0,0.626,0.6435,0.6349,0.7312,0.8265,0.9387,1.026,1.145,1.3109,1.3761,1.4006,1.378,1.2995,0.7628,-0.2026,-0.5032,-1.2105,-2.2374,-2.5283,-2.7533,-2.9245,-3.0713,-3.1228,-3.0998,-3.0783,-3.0541,-3.0265,-2.9246,-2.8457,-2.7512,0.0,-2.293,-2.1449,-1.8934,-1.6965,-1.5043,-1.2028,-1.0043,-0.8375,-0.58,-0.5703,-0.6422,-0.6068,-0.6071,-0.634,-0.6962,-0.7316,-0.7665,-0.7929,-0.8013,-0.8013,-0.8017,-0.7753,-0.7492,-0.7139,-0.7139,-0.6517,-0.4645,-0.4289,-0.3585,-0.172,-0.1468,-0.1485,-0.1495,-0.154,-0.1767,-0.206,-0.3387,-0.4929,-0.6434,-0.6736,-0.7434,-0.8432,-0.8726,-0.8928,-0.9236,-0.943,-0.9916,-1.069,-1.126,-1.2099,-1.3304,-1.3979,-1.4245,-1.4229,-1.4706,-1.5477,-1.6288,-1.7188,-1.8078,-1.8895,-1.939,-1.9715,-1.9872,-2.0186,-2.0342,-2.0566,-2.0867,-2.1165,-2.1538,0.0,0.1435,0.0718,0.009,0.0,0.0,0.0,0.0,0.0,0.0,0.0,0.0,0.0,0.0,0.0,0.0,0.0,0.5997,0.6169,0.7397,0.8607,0.9981,1.1962,1.3917,1.5789,1.8062,1.917,1.9019,1.8474,1.3206,0.3465,-0.3131,-1.1962,-2.2464,-2.783,-3.1204,-3.294,-3.3673,-3.3773,-3.3421,-3.2815,-3.2275,-3.1632,-3.0141,-2.9053,0.0,-2.4331,-2.1913,-1.9975,-1.7,-1.486,-1.2822,-0.9526,-0.7138,-0.5302,-0.3669,-0.3926,-0.4809,-0.4819,-0.5181,-0.5719,-0.6428,-0.6874,-0.7228,-0.7841,-0.7753,-0.7665,-0.7845,-0.7757,-0.7492,-0.7054,-0.7054,-0.6517,-0.4645,-0.4289,-0.3666,-0.1704,-0.1452,-0.1465,-0.1465,-0.1518,-0.1555,-0.1555,-0.2187,-0.3325,-0.5131,-0.5934,-0.6734,-0.7428,-0.8326,-0.8928,-0.9133,-0.9367,-0.9816,-1.0586,-1.1072,-1.204,-1.3483,-1.405,-1.4269,-1.4173,-1.5082,-1.5816,-1.6288,-1.7513,-1.8318,-1.8895,-1.9399,-1.9627,-1.9766,-2.0177,-2.0333,-2.0479,-2.0867,-2.1538,-2.236,0.0,0.0,0.0,0.0,0.0,0.0,0.0,0.0,0.0,0.0,0.0,0.0,0.0,0.0,0.0,0.0,0.0,0.0,0.6343,0.7305,0.8777,1.0838,1.4309,1.7046,1.8939,2.3506,2.4807,2.2697,2.2532,1.8762,1.1391,-0.1851,-1.1116,-1.7129,-2.8766,-3.4412,-3.5235,-3.6061,-3.6247,-3.5815,-3.41,-3.2898,-3.187,-2.961,-2.8076,-2.6637,-2.3697,-2.1699,-1.9743,-1.5651,-1.2983,-1.0768,-0.7246,-0.3884,-0.1338,-0.25,-0.223,-0.187,-0.3301,-0.4463,-0.527,-0.5628,-0.634,-0.7051,-0.7139,-0.7841,-0.8193,-0.7146,-0.7757,-0.8193,-0.7058,-0.6966,-0.6514,-0.4645,-0.4289,-0.3666,-0.1704,-0.1436,-0.1436,-0.1436,-0.1487,-0.1524,-0.1526,-0.158,-0.2017,-0.3022,-0.5031,-0.6132,-0.6029,-0.772,-0.8814,-0.9118,-0.9243,-0.934,-0.934,-1.0175,-1.1333,-1.2879,-1.369,-1.4088,-1.4173,-1.518,-1.5673,-1.5567,-1.7269,-1.7997,-1.8158,-1.9152,-1.946,-1.9423,-2.0098,-2.0333,-2.0391,-2.1451,-2.236,-2.2947,0.0,0.0,0.0,0.0,0.0,0.0,0.0,0.0,0.0,0.0,0.0,0.0,0.0,0.0,0.0,0.0,0.0,0.0,0.5819,0.7738,0.9548,1.1075,1.5316,1.8715,2.0974,2.4925,2.7639,2.9193,2.7149,2.2485,1.5159,-0.0027,-1.1617,-2.0207,-3.2063,-3.7429,-3.7566,-3.7968,-3.7569,-3.6464,-3.5321,-3.4038,-3.2588,-3.0456,-2.8858,-2.7144,-2.3178,-2.113,-1.9733,-1.5136,-0.9473,-0.3758,-0.0175,0.1495,0.2207,0.2132,0.1599,0.0799,-0.0891,-0.1606,-0.2497,-0.491,-0.5625,-0.6245,-0.7749,-0.8197,-0.8197,-0.8109,-0.8715,-0.8798,-0.7143,-0.7492,-0.7485,-0.5445,-0.4645,-0.3844,-0.2688,-0.1883,-0.1436,-0.1436,-0.1469,-0.1501,-0.1524,-0.1561,-0.1692,-0.2017,-0.2517,-0.4221,-0.7347,-0.7838,-0.8366,-0.9243,-0.8965,-0.8969,-0.9165,-1.0222,-1.1811,-1.3761,-1.3979,-1.4088,-1.4088,-1.4406,-1.5426,-1.7048,-1.7504,-1.8204,-1.8975,-1.9283,-1.952,-1.9775,-2.0303,-2.0896,-2.1461,-2.168,-2.2542,-2.3604,0.0,0.0,0.0,0.0,0.0,0.0,0.0,0.0,0.0,0.0,0.0,0.0,0.0,0.0,0.0,0.0,0.0,0.0,0.0,0.6851,0.8757,1.0823,1.505,1.8602,2.1264,2.6417,3.0118,3.2269,3.0502,2.7633,2.3332,0.285,-0.9351,-1.4813,-3.1447,-3.842,-3.7683,-3.8007,-3.7236,0.0,0.0,-3.3382,-3.1582,-2.9889,-2.816,-2.6206,-2.2347,-1.8903,-1.5434,-1.0184,-0.4875,-0.0088,0.2295,0.3622,0.4246,0.3653,0.3299,0.2761,0.1249,0.0178,-0.0981,-0.2854,-0.4281,-0.5708,-0.7379,-0.8006,-0.8364,-0.8886,-0.941,-0.9231,-0.7577,-0.7929,-0.7658,-0.5179,-0.4467,-0.3844,-0.2419,-0.1793,-0.1436,-0.1436,-0.1188,-0.1115,-0.1504,-0.1534,-0.1559,-0.1576,-0.2081,-0.3179,-0.5062,-0.6435,-0.7525,-0.8292,-0.8505,-0.8838,-0.9492,-1.079,-1.2071,-1.3272,-1.3841,-1.4088,-1.4173,-1.4887,-1.5982,-1.727,-1.7985,-1.8692,-1.9292,-1.9274,-1.9413,-1.9737,-2.0381,-2.0916,-2.1405,-2.2334,-2.2885,-2.3161,0.0,0.0,0.0,0.0,0.0,0.0,0.0,0.0,0.0,0.0,-0.018,0.009,0.1077,0.1075,0.0,0.0,0.0,0.0,0.0,0.0,0.7095,0.9971,1.3926,1.7301,2.0154,2.6794,3.0656,3.154,3.0924,3.0576,2.9911,0.4503,-0.7024,-0.7404,-2.9311,-3.8222,-3.6793,-3.7161,-3.6264,-3.4449,-3.3416,-3.1769,-2.9768,0.0,0.0,-2.4696,-2.1363,-1.6033,-0.9728,-0.4183,-0.0787,0.1318,0.2654,0.4349,0.5427,0.3842,0.4028,0.4383,0.3038,0.1428,0.0089,-0.0625,-0.2586,-0.4812,-0.6395,-0.7372,-0.8265,-0.9231,-0.9666,-0.9401,-0.7918,-0.8013,-0.7478,-0.4559,-0.4202,-0.3576,-0.1703,-0.1345,-0.1256,-0.1166,-0.0638,-0.0553,-0.1295,-0.141,-0.1522,-0.1621,-0.2413,-0.2528,-0.1656,-0.4486,-0.6415,-0.6963,-0.7953,-0.8889,-0.9859,-1.1456,-1.2318,-1.251,-1.3561,-1.4088,-1.4173,-1.5853,-1.6668,-1.6886,-1.8386,-1.9181,-1.9292,-1.9362,-1.9474,-1.9593,-2.044,-2.0926,-2.1282,-2.3124,-2.3315,-2.2739,0.0,0.0,0.0,0.0,0.0,0.0,0.0,0.0,0.0,0.0,0.0,0.0,0.0,0.0,0.0,0.0,0.0,0.0,0.0,0.0,0.0,0.7508,1.1603,1.5098,1.764,2.2235,2.4154,2.327,2.202,2.0723,1.8931,-0.1746,-1.1401,-1.2238,-3.0313,-3.7934,-3.7199,-3.7399,-3.6242,-3.4119,-3.2578,-3.1004,-2.9327,0.0,0.0,0.0,-2.0448,-1.4671,-0.8287,-0.4688,-0.157,0.1408,0.5139,0.676,0.721,0.6331,0.6245,0.5891,0.3933,0.3487,0.2771,-0.0268,-0.1072,-0.2225,-0.5946,-0.675,-0.7109,-0.8448,-0.9061,-0.8794,-0.6956,-0.7305,-0.7214,-0.5184,-0.4293,-0.3489,-0.197,-0.1075,-0.0359,0.0269,0.045,0.0182,-0.0554,-0.0557,-0.0843,-0.1429,-0.1695,-0.1692,-0.143,-0.3,-0.4691,-0.649,-0.7631,-0.8756,-0.9859,-1.1456,-1.2697,-1.3749,-1.403,-1.4088,-1.4173,-1.5369,-1.6472,-1.7474,-1.7781,-1.839,-1.9301,-1.9664,-2.0186,-2.0827,-2.166,-2.2531,-2.3537,-2.3909,-2.4322,-2.4815,0.0,0.0,0.0,0.0,0.0,0.0,0.0,0.0359,0.0,-0.0628,-0.0718,-0.0539,-0.009,0.0,0.018,0.0,0.0,0.0,0.0,0.0,0.0,0.0,0.0,0.0,1.3913,1.689,1.867,1.9318,0.0,1.6397,1.4219,-0.2254,-1.0735,-1.2759,-2.7266,-3.369,-3.3656,-3.418,-3.3406,-3.1688,-3.0966,-2.9675,0.0,0.0,0.0,0.0,0.0,-1.3156,-0.8328,-0.4993,-0.2024,0.1063,0.4982,0.6508,0.6949,0.6943,0.6419,0.5802,0.5526,0.4732,0.3489,0.1787,0.0536,-0.107,-0.4339,-0.5764,-0.6929,-0.8703,-0.9235,-0.8973,-0.7584,-0.776,-0.758,-0.5644,-0.4659,-0.3312,-0.1164,-0.009,0.0538,0.0718,0.1076,0.099,0.0273,0.0546,0.0457,-0.0277,-0.0733,-0.1102,-0.1404,-0.2022,-0.3522,-0.6154,-0.6953,-0.8093,-0.9763,-1.0564,-1.1796,-1.337,-1.3326,-1.3659,-1.4173,-1.5271,-1.6275,-1.718,-1.8083,-1.8789,-1.9301,-1.9762,-2.0253,-2.1053,-2.3045,-2.3545,-2.3235,-2.4365,-2.4657,-2.4589,0.0,0.0,0.0,0.0,0.0,0.0,0.0269,0.009,-0.0359,-0.1524,-0.1704,-0.1436,-0.0718,-0.0629,-0.0629,0.0,0.0,0.0,0.0,0.0,0.0,0.0,0.0,0.0,0.0,0.0,0.0,1.4653,1.3345,0.0,0.0,0.0,0.0,0.0,-2.3458,-2.8639,-2.9356,-3.0211,-2.9869,0.0,0.0,-2.7906,0.0,0.0,0.0,0.0,0.0,-1.2216,-0.8719,-0.5217,-0.231,0.0446,0.366,0.527,0.6242,0.72,0.6502,0.5716,0.6763,0.5614,0.4113,0.3844,0.2324,0.0178,-0.2481,-0.4345,-0.6039,-0.8436,-0.8882,-0.8623,-0.7856,-0.7588,-0.7054,-0.5468,-0.4208,-0.2593,0.0,0.1254,0.1881,0.1613,0.2239,0.2329,0.1611,0.1881,0.1792,0.1075,0.0,-0.0994,-0.1744,-0.1806,-0.3126,-0.598,-0.6419,-0.7562,-0.9579,-0.9937,-1.0977,-1.2705,-1.2875,-1.3392,-1.4173,-1.518,-1.6079,-1.6788,-1.8377,-1.9101,-1.9301,-1.9752,-2.0184,-2.0967,-2.3525,-2.3764,-2.2832,-2.4457,-2.4632,-2.4267,0.0,0.0,0.0,0.0,0.0,0.0,-0.0447,-0.0986,-0.1614,-0.2599,-0.2777,-0.2688,-0.2599,-0.2599,-0.2599,0.0,0.0,0.0,0.0,0.0,0.0,0.0,0.0,0.0,0.0,0.0,0.0,0.5152,0.3784,0.0,0.0,0.0,0.0,0.0,0.0,-2.4761,-2.6436,-2.712,0.0,0.0,0.0,0.0,0.0,0.0,0.0,0.0,0.0,-1.2542,-0.8966,-0.5662,-0.2666,-0.0089,0.1612,0.3758,0.6157,0.8169,0.7826,0.6871,0.6864,0.6514,0.5891,0.4816,0.42,0.2858,-0.1068,-0.2136,-0.3115,-0.6062,-0.652,-0.6435,-0.626,-0.5369,-0.4385,-0.3578,-0.1964,-0.0179,0.1431,0.2771,0.3931,0.4561,0.5006,0.5092,0.4283,0.3573,0.2772,0.2055,-0.009,-0.1705,-0.2695,-0.2952,-0.4014,-0.6068,-0.6691,-0.7837,-0.9579,-1.0443,-1.1483,-1.2705,-1.3568,-1.3997,-1.4173,-1.4992,-1.5884,-1.678,-1.7683,-1.8585,-1.9301,-1.9706,-2.0323,-2.1165,-2.1838,-2.2863,-2.3986,-2.4143,-2.4576,-2.5158,0.0,0.0,0.0,0.0,0.0,0.0,0.009,-0.0717,-0.1612,-0.2777,-0.3403,-0.3941,-0.4567,-0.4567,-0.4119,-0.2956,-0.2867,0.0,0.0,0.0,0.0,0.0,0.0,0.0,0.0,0.0,0.2283,0.2187,0.0696,0.0,0.0,0.0,0.0,0.0,0.0,-1.9673,-2.2603,-2.2629,0.0,0.0,0.0,0.0,0.0,0.0,0.0,0.0,0.0,0.0,-0.9269,-0.6113,-0.3379,-0.089,0.2223,0.4013,0.5272,0.7372,0.7291,0.6776,0.791,0.7562,0.6599,0.5708,0.4819,0.3209,-0.0178,-0.187,-0.3303,-0.5719,-0.6171,-0.5813,-0.4919,-0.4295,-0.304,0.0,0.1072,0.2054,0.3401,0.4117,0.4652,0.5184,0.5275,0.5361,0.5531,0.4469,0.3312,0.2059,0.0627,-0.0717,-0.2149,-0.2953,-0.3844,-0.4999,-0.598,-0.7132,-0.8544,-0.9666,-1.0707,-1.1843,-1.279,-1.3568,-1.4173,-1.556,-1.637,-1.678,-1.8158,-1.8975,-1.9301,-1.9696,-2.0089,-2.0459,-2.1461,-2.2499,-2.3463,-2.3975,-2.4636,-2.5312,0.0,0.0,0.0,0.0,0.0,0.0896,0.0269,-0.0805,-0.1878,-0.3042,-0.4117,-0.4926,-0.5644,-0.5733,-0.5196,-0.3851,-0.3762,0.0,0.0,0.0,0.0,0.0,0.0,0.0,0.0,0.0,-0.0269,-0.0089,-0.152,-0.3571,0.0,0.0,-0.8871,-1.3336,0.0,0.0,0.0,0.0,0.0,0.0,0.0,0.0,0.0,0.0,0.0,0.0,0.0,0.0,0.0,0.0,0.0,-0.1158,0.213,0.3566,0.4561,0.719,0.7291,0.6949,0.8786,0.844,0.739,0.7037,0.5791,0.4003,0.1154,-0.0712,-0.259,-0.5008,-0.5366,-0.4921,-0.4117,-0.3221,-0.1609,0.1521,0.2773,0.3667,0.4569,0.5191,0.5722,0.598,0.616,0.6425,0.6868,0.5628,0.4119,0.2689,0.1614,0.0538,-0.0716,-0.2059,-0.3401,-0.4648,-0.5445,-0.6599,-0.8285,-0.9065,-1.0193,-1.1757,-1.2357,-1.3222,-1.4173,-1.5394,-1.6214,-1.678,-1.7997,-1.8895,-1.939,-1.9784,-1.9942,-2.0177,-2.1308,-2.2285,-2.3106,-2.3829,-2.4636,-2.5312,0.0,0.0,0.0,0.0,0.0,0.0807,-0.0268,-0.1609,-0.2858,-0.3749,-0.4919,-0.5733,-0.5733,-0.5733,-0.5733,-0.5644,-0.5644,0.0,0.0,0.0,0.0,0.0,0.0,0.0,-0.2867,-0.1883,-0.1883,-0.2867,-0.3851,-0.43,-0.4387,-0.5282,-0.6602,-0.8333,0.0,0.0,0.0,0.0,0.0,0.0,0.0,0.0,0.0,0.0,0.0,0.0,0.0,0.0,0.0,0.0,0.0,0.0,0.0,0.2061,0.4383,0.807,0.8348,0.7753,0.9248,0.9074,0.8544,0.8803,0.7834,0.6054,0.3105,0.1869,0.0268,-0.3578,-0.3583,-0.3226,-0.4119,-0.1967,0.0,0.0,0.2415,0.43,0.43,0.616,0.7489,0.7489,0.8552,0.917,0.8911,0.6959,0.5275,0.4387,0.2689,0.1794,0.1794,-0.0537,-0.304,-0.563,-0.5359,-0.6502,-0.9148,-0.9231,-1.0361,-1.2705,-1.2705,-1.3222,-1.4088,-1.4088,-1.5068,-1.6698,-1.6698,-1.7844,-1.9636,-1.9794,-2.002,-2.042,-2.1385,-2.2285,-2.3106,-2.3829,-2.4636,-2.5312,0.0,0.0,0.0,0.0,0.0,0.0,0.0448,-0.1074,-0.2326,-0.2593,-0.4295,-0.5463,-0.5463,-0.5644,-0.5733,-0.5733,-0.5733,0.0,0.0,0.0,0.0,0.0,0.0,0.0,-0.2867,-0.2598,-0.2867,-0.3851,-0.4119,-0.4656,-0.5285,-0.5555,-0.6602,-0.8158,-0.8002,-0.9218,0.0,0.0,0.0,0.0,0.0,0.0,-1.2287,0.0,0.0,0.0,0.0,0.0,0.0,0.0,0.0,0.0,0.0,0.0,0.0,0.5617,0.6505,0.7221,0.836,0.854,0.8456,0.8185,0.6943,0.5166,0.2404,0.1071,-0.0268,-0.2865,-0.3136,-0.2597,-0.152,-0.0626,0.0626,0.2593,0.3669,0.4743,0.5805,0.6425,0.7305,0.8965,0.9676,0.9336,0.7845,0.6517,0.5277,0.4387,0.2778,0.1794,0.1794,0.0628,-0.1252,-0.3926,-0.5001,-0.6337,-0.8025,-0.8803,-1.0009,-1.1569,-1.2351,-1.3222,-1.4088,-1.4748,-1.5311,-1.5884,-1.7107,-1.7917,-1.8567,-1.9539,-1.9942,-2.0177,-2.1308,-2.2285,-2.3106,-2.3829,-2.4636,-2.5312,0.0,0.0,0.0,0.0,0.0,0.0,0.0987,-0.0717,-0.197,-0.197,-0.3848,-0.528,-0.528,-0.5371,-0.546,-0.546,-0.5552,0.0,0.0,0.0,0.0,0.0,0.0,0.0,-0.3941,-0.3583,-0.3851,-0.4837,-0.4837,-0.5104,-0.5733,-0.5733,-0.6254,-0.7207,-0.7132,-0.8009,0.0,0.0,0.0,0.0,0.0,0.0,-0.9923,0.0,0.0,0.0,0.0,0.0,0.0,0.0,0.0,0.0,0.0,0.0,0.0,0.0,0.5272,0.6599,0.7566,0.7918,0.7921,0.7834,0.6858,0.5435,0.3387,0.2232,0.1073,-0.0894,-0.0984,-0.0447,0.0358,0.1162,0.2236,0.403,0.4832,0.5714,0.7034,0.7478,0.844,1.0448,1.0544,0.9854,0.8456,0.7044,0.5808,0.4919,0.3492,0.2601,0.2243,0.1525,0.0089,-0.223,-0.3926,-0.5445,-0.6966,-0.8017,-0.9235,-1.0443,-1.1569,-1.2613,-1.3652,-1.481,-1.556,-1.5966,-1.7017,-1.7917,0.0,-1.9125,-1.9756,-2.0624,-2.1669,-2.2638,-2.3537,-2.4264,-2.4862,-2.5312,0.0,0.0,0.0,0.0,0.0,0.0,0.0,-0.0358,-0.1701,-0.179,-0.3578,-0.4919,-0.501,-0.501,-0.501,-0.501,-0.5191,0.0,0.0,0.0,0.0,0.0,0.0,-0.4746,-0.5644,-0.4837,-0.4835,-0.5733,-0.5733,-0.5733,-0.5733,-0.5733,-0.5733,-0.5733,-0.6612,-0.7051,0.0,0.0,0.0,0.0,-0.8715,-0.8803,0.0,0.0,0.0,0.0,0.0,0.0,0.0,0.0,0.0,0.0,0.0,0.0,0.0,0.0,0.0,0.0,0.0,0.7034,0.7126,0.7654,0.7217,0.6511,0.5526,0.4825,0.0,0.1876,0.2236,0.2597,0.1787,0.3129,0.4387,0.4476,0.5805,0.7126,0.7903,0.9213,1.0616,1.1752,1.1235,1.0636,1.0294,0.8452,0.6871,0.5985,0.4921,0.3942,0.3053,0.2243,0.1164,-0.0446,-0.214,-0.4013,-0.6068,-0.6966,-0.8109,-0.9579,-1.0529,-1.1569,-1.279,-1.4475,-1.5801,-1.6617,-1.6698,-1.7755,-1.9399,-1.8718,-1.9571,-2.1461,-2.2264,-2.3147,-2.412,-2.5004,-2.5312,-2.5312,0.0,0.0,0.0,0.0,0.0,0.0,0.0,0.0,0.0,0.0,-0.2772,-0.3937,-0.4659,-0.4924,-0.501,0.0,0.0,0.0,0.0,0.0,0.0,0.0,-0.5282,-0.5282,-0.5463,-0.5282,-0.5285,-0.5733,-0.5733,-0.5733,-0.5733,-0.5733,-0.5733,-0.5733,-0.5908,-0.6438,0.0,0.0,0.0,0.0,-0.7753,-0.7492,0.0,0.0,0.0,0.0,-0.5974,-0.4905,0.0,0.0,0.0,0.0,0.0,0.0,0.0,0.0,0.545,0.6157,0.6858,0.0,0.6602,0.6953,0.652,0.5727,0.0,0.4387,0.3939,0.2776,0.2776,0.3045,0.3489,0.4465,0.5351,0.6068,0.6953,0.8089,0.9483,1.1466,1.2334,1.1063,1.1826,1.1912,1.0463,0.8969,0.8089,0.7822,0.5622,0.421,0.3944,0.3139,0.2243,0.1254,-0.0447,-0.2764,-0.5808,-0.6248,-0.739,-0.9318,-1.0438,-1.1569,-1.2705,-1.3899,-1.4908,-1.5718,-1.637,-1.735,-1.8407,-1.9063,-1.9696,-2.0391,-2.1952,-2.2861,-2.339,-2.4791,-2.5312,-2.5312,0.0,0.0,0.0,0.0,0.0,0.0,0.0,0.0,0.0,0.0,-0.2684,-0.3939,-0.4478,-0.4656,-0.4654,0.0,0.0,0.0,0.0,0.0,0.0,-0.4565,-0.5013,-0.501,-0.4565,-0.4565,-0.4832,-0.5371,-0.4472,-0.4293,-0.4835,-0.4474,-0.4295,-0.4389,-0.4389,-0.4921,0.0,0.0,0.0,-0.7139,-0.67,0.0,0.0,0.0,0.0,0.0,-0.5006,-0.3753,0.0,-0.0714,0.1072,0.2773,0.0,0.0,0.0,0.0,0.6242,0.6949,0.7302,0.7041,0.6779,0.6779,0.6517,0.5991,0.5102,0.4926,0.4835,0.43,0.421,0.4476,0.5272,0.606,0.6672,0.7214,0.8352,0.9657,1.088,1.2595,1.3197,1.1837,1.2601,1.2681,1.1499,1.0448,0.9396,0.8524,0.7119,0.5888,0.501,0.4476,0.3671,0.2509,0.1251,-0.0892,-0.3842,-0.5356,-0.6684,-0.791,-0.957,-1.0966,-1.21,-1.3457,-1.4796,-1.6041,-1.6535,-1.7432,-1.8647,-1.8816,-1.945,-2.0469,-2.1886,-2.285,-2.3537,-2.4791,-2.5312,-2.5312,0.0,0.0,0.0,0.0,0.0,0.0,0.0,0.0,0.0,0.0,0.0,0.0,0.0,0.0,0.0,0.0,0.0,0.0,0.0,0.0,-0.2323,-0.3041,-0.4024,-0.4115,-0.331,-0.331,-0.3757,-0.4561,-0.2948,-0.2591,-0.3578,-0.2771,-0.2593,-0.2867,-0.2867,-0.3315,-0.4121,-0.4121,-0.4567,-0.5285,-0.5285,0.0,0.0,0.0,0.0,0.0,0.0,0.0,0.0,0.0268,0.2056,0.3757,0.4024,0.0,0.0,0.0,0.0,0.0,0.8097,0.7998,0.7731,0.7126,0.6953,0.6779,0.6171,0.5997,0.5997,0.5997,0.5997,0.6257,0.7122,0.7819,0.8253,0.8345,1.0082,1.1724,1.2504,1.3607,1.4119,1.3613,1.3698,1.3704,1.3281,1.2174,1.0875,0.9213,0.8694,0.7738,0.5985,0.5808,0.5092,0.3666,0.2769,0.1161,-0.1163,-0.4283,-0.5977,-0.6413,-0.8698,-1.0274,-1.1322,-1.3184,-1.4942,-1.6535,-1.6617,-1.7594,-1.9054,-1.8559,-1.9344,-2.0914,-2.1886,-2.2925,-2.3891,-2.4791,-2.5158,-2.5312,0.0,0.0,0.0,0.0,0.0,0.0,0.0,0.0,0.0,0.0,0.0,0.0,0.0,0.0,0.0,0.0,0.0,0.0,0.0,-0.2058,-0.1253,-0.0538,-0.17,-0.2237,-0.2058,-0.2058,-0.2236,-0.25,-0.2233,-0.2233,-0.2412,-0.2233,-0.2323,-0.2592,-0.2776,-0.2956,-0.3135,-0.3135,-0.3226,-0.3315,-0.3315,0.0,0.0,0.0,0.0,0.0,0.0,0.0,0.0,0.2772,0.3849,0.4474,0.5891,0.0,0.0,0.0,0.0,0.0,0.9506,1.0519,1.0919,0.8261,0.7658,0.7658,0.7482,0.7485,0.7485,0.7485,0.7485,0.7906,0.9429,0.9803,1.0082,1.0565,1.2116,1.3827,1.5403,1.6503,1.6846,1.6129,1.6011,1.5786,1.5486,1.3833,1.2492,1.2037,0.9812,0.8002,0.6962,0.6163,0.5542,0.5361,0.3842,0.2502,0.1519,-0.2497,-0.5176,-0.6413,-0.9126,-1.0788,-1.1322,-1.3215,-1.4657,-1.5636,-1.637,-1.7269,-1.8318,-1.959,-2.0382,-2.1011,-2.1983,-2.3021,-2.3913,-2.4204,-2.4707,-2.5382,0.0,0.0,0.0,0.0,0.0,0.0,0.0,0.0,0.0,0.0,0.0,0.0,0.0,0.0,0.0,0.0,0.0,0.0,0.0,-0.0448,0.0269,0.0718,0.0269,-0.0269,-0.0806,-0.0806,-0.0895,-0.0982,-0.0447,0.0,0.0357,0.0802,0.0891,0.0802,0.0624,0.0,-0.1072,-0.1072,-0.1789,-0.2867,0.0,0.0,0.0,0.0,0.0,0.0,0.0,0.0,0.0,0.0,0.4919,0.5805,0.6602,0.0,0.0,0.0,0.0,0.0,0.9951,1.0885,1.1552,1.0499,1.056,1.0877,1.061,1.052,1.0272,0.9438,0.9269,0.9525,1.0545,1.108,1.2026,1.3878,1.4309,1.4816,1.5973,1.6724,1.6976,1.6456,1.683,1.6927,1.6569,1.526,1.4183,1.3412,1.1718,1.0356,0.941,0.8448,0.7742,0.721,0.5082,0.3393,0.2144,-0.125,-0.3751,-0.5442,-0.807,-0.9908,-1.1225,-1.2699,-1.4062,-1.5394,-1.5801,-1.678,-1.8078,-1.8948,-1.9668,-2.0323,-2.1897,-2.2787,-2.3305,-2.4348,-2.5004,-2.5382,0.0,0.0,0.0,0.0,0.0,0.0,0.0,0.0,0.0,0.0,0.0,0.0,0.0,0.0,0.0,0.0,0.0,0.0,0.0,0.1254,0.1882,0.1882,0.2061,0.1702,0.0717,0.0717,0.0805,0.0981,0.17,0.2325,0.2942,0.339,0.3659,0.3659,0.3659,0.2676,0.116,0.1071,0.0089,-0.1521,0.0,0.0,0.0,0.0,0.0,0.0,0.0,0.0,0.0,0.0,0.0,0.0,0.0,0.0,0.0,0.9065,0.9598,1.0038,1.0207,1.1063,1.1992,1.2723,1.3277,1.3658,1.3374,1.3368,1.3033,1.1878,1.1634,1.1725,1.233,1.2849,1.3961,1.6437,1.616,1.5883,1.679,1.7195,1.7438,1.7284,1.7721,1.7989,1.7811,1.6593,1.5357,1.4413,1.336,1.2272,1.1327,1.0636,0.9763,0.8877,0.6665,0.4632,0.2677,0.0268,-0.2145,-0.4648,-0.7017,-0.9118,-1.1042,-1.218,-1.3548,-1.5068,-1.5311,-1.6124,-1.7423,-1.8221,-1.8868,-1.9687,-2.1583,-2.2403,-2.2936,-2.4636,-2.5382,-2.5652,0.0,0.0,0.0,0.0,0.0,0.0,0.0,0.0,0.0,0.0,0.0,0.0,0.0,0.0,0.0,0.0,0.0,0.0,0.0626,0.2415,0.34,0.34,0.4024,0.3846,0.2688,0.2688,0.3132,0.4018,0.402,0.4109,0.4198,0.3929,0.3838,0.3838,0.3659,0.3481,0.3392,0.3127,0.2949,0.2683,0.1523,0.0,0.0,0.0,0.0,0.0,0.0,0.0,0.0,0.0,0.0,0.0,0.0,0.0,0.8185,0.951,0.9951,1.0212,1.0982,1.2334,1.3756,1.4587,1.4406,1.4135,1.4712,1.5029,1.5105,1.5022,1.4788,1.4961,1.5801,1.5816,1.6085,1.718,1.7245,1.7713,1.9362,1.9854,2.0089,2.0235,1.9608,1.946,2.002,1.7577,1.5846,1.5539,1.3762,1.2272,1.1327,1.1241,1.0809,0.9854,0.879,0.7021,0.4459,0.2677,-0.0357,-0.4648,-0.6835,-0.8935,-1.1042,-1.218,-1.3222,-1.425,-1.5068,-1.5477,-1.5801,-1.8123,-1.9158,-1.9404,-2.076,-2.1983,-2.3169,-2.4719,-2.5721,-2.6346,0.0,0.0,0.0,0.0,0.0,0.0,0.0,0.0,0.0,0.0,0.0,0.0,0.0,0.0,0.0,0.0,0.0,0.0,0.1613,0.2331,0.2689,0.2689,0.3491,0.3935,0.3937,0.3846,0.4202,0.5184,0.5714,0.5714,0.5184,0.5622,0.5888,0.5888,0.5797,0.5354,0.4732,0.4643,0.3753,0.2505,0.188,0.1075,0.0,0.0,0.0,0.0,0.0,0.0,0.0,0.0,0.6257,0.7136,0.7658,0.8452,0.9244,0.9864,1.0381,1.0895,1.1241,1.3159,1.5231,1.5651,1.679,0.0,0.0,1.7463,1.7446,1.6855,1.6766,1.6847,1.7106,1.7713,1.8399,1.8895,1.8957,1.9195,2.002,2.0333,2.0489,2.0566,2.0333,2.0177,2.0264,1.8798,1.7479,1.6561,1.5267,1.4126,1.313,1.2534,1.1752,1.0809,0.9314,0.7285,0.4636,0.3393,0.0893,-0.2861,-0.5596,-0.7796,-0.9479,-1.174,-1.2875,-1.3307,-1.4237,-1.5235,-1.6288,-1.6838,-1.7971,-1.9608,-2.0847,-2.2349,-2.3745,-2.4348,-2.5075,-2.5721,0.0,0.0,0.0,0.0,0.0,0.0,0.0,0.0,0.0,0.0,0.0,0.0,0.0,0.0,0.0,0.0,0.0,0.0,0.2424,0.2691,0.2869,0.2869,0.3669,0.4559,0.527,0.5092,0.5359,0.6163,0.7048,0.7224,0.6602,0.7224,0.758,0.7492,0.7228,0.6694,0.5894,0.5894,0.4914,0.3396,0.295,0.2237,0.0,0.0,0.0,0.0,0.0,0.0,0.0,0.0,0.6523,0.7482,0.7746,0.8623,0.9772,1.0294,1.0977,1.1821,1.2571,1.44,1.63,1.7025,0.0,0.0,1.9344,1.9432,1.9344,1.8894,1.8717,1.855,1.8178,1.893,1.9608,1.9539,1.9696,2.002,2.0264,2.0489,2.0566,2.0566,2.0566,2.0566,2.042,1.9529,1.863,1.773,1.6429,1.5538,1.5061,1.3802,1.2869,1.2169,1.0351,0.8249,0.5874,0.437,0.2232,-0.0447,-0.3732,-0.6386,-0.8337,-1.0702,-1.21,-1.2705,-1.3398,-1.4482,-1.5884,-1.5951,-1.7504,-1.9794,-2.1011,-2.2274,-2.3452,-2.3891,-2.442,-2.4933,0.0,0.0,0.0,0.0,0.0,0.0,0.0,0.0,0.1525,0.0807,0.0718,0.0,0.0,0.0,0.0,0.0,0.0,0.0,0.2875,0.3765,0.43,0.43,0.5006,0.5802,0.6776,0.6517,0.6609,0.7139,0.8017,0.8456,0.8544,0.8544,0.8544,0.8452,0.7492,0.7139,0.7139,0.6881,0.6612,0.6251,0.5184,0.4563,0.421,0.0,0.0,0.0,0.0,0.0,0.0,0.0,0.6169,0.6953,0.757,0.8273,0.924,1.0804,1.1815,1.2802,1.5299,1.6137,1.6782,1.8717,1.8894,1.8991,2.0478,2.0682,2.0789,2.1385,2.0807,2.0012,1.9413,1.9631,1.9543,1.8807,1.9381,2.002,2.0264,2.0498,2.0644,2.0644,2.0644,2.0644,2.0566,1.9599,1.9036,1.9036,1.7001,1.6101,1.6919,1.5137,1.4062,1.4008,1.2248,1.0448,0.8524,0.5963,0.3922,0.2496,-0.1158,-0.4621,-0.7796,-0.9226,-1.089,-1.2619,-1.2705,-1.3222,-1.425,-1.5966,-1.7997,-2.001,-2.1078,-2.1614,-2.1983,-2.3526,-2.412,-2.4181,0.0,0.0,0.0,0.0,0.0,0.0,0.0,0.0,0.2513,0.2244,0.2243,0.0,0.0,0.0,0.0,0.0,0.0,0.0,0.2875,0.3141,0.3587,0.4297,0.5186,0.5983,0.6776,0.7228,0.7411,0.7415,0.7676,0.8025,0.8544,0.8544,0.889,0.9405,0.854,0.8105,0.8017,0.7316,0.6609,0.5897,0.5361,0.4648,0.3758,0.0,0.0,0.0,0.0,0.0,0.0,0.0,0.0,0.0,0.836,0.9069,0.9859,1.0982,1.1912,1.2996,1.4996,1.6863,1.8559,1.9474,2.0508,2.1517,2.251,2.1811,2.1201,2.2004,2.17,2.1155,2.0537,2.0527,2.0372,1.9932,2.0029,2.0489,2.1242,2.1385,2.1461,2.1461,2.1461,2.1242,2.0634,2.0323,1.9835,1.9036,1.839,1.7738,1.7082,1.6429,1.544,1.4008,1.351,1.1707,0.8524,0.7727,0.5869,0.2948,0.1068,-0.1598,-0.4982,-0.7895,-0.9483,-1.0086,-1.1225,-1.2601,-1.4196,-1.6601,-1.7755,-1.823,-1.9756,-2.0924,-2.1832,-2.2274,-2.3158,-2.412,0.0,0.0,0.0,0.0,0.0,0.0,0.0,0.0,0.2875,0.2875,0.2875,0.2875,0.0,0.0,0.0,0.0,0.0,0.0,0.2875,0.323,0.3676,0.4297,0.5186,0.6074,0.6868,0.7764,0.8204,0.8372,0.8636,0.8899,0.9327,0.9676,1.0106,1.0534,0.9492,0.9061,0.9061,0.8448,0.783,0.7214,0.6681,0.5974,0.5174,0.0,0.0,0.0,0.0,0.0,0.0,0.0,0.0,0.0,0.8803,0.9419,1.0207,1.1413,1.2583,1.3904,1.5823,1.8017,1.9944,2.0595,2.1624,2.2628,2.3446,2.2734,2.2038,2.2317,2.2392,2.2241,2.17,2.1614,2.1527,2.1231,2.0934,2.1165,2.2134,2.2285,2.2134,2.1832,2.2059,2.1983,2.1165,2.1395,2.1145,2.0207,1.9719,1.9088,1.8221,1.7407,1.6585,1.5584,1.4594,1.2723,1.0154,0.9039,0.7024,0.42,0.2583,0.0623,-0.1873,-0.5502,-0.7629,-0.8515,-1.0178,-1.206,-1.4092,-1.5823,-1.6993,-1.7819,-1.9045,-2.0226,-2.1231,-2.169,-2.2424,-2.3305,0.0,0.0,0.3776,0.3687,0.0,0.0,0.0,0.0,0.2875,0.2875,0.2875,0.2875,0.0,0.0,0.0,0.0,0.0,0.0,0.2875,0.3765,0.4297,0.4387,0.5453,0.6343,0.7228,0.8208,0.899,0.9671,1.0197,1.0549,1.0722,1.1413,1.1757,1.1763,1.0621,1.0009,1.0009,0.9923,0.9753,0.9579,0.8619,0.8093,0.7746,0.6609,0.0,0.0,0.0,0.0,0.0,0.0,0.0,0.0,0.8978,0.9419,1.0299,1.1929,1.3419,1.5043,1.7374,1.9177,2.0712,2.1797,2.2252,2.2703,2.3372,2.3423,2.3191,2.2617,2.2905,2.3191,2.2767,2.267,2.2627,2.2627,2.2048,2.1983,2.2947,2.3106,2.2809,2.2134,2.2649,2.2809,2.1983,2.2585,2.2734,2.1983,2.0854,2.0168,2.001,1.8301,1.7496,1.7997,1.5674,1.3911,1.2886,1.0403,0.8162,0.6154,0.4182,0.2493,0.1251,-0.2757,-0.5689,-0.7727,-0.9465,-1.1445,-1.3581,-1.4072,-1.5726,-1.8052,-1.863,-1.9371,-2.0333,-2.1231,-2.168,-2.1983,0.0,0.0,0.5137,0.4406,0.0,0.0,0.0,0.0,0.0,0.0,0.0,0.0,0.0,0.0,0.0,0.0,0.0,0.0,0.2875,0.3765,0.4654,0.5364,0.7051,0.8032,0.8296,0.917,0.9685,0.9854,0.9845,1.0453,1.1671,1.1843,1.2277,1.2796,1.1757,1.1235,1.0971,1.0183,0.9836,0.9749,0.8798,0.8273,0.8006,0.7054,0.6523,0.0,0.0,0.0,0.0,0.0,0.0,0.0,0.9598,0.9859,1.0381,1.2083,1.3256,1.4497,1.709,1.863,1.9904,2.1262,2.2478,2.3298,2.315,2.3372,2.3519,2.3372,2.3213,2.299,2.2777,2.2841,2.282,2.2627,2.2638,2.2947,2.3745,2.3891,2.3818,2.3599,2.3745,2.361,2.2798,2.2883,2.2957,2.2723,2.1962,2.1364,2.1165,1.9991,1.8957,1.8221,1.7488,1.6324,1.4726,1.4129,1.2578,1.0019,0.8797,0.6521,0.3101,-0.1599,-0.4903,-0.6776,-0.8432,-0.947,-1.024,-1.2977,-1.4587,-1.5659,-1.7074,-1.8399,-1.9539,-1.9766,-2.0682,-2.1842,0.0,0.0,0.0,0.0,0.0,0.0,0.0,0.0,0.0,0.0,0.0,0.0,0.0,0.0,0.0,0.0,0.2958,0.2958,0.2958,0.4334,0.5772,0.7155,0.8074,0.8828,0.917,0.9685,1.0376,1.1241,1.1144,1.1488,1.2357,1.2619,1.296,1.3222,1.2619,1.2192,1.1929,1.1488,1.1225,1.1139,1.0193,0.9753,0.9488,0.8009,0.7397,0.7217,0.6605,0.0,0.0,0.0,0.0,0.0,0.0,0.0,1.0207,1.1488,1.2753,1.4176,1.6175,1.7971,1.9737,2.1405,2.2553,2.3361,2.3486,2.3434,2.3446,2.379,2.3728,2.3446,2.315,2.335,2.3559,2.3632,2.3829,2.4253,2.4992,2.5134,2.4981,2.4612,2.4624,2.4348,2.361,2.412,2.4337,2.3963,2.3784,2.3334,2.2467,2.1941,2.0941,1.9562,1.9,1.784,1.5957,1.5471,1.4102,1.1781,1.0434,0.7661,0.3636,-0.0979,-0.384,-0.5265,-0.6593,-0.7822,-0.9043,-1.0838,-1.2632,-1.4504,-1.5584,-1.6993,-1.8399,-1.9054,-1.9835,-2.0682,0.0,0.0,0.0,0.0,0.0,0.0,0.0,0.0,0.0,0.0,0.0,0.0,0.0,0.0,0.3144,0.0,0.0,0.0,0.3333,0.5223,0.715,0.8782,0.891,0.9252,0.9911,1.026,1.1192,1.2705,1.2875,1.3045,1.3209,1.3561,1.3652,1.3392,1.3228,1.3052,1.2875,1.279,1.279,1.279,1.1757,1.1327,1.1063,0.9226,0.8528,0.8352,0.7394,0.7482,0.8013,0.7577,0.0,0.0,0.0,0.0,0.9946,1.0809,1.2157,1.3749,1.5162,1.7374,1.9737,2.1471,2.2402,2.3065,2.3768,2.3412,2.3213,2.3975,2.4154,2.4116,2.374,2.4143,2.4636,2.4981,2.5229,2.5545,2.622,2.6358,2.607,2.5392,2.5487,2.5358,2.4696,2.5639,2.6057,2.5392,2.5648,2.5262,2.3979,2.3616,2.2807,2.1278,2.0227,1.8946,1.7332,1.6456,1.5097,1.3438,1.1102,0.8099,0.4438,0.0356,-0.2054,-0.3303,-0.4561,-0.6242,-0.8074,-0.8515,-1.0494,-1.3237,-1.382,-1.5162,-1.709,-1.8301,-1.8966,-1.9529,0.0,0.0,0.0,0.0,0.0,0.0,0.0,0.0,0.0,0.0,0.3139,0.3144,0.0,0.3144,0.3144,0.3144,0.3901,0.4373,0.4373,0.0,0.0,0.8967,0.9855,1.0295,1.0121,1.18,1.2667,1.2705,1.3483,1.4328,1.5061,1.4328,1.3828,1.3398,1.3398,1.3483,1.3561,1.296,1.3045,1.3392,1.1929,1.1327,1.1149,1.0096,0.9662,0.9662,0.9483,0.9753,1.0024,0.8978,0.9061,0.0,0.0,0.0,0.9327,1.0804,1.1815,1.2893,1.458,1.7131,1.9659,2.1001,2.1787,2.2402,2.299,2.3065,2.3213,2.3975,2.4264,2.4288,2.4189,2.5205,2.6102,2.6013,2.6427,2.6756,2.6905,2.6905,2.6824,2.6756,2.6756,2.6756,2.6607,2.6756,2.6824,2.6744,2.6146,2.5706,2.5484,2.4255,2.3396,2.3176,2.1486,2.0508,2.0265,1.9265,1.8301,1.722,1.2981,1.0086,0.8269,0.4517,0.1603,-0.0624,-0.3034,-0.4283,-0.4723,-0.7017,-0.8682,-0.9899,-1.0838,-1.2874,-1.5418,-1.6366,-1.7777,-1.946,0.0,0.0,0.0,0.0,0.0,0.0,0.0,0.0,0.0,0.0,0.0,0.364,0.364,0.3346,0.3151,0.3151,0.4128,0.5201,0.6466,0.7273,0.8189,0.9242,1.0157,1.0779,1.1232,1.2681,1.3459,1.3713,1.4651,1.5155,1.5394,1.5477,1.5387,1.5047,1.4796,1.4636,1.465,1.4055,1.3977,1.423,1.3457,1.3197,1.3112,1.2145,1.1547,1.1209,1.0687,1.0346,1.0101,0.9497,0.9235,0.9235,0.9235,0.0,0.0,0.0,1.1144,1.2316,1.483,1.7382,1.9502,2.0391,2.1405,2.2252,2.2968,2.3054,2.335,2.4601,2.504,2.5122,2.4992,2.5906,2.6663,2.6333,2.696,2.7443,2.7443,2.7443,2.7443,2.7443,2.7108,2.6905,2.6973,2.7175,2.7323,2.7443,2.7404,2.7258,2.6921,2.6271,2.5472,2.4613,2.3323,2.2371,2.178,2.044,1.87,1.648,1.4358,1.2167,0.9889,0.7085,0.3999,0.0714,-0.0981,-0.2231,-0.3215,-0.4898,-0.6659,-0.8317,-0.9716,-1.1787,-1.4273,-1.5501,-1.7066,-1.8727,0.0,0.0,0.0,0.0,0.0,0.0,0.0,0.0,0.0,0.0,0.0,0.483,0.473,0.0,0.0,0.0,0.5031,0.6429,0.8322,0.8318,0.8646,0.9425,1.0513,1.1424,1.2015,1.3403,1.4366,1.4966,1.5569,1.5915,1.6262,1.6738,1.7098,1.709,1.6273,1.5869,1.5809,1.5144,1.5061,1.5311,1.513,1.513,1.5123,1.4337,1.3743,1.3159,1.2219,1.1461,1.0788,1.0356,0.9836,0.941,0.9318,0.9235,0.0,0.0,0.0,1.1912,1.4671,1.6814,1.8612,1.9668,2.0847,2.1918,2.2723,2.3043,2.357,2.5169,2.5742,2.602,2.6146,2.6976,2.7458,2.7031,2.7841,2.8468,2.8468,2.8481,2.8417,2.8417,2.7894,2.7617,2.7736,2.8026,2.8222,2.8417,2.8817,2.8817,2.8274,2.8078,2.7445,2.6121,2.5051,2.3979,2.3029,2.1125,1.9,1.6537,1.5793,1.4135,1.1638,0.9538,0.6637,0.32,0.1514,-0.0089,-0.1606,-0.2765,-0.4535,-0.6646,-0.8499,-1.059,-1.2747,-1.4594,-1.6183,-1.7585,0.0,0.0,0.0,0.0,0.0,0.0,0.0,0.0,0.0,0.0,0.0,0.6921,0.6716,0.6617,0.6517,0.6224,0.7223,0.8322,0.9426,0.9517,0.9513,0.9612,1.1541,0.0,1.2272,1.4241,1.5665,1.6309,1.5922,1.6707,1.8462,1.8096,1.8407,1.9054,1.7172,1.6527,1.6878,1.5801,1.5966,1.687,1.6413,1.6316,1.648,1.6226,1.5988,1.5674,1.4796,1.4055,1.33,1.2248,1.1472,1.0611,0.9043,0.9052,0.9492,0.0,0.0,0.0,1.3341,1.4678,1.6175,1.8691,1.9963,2.0894,2.1939,2.2927,2.3936,2.524,2.5938,2.6705,2.7947,2.8826,2.9178,2.8643,2.9552,3.0329,3.0329,3.0237,3.019,3.019,2.9993,2.9931,2.9931,2.9931,3.0007,3.019,3.019,2.9993,2.9442,2.8911,2.8349,2.7696,2.6189,2.498,2.4062,2.1497,2.0079,1.9913,1.7599,1.5868,1.4719,1.2614,1.0479,0.8225,0.4442,0.214,0.1071,-0.0802,-0.2494,-0.4281,-0.641,-0.8424,-1.0413,-1.3128,-1.483,-1.6191,0.0,0.0,0.0,0.0,0.0,0.0,0.0,0.0,0.0,0.0,0.0,0.0,0.0,0.722,0.7021,0.6921,0.772,0.8619,0.9529,0.9628,0.9628,0.9628,1.1565,1.2689,1.2608,1.4615,1.5982,1.6735,1.6851,1.7531,1.8579,1.8753,1.8975,1.9222,1.8264,1.7951,1.8031,1.7375,1.7294,1.7619,1.7827,1.79,1.798,1.8115,1.7937,1.7454,1.7139,1.625,1.5025,1.4169,1.2911,1.1558,1.0961,1.0183,0.9584,0.9593,1.0376,1.1488,1.2565,1.3911,1.5666,1.7696,1.8991,2.0119,2.1558,2.2252,2.3191,2.5252,2.5881,2.6625,2.8684,2.9331,2.9442,2.9226,2.995,3.0524,3.0524,3.0659,3.0808,3.0808,3.0896,3.1056,3.1099,3.0719,3.0511,3.0659,3.0343,3.0054,2.9917,2.9718,2.9282,2.8638,2.7485,2.6096,2.429,2.2829,2.1476,2.0149,1.8735,1.7293,1.5838,1.4476,1.3037,1.1337,0.9402,0.6883,0.4003,0.1425,-0.0623,-0.2312,-0.4802,-0.745,-1.0072,-1.1536,-1.3574,-1.5779,0.0,0.0,0.0,0.0,0.0,0.9612,0.9612,0.9612,0.9612,0.9612,0.0,0.0,0.0,0.0,0.8414,0.8315,0.8715,0.9316,0.9821,0.9821,0.9727,0.9727,1.1663,1.2727,1.2727,1.4943,1.6543,1.753,1.7881,1.8496,1.927,1.9453,1.9439,1.9301,1.9231,1.9161,1.9161,1.8523,1.8594,1.9054,1.9204,1.9515,1.9953,1.9696,1.937,1.9048,1.8519,1.7573,1.6487,1.6191,1.5058,1.3639,1.2729,1.1203,0.9927,1.0289,1.0809,1.1402,1.2066,1.3165,1.442,1.5883,1.7599,1.914,2.0256,2.1527,2.3043,2.5028,2.5742,2.668,2.9002,2.9642,2.9889,3.0119,3.0881,3.1405,3.1405,3.1702,3.1952,3.1952,3.2007,3.2103,3.2198,3.1769,3.1573,3.1717,3.1246,3.0866,3.0689,3.0539,3.0007,2.9099,2.8182,2.687,2.5157,2.4158,2.2944,2.1535,2.0294,1.8973,1.7607,1.6464,1.5148,1.3833,1.262,0.9856,0.5957,0.3733,0.16,-0.0534,-0.3287,-0.594,-0.8491,-1.025,-1.2225,-1.426,0.0,0.0,1.1883,1.1292,1.1194,1.1198,1.1194,1.1194,1.1194,1.1194,0.0,0.0,0.0,0.0,0.0,1.0413,1.0413,1.0413,1.0413,1.0117,1.0019,1.0019,1.1765,1.2727,1.2732,1.5312,1.7447,1.8788,1.8996,1.9598,2.053,2.0118,1.9714,1.9399,1.9951,2.0264,2.0186,1.9259,1.9724,2.1128,2.0557,2.1192,2.2292,2.0742,2.0419,2.0625,1.9173,1.8204,1.7629,1.8155,1.784,1.6847,1.4088,1.1849,1.0443,1.1149,1.1327,1.1408,0.0,0.0,0.0,1.351,1.5778,1.7869,1.7974,2.0671,2.3486,2.4422,2.5496,2.6963,2.8903,2.9903,3.0689,3.1364,3.2446,3.3198,3.3182,3.3443,3.3598,3.3649,3.3391,3.3235,3.3235,3.3251,3.3303,3.3439,3.2911,3.2422,3.1946,3.1349,3.0418,2.9162,2.8182,2.7365,2.6744,2.5228,2.4434,2.4362,2.236,2.0911,2.0014,1.8506,1.7009,1.5696,1.3917,1.0904,0.719,0.6201,0.4082,0.1248,-0.1861,-0.3815,-0.5424,-0.9113,-1.0692,-1.1466,0.0,1.2856,1.237,1.1878,1.1785,1.1688,1.1296,1.1194,1.1194,0.0,0.0,0.0,1.11,1.1096,1.0998,1.0703,1.0708,1.0609,1.0413,1.0117,1.0019,1.0019,1.1765,1.2829,1.3022,1.5893,1.7957,1.9063,1.9504,2.0148,2.0924,2.0641,2.0481,2.0448,2.1095,2.1638,2.2019,2.1332,2.1201,2.1565,2.212,2.2,2.161,2.1918,2.1855,2.1439,2.1075,2.0389,1.9641,1.9265,1.8257,1.6651,1.3917,1.2334,1.1488,1.1322,1.1327,1.1322,1.1494,0.0,0.0,0.0,0.0,0.0,1.8876,2.0536,2.2167,2.3868,2.4826,2.6008,2.7919,2.887,2.9756,3.097,3.1962,3.2695,3.3018,3.3403,3.3764,3.4068,3.4317,3.4415,3.4415,3.4068,3.3882,3.3882,3.3033,3.2382,3.2272,3.1218,3.0269,2.9407,2.8648,2.7947,2.731,2.5767,2.4838,2.4362,2.2242,2.0904,2.0119,1.9274,1.823,1.7082,1.6265,1.4142,1.1166,0.796,0.5852,0.4166,0.1155,-0.1686,-0.4251,-0.6122,-0.8586,-1.1128,1.3539,1.3249,1.2958,1.2467,1.237,1.2273,1.1883,1.1878,1.178,0.0,0.0,0.0,1.1194,1.1194,1.11,1.0998,1.0998,1.09,1.0703,1.0511,1.0507,1.0988,1.2247,1.3216,1.3794,1.6686,1.8545,1.9147,2.0227,2.0934,2.1367,2.1463,2.1457,2.1293,2.2181,2.2853,2.3339,2.328,2.3091,2.2839,2.3384,2.3492,2.3269,2.3179,2.3127,2.2943,2.2086,2.159,2.133,2.0693,1.9149,1.722,1.5411,1.3853,1.2613,1.2015,1.1843,1.1843,1.1671,1.2015,1.2522,1.2911,0.0,0.0,1.7574,1.9349,2.1247,2.2977,2.3868,2.5063,2.7353,2.8139,2.8919,3.0346,3.1276,3.213,3.3108,3.3646,3.4084,3.4594,3.4787,3.4899,3.4899,3.4594,3.4448,3.4448,3.3387,3.2532,3.2064,3.1321,3.0584,2.995,2.9268,2.8597,2.7908,2.6471,2.5557,2.524,2.3062,2.1821,2.1431,2.0226,1.9204,1.847,1.7432,1.6026,1.4169,1.0651,0.8047,0.6028,0.3025,0.0178,-0.2481,-0.4446,-0.6926,-0.9392,0.0,1.3636,1.3443,1.2958,1.2861,1.2861,1.2764,1.2764,1.2662,0.0,1.2078,1.1785,1.1296,1.1194,1.1194,1.1194,1.1194,1.1194,1.1194,1.0998,1.1282,1.2242,1.3022,1.389,1.4752,1.7545,1.9093,1.9231,2.0995,2.1978,2.2064,2.25,2.2518,2.2317,2.3366,2.4013,2.4405,2.5055,2.5092,2.4788,2.4585,2.5101,2.5846,2.4566,2.4377,2.4692,2.2724,2.2456,2.2875,2.1982,2.0226,1.8337,1.7518,1.5749,1.3808,1.3045,1.279,1.2705,1.2186,1.21,1.2015,1.1585,1.3328,0.0,1.5313,1.7751,2.0333,2.1834,2.2733,2.41,2.6671,2.7353,2.8009,2.9476,3.0346,3.1375,3.3135,3.3751,3.4251,3.4835,3.4787,3.4691,3.4691,3.4787,3.4787,3.4787,3.3834,3.2718,3.1582,3.1482,3.1219,3.0524,2.9827,2.9205,2.8481,2.7082,2.6346,2.6277,2.4169,2.3158,2.2999,2.1135,2.0079,1.9599,1.7917,1.6952,1.6221,1.351,1.0494,0.7278,0.436,0.187,-0.0534,-0.3558,-0.5523,-0.7037,1.4298,1.4106,1.4016,1.3443,1.3346,1.3249,1.2861,1.2764,1.2764,1.2667,1.2273,1.1785,1.1296,1.1194,1.1194,1.1194,1.1194,1.1194,1.1194,1.0998,1.1282,1.2242,1.3022,1.4082,1.5216,1.8141,1.9728,1.9704,2.163,2.2921,2.3411,2.3645,2.4156,2.4713,2.5563,2.579,2.5477,2.6051,2.6408,2.6655,2.6644,2.5954,2.5179,2.6041,2.6096,2.543,2.4364,2.4046,2.3876,2.1979,2.0407,1.8982,1.7543,1.6332,1.5274,1.3886,1.3476,1.3392,1.2705,1.2534,1.2534,1.2443,1.3209,0.0,1.5591,1.7114,1.8867,2.073,2.1573,2.2531,2.399,2.4791,2.5802,2.7631,2.8766,3.0036,3.1728,3.2524,3.3108,3.3511,3.3563,3.3511,3.3511,3.3968,3.425,3.425,3.3578,3.2718,3.1582,3.1482,3.1219,3.0524,2.9827,2.9205,2.8481,2.7082,2.607,2.5523,2.3963,2.2872,2.2306,2.1395,2.0702,2.0001,1.9036,1.7917,1.6706,1.4169,1.1958,0.9812,0.6477,0.3732,0.1244,-0.1603,-0.4013,-0.6236,1.449,1.4298,1.4202,1.3919,1.3919,1.3823,1.3624,1.3528,1.3437,1.3152,1.2467,1.1883,1.1585,1.1389,1.1194,1.1194,1.1194,1.1194,1.1194,1.1096,1.1477,1.2436,1.3403,1.437,1.5419,1.848,1.9977,1.9894,2.1971,2.3396,2.4145,2.4514,2.5294,2.6426,2.6714,2.6875,2.6944,2.6896,2.7092,2.7487,2.758,2.7405,2.6978,2.7648,2.7584,2.6999,2.5882,2.5082,2.4277,2.2793,2.1201,1.9583,1.8567,1.7463,1.6257,1.4782,1.4371,1.4126,1.3039,1.2705,1.2705,1.2705,1.3222,0.0,0.0,1.5913,1.705,1.8567,1.9113,1.979,2.146,2.2019,2.2937,2.4931,2.6477,2.8029,2.9586,3.1387,3.2695,3.313,3.3182,3.3182,3.3182,3.3764,3.3984,3.3697,3.3355,3.2718,3.1582,3.1482,3.1351,3.1029,3.0011,2.9331,2.903,2.7271,2.6208,2.5861,2.4325,2.3305,2.2585,2.1614,2.1011,2.0624,1.9125,1.8336,1.7836,1.5433,1.3587,1.1701,0.7793,0.4623,0.1958,-0.0624,-0.2943,-0.5179,1.4879,1.4484,1.4298,1.4298,1.4298,1.4298,1.4298,1.4298,1.4106,1.3539,1.2948,1.2462,1.2175,1.2063,1.177,1.1487,1.1775,1.177,1.1389,1.1482,1.1868,1.2635,1.3692,1.4657,1.5432,1.8572,2.015,1.9977,2.205,2.3647,2.4744,2.5105,2.6163,2.7614,2.7706,2.7947,2.8187,2.7799,2.7879,2.8199,2.8291,2.8609,2.9172,2.9184,2.9028,2.8652,2.734,2.5984,2.4779,2.4095,2.2382,2.0548,2.0033,1.878,1.7245,1.5681,1.517,1.4844,1.3112,1.2705,1.2619,1.2443,1.296,1.3555,0.0,0.0,0.0,1.6472,1.6708,1.7332,1.9178,1.9403,2.0005,2.1902,2.3715,2.5362,2.6802,2.9393,3.1656,3.2917,3.2986,3.2933,3.3039,3.3594,3.3697,3.3251,3.3182,3.2718,3.1582,3.1482,3.1482,3.1482,3.0208,2.9504,2.9504,2.7591,2.6483,2.6139,2.4921,2.3891,2.3084,2.2059,2.1395,2.1088,1.9213,1.8496,1.8647,1.6542,1.4782,1.2886,0.8922,0.5684,0.2938,0.0267,-0.1873,-0.3842,1.6455,1.5038,1.4298,1.4298,1.4298,1.4298,1.4298,1.4298,1.4106,1.3539,1.4004,1.3992,1.2856,1.3788,1.407,1.2759,1.3788,1.3782,1.2073,1.2549,1.2829,1.2732,1.3692,1.4746,1.5704,1.8664,2.0232,2.0141,2.2138,2.3983,2.5652,2.5746,2.667,2.8419,2.9422,2.9422,2.8779,2.9176,2.9487,2.9679,2.9147,2.9172,2.9419,3.0216,3.0228,2.9741,2.8639,2.7399,2.6166,2.5538,2.4132,2.2594,2.169,2.0514,1.8982,1.6582,1.5921,1.5426,1.3281,1.2705,1.2534,1.1671,1.21,1.2784,1.2589,0.0,1.4307,1.5838,0.0,1.639,1.7413,0.0,0.0,1.8632,2.0391,2.1985,2.3168,2.532,2.8266,3.218,3.2104,3.1894,3.2437,3.3002,3.3251,3.3198,3.3182,3.2718,3.1582,3.1482,3.1482,3.1482,3.0208,2.9504,2.9504,2.8078,2.6701,2.5441,2.5229,2.4432,2.299,2.2841,2.2231,2.1165,2.0138,1.9125,1.7951,1.6386,1.4782,1.3062,1.0287,0.7865,0.551,0.187,-0.0446,-0.2141,1.7516,1.6606,1.5875,1.4942,1.4722,1.4667,1.4322,1.4298,1.4202,1.401,1.401,1.3817,1.3249,1.3522,1.3607,1.3409,1.3974,1.3878,1.2743,1.3505,1.3596,1.2732,1.4262,1.5596,1.6619,1.9023,2.0512,2.1051,2.2413,2.4059,2.5819,2.5819,2.6976,2.9028,2.9948,3.0379,3.0316,3.053,3.083,3.1154,3.0807,3.0833,3.1145,3.0836,3.047,2.9998,2.9028,2.8251,2.7446,2.5856,2.4632,2.3583,2.2439,2.1491,2.0415,1.8049,1.7041,1.6226,1.3873,1.3626,1.3691,1.2437,1.2668,1.2983,1.1992,1.1569,1.1643,1.2292,0.0,0.0,0.0,0.0,0.0,0.0,1.6581,1.8288,2.0551,2.2201,2.4582,2.8414,2.917,3.0004,3.1634,3.2391,3.268,3.2555,3.268,3.2312,3.1409,3.1087,3.1087,3.1482,2.9842,2.9079,2.9504,2.8143,2.7175,2.6552,2.5721,2.4791,2.3745,2.2905,2.1852,2.075,1.9816,1.8957,1.8086,1.6386,1.5054,1.3944,1.1952,0.9178,0.5954,0.2581,0.0178,-0.1785,1.8925,1.7996,1.7117,1.5636,1.5307,1.5115,1.4643,1.4346,1.4298,1.4298,1.4106,1.3919,1.3727,1.4004,1.4184,1.4268,1.4924,1.4918,1.4244,1.4829,1.4918,1.4118,1.5298,1.6438,1.7345,1.9306,2.0602,2.1329,2.2501,2.4059,2.5819,2.5819,2.6976,2.9184,3.0253,3.0979,3.1409,3.1775,3.215,3.2522,3.2191,3.2304,3.2475,3.1394,3.0672,3.0152,2.9431,2.9028,2.8639,2.6806,2.568,2.4762,2.3642,2.2739,2.163,1.9423,1.8407,1.7357,1.4949,1.4699,1.4587,1.2674,1.2559,1.2535,1.0869,1.0101,0.9836,0.9744,0.9744,0.0,0.0,0.0,1.0489,1.1747,0.0,1.4621,1.7054,1.8674,2.1219,2.5512,2.7236,2.8691,3.047,3.1531,3.2018,3.1819,3.213,3.1936,3.1102,3.0658,3.0598,3.097,2.9345,2.8712,2.9205,2.8091,2.739,2.7175,2.5931,2.4992,2.4302,2.2968,2.1776,2.0827,1.9737,1.8957,1.831,1.6624,1.5484,1.4566,1.3093,1.0403,0.6923,0.382,0.1335,-0.0981,2.1261,1.9097,1.7285,1.6205,1.6004,1.5808,1.5122,1.4655,1.4298,1.4298,1.4867,1.5057,1.4394,1.6278,1.6936,1.5527,1.7412,1.8226,1.7123,1.6901,1.7066,1.7697,1.6958,1.6908,1.7609,1.9588,2.0439,2.0232,2.2138,2.4059,2.5819,2.5819,2.6753,2.8578,3.0367,3.1228,3.1496,3.265,3.3449,3.3876,3.3171,3.2975,3.3073,3.2146,3.132,3.0622,3.0228,3.0075,2.9908,2.9015,2.7888,2.6759,2.5694,2.4325,2.2635,2.0738,1.9771,1.8894,1.6569,1.5501,1.433,1.1605,1.1209,1.0794,0.879,0.8965,0.9575,0.93,0.9213,0.9209,0.9209,0.8865,0.8607,0.8607,0.978,0.0,0.0,1.413,1.8246,2.5031,2.7437,2.8602,2.8664,3.0322,3.1375,3.1129,3.1747,3.1564,3.0372,3.0312,3.0054,2.9566,2.8839,2.8481,2.8532,2.7842,2.7108,2.6427,2.5652,2.4862,2.4108,2.335,2.2553,2.1721,2.0459,1.9432,1.8576,1.7212,1.5899,1.4559,1.3678,1.1707,0.9135,0.6031,0.3554,0.1247,2.0357,2.0382,2.0147,1.8016,1.6994,1.6304,1.5501,1.5029,1.5045,1.5712,1.5919,1.5981,1.6264,1.7016,1.7304,1.6936,1.7598,1.8041,1.7972,1.7468,1.7647,1.8827,1.7632,1.7755,1.9835,2.0503,2.1051,2.1418,2.2862,2.4402,2.5964,2.608,2.6999,2.8803,3.0556,3.1629,3.2239,3.3435,3.4298,3.4912,3.4432,3.4245,3.4259,3.3685,3.2635,3.1381,3.1294,3.0722,2.9998,2.9118,2.853,2.7921,2.6565,2.5882,2.516,2.3122,2.1587,2.0289,1.8656,1.7894,1.6936,1.4302,1.3878,1.3271,0.9904,0.8877,0.844,0.7566,0.7386,0.7302,0.7217,0.7044,0.7044,0.7302,0.7727,0.8499,0.0,1.2753,1.5746,1.8515,2.2048,2.505,2.7196,2.8261,2.9087,2.9633,2.9893,2.9799,2.9296,2.9107,2.903,2.9192,2.8274,2.8039,2.8352,2.7776,2.7108,2.6414,2.5652,2.4862,2.4036,2.3202,2.2241,2.1308,2.0138,1.9116,1.8078,1.6632,1.5484,1.465,1.388,1.1986,0.9396,0.6301,0.3733,0.1157,2.0254,2.1293,2.1727,1.9147,1.762,1.6581,1.6081,1.6188,1.6535,1.7001,1.7275,1.765,1.8272,1.7925,1.7855,1.8319,1.8511,1.8588,1.8548,1.8764,1.9306,2.0236,1.9289,1.9753,2.2064,2.1747,2.2022,2.2717,2.3704,2.4978,2.6213,2.6565,2.7487,2.8961,3.0568,3.1761,3.2722,3.3984,3.4993,3.5737,3.5479,3.535,3.5285,3.4927,3.3822,3.2362,3.2205,3.1709,3.0908,2.9999,2.9614,2.9397,2.7727,2.7199,2.6827,2.5192,2.3506,2.1977,2.0732,1.979,1.8584,1.6085,1.5449,1.458,1.0909,0.9634,0.8935,0.8066,0.7383,0.7295,0.8392,0.7372,0.6688,0.7541,0.6943,0.7041,0.0,1.1343,1.338,1.4664,1.881,2.2412,2.4625,2.6396,2.7459,2.7683,2.8721,2.8876,2.8025,2.8065,2.8157,2.826,2.7643,2.7456,2.7842,2.759,2.704,2.6277,2.5652,2.4862,2.4047,2.3128,2.208,2.1058,2.0372,1.9274,1.7917,1.6944,1.5801,1.465,1.4489,1.2681,0.9831,0.7176,0.4084,0.0624,2.1191,2.181,2.1802,1.9642,1.7971,1.6878,1.6775,1.7967,1.8581,1.8155,1.9225,2.0004,2.0236,1.9281,1.8872,1.9579,2.0059,2.0059,1.9405,2.0773,2.1765,2.2082,2.1854,2.2356,2.4023,2.324,2.3066,2.369,2.4671,2.563,2.6565,2.7395,2.8303,2.9197,3.0633,3.1815,3.2933,3.4351,3.5544,3.6492,3.6274,3.6148,3.5973,3.5816,3.4861,3.3575,3.3115,3.2961,3.2749,3.1609,3.1254,3.0944,2.9147,2.827,2.777,2.6889,2.5487,2.3964,2.2689,2.1113,1.9227,1.7033,1.5934,1.4731,1.1798,1.1129,1.1038,1.0696,0.9269,0.9096,1.2499,0.9742,0.746,0.9061,0.7278,0.652,0.8777,0.974,1.1112,1.3562,1.7755,2.0631,2.1242,2.4683,2.6489,2.5423,2.7958,2.8671,2.6642,2.7338,2.7523,2.7011,2.7024,2.7024,2.7024,2.7201,2.6837,2.6045,2.5511,2.4862,2.3975,2.3054,2.208,2.1135,2.0914,1.9737,1.8078,1.7997,1.669,1.4817,1.5401,1.3522,1.0279,0.8313,0.4429,-0.0268,2.2653,2.2409,2.2114,2.068,1.8755,1.7377,1.7174,1.8389,1.9413,1.9654,2.0976,2.2043,2.2296,2.2092,2.1836,2.164,2.1569,2.1756,2.2268,2.1373,2.1738,2.381,2.1915,2.1975,2.4235,2.3414,2.3337,2.3988,2.5126,2.5975,2.673,2.7637,2.8834,3.0241,3.0921,3.2105,3.3751,3.4581,3.5544,3.6492,3.6274,3.6274,3.6367,3.6037,3.5688,3.5219,3.4298,3.3518,3.2749,3.1915,3.1842,3.1742,3.0177,2.9846,2.9833,2.8634,2.7471,2.6294,2.4926,2.3275,2.1491,1.9345,1.8288,1.7082,1.4469,1.3888,1.3625,1.2679,1.2175,1.1928,1.2187,1.0333,0.8645,0.8578,0.6946,0.6083,0.7214,0.8524,0.9908,1.1798,1.4622,1.7523,2.0303,2.2243,2.38,2.4815,2.5869,2.6227,2.5697,2.6483,2.685,2.6671,2.6875,2.6943,2.6794,2.7011,2.6427,2.5063,2.4933,2.4131,2.283,2.2402,2.2101,2.1787,2.0924,1.9972,1.8948,1.8238,1.7025,1.5401,1.472,1.2231,0.8694,0.6128,0.3112,0.0,2.3741,2.3092,2.2225,2.0836,2.0151,1.9604,1.8729,1.9331,2.0316,2.1293,2.2344,2.3233,2.3563,2.331,2.3086,2.3153,2.2902,2.2726,2.2425,2.2843,2.3374,2.4094,2.37,2.4279,2.6179,2.5284,2.5199,2.6014,2.6625,2.7139,2.7557,2.8474,2.9549,3.0758,3.1355,3.2607,3.4292,3.524,3.6006,3.6538,3.6414,3.6414,0.0,3.6226,3.6085,3.5958,3.5204,3.4514,3.3905,3.3059,3.2834,3.2763,3.1489,3.0983,3.0755,3.0021,2.8845,2.7549,2.6562,2.5195,2.362,2.1997,2.1233,2.0175,1.7363,1.6669,1.6346,1.5427,1.4531,1.4207,1.5368,1.2608,0.9679,0.8165,0.6776,0.6254,0.7224,0.7742,0.8698,1.0788,1.3146,1.5591,1.7863,2.0178,2.1954,2.3169,2.4218,2.472,2.4443,2.5594,2.6164,2.5955,2.6521,2.6739,2.6589,2.6794,2.6302,2.5087,2.5146,2.4432,2.2927,2.2703,2.2241,2.1471,2.1165,2.0138,1.8709,1.863,1.7342,1.5394,1.3789,1.1895,0.9634,0.6389,0.3653,0.1162,2.4342,2.35,2.2249,2.0484,2.1746,2.262,2.1312,2.1326,2.1903,2.334,2.386,2.42,2.4683,2.3939,2.3704,2.4307,2.4145,2.3414,2.2017,2.466,2.5608,2.4217,2.6075,2.7557,2.8542,2.7706,2.7706,2.8462,2.8609,2.8609,2.8542,2.9521,3.0343,3.1106,3.1856,3.3157,3.4773,3.6165,3.6723,3.6723,3.6662,3.6616,3.6492,3.6399,3.6258,3.6133,3.5816,3.5653,3.5344,3.4394,3.4041,3.3782,3.2692,3.1756,3.1031,3.097,2.9654,2.8239,2.7705,2.6665,2.5451,2.4525,2.4116,2.3131,2.0313,1.9427,1.9034,1.8391,1.6668,1.6277,1.959,1.5561,1.0893,0.8345,0.721,0.7204,0.8524,0.8082,0.8424,1.095,1.3212,0.0,1.5449,1.8662,2.0841,2.1242,2.2985,2.3788,2.3202,2.4587,2.5382,2.5312,2.5955,2.6383,2.6533,2.6589,2.6302,2.5535,2.5734,2.5004,2.353,2.3372,2.2381,2.0924,2.1568,2.0459,1.8399,1.9027,1.773,1.5137,1.2942,1.1992,1.1353,0.7971,0.5255,0.2953,2.3207,2.2888,2.2338,2.111,2.2658,2.4269,2.4633,2.5939,2.6834,2.6703,2.7004,2.7099,2.6793,2.5926,2.5464,2.5549,2.538,2.5432,2.5775,2.6213,2.6625,2.7059,2.7279,2.7879,2.8712,2.8287,2.8207,2.8462,2.911,2.911,2.8542,2.9986,3.1119,3.1928,3.2648,3.3959,3.5529,3.6538,3.6862,3.6708,3.7207,3.7042,3.6554,3.6997,3.6815,3.6211,3.6037,3.5831,3.5494,3.4581,3.4543,3.4654,3.3101,3.2362,3.1888,3.1106,3.0254,2.9263,2.8239,2.7419,2.6674,2.552,2.479,2.4059,2.2797,2.2039,2.138,2.0508,1.965,1.9107,1.9599,1.6895,1.3484,1.0555,0.9962,1.0287,1.1521,1.1612,1.2204,1.4158,1.5427,1.6293,1.6429,1.8674,2.0041,1.9963,2.178,2.285,2.2489,2.3818,2.4791,2.5312,2.5453,2.5816,2.6452,2.6521,2.6164,2.5382,2.5382,2.4587,2.3075,2.3075,2.2542,2.1645,2.1731,2.1165,1.9982,1.9502,1.7552,1.4706,1.3353,1.1901,1.0438,0.8965,0.6939,0.4457,2.2429,2.2225,2.2338,2.2183,2.4272,2.6521,2.8176,3.0024,3.0614,2.8812,2.7883,2.7294,2.7294,2.6657,2.6278,2.6278,2.6362,2.661,2.6999,2.7626,2.8187,2.8585,2.8834,2.916,2.9651,2.9872,2.9782,2.9496,3.0203,3.0417,3.0063,3.082,3.1842,3.3059,3.4142,3.5165,3.6073,3.6626,3.6782,3.6694,3.6885,3.6702,3.6394,3.6678,3.6508,3.6122,3.5947,3.6107,3.6195,3.5215,3.5067,3.5001,3.4099,3.3437,3.2834,3.2277,3.1267,3.0254,2.9731,2.8872,2.7951,2.7172,2.6535,2.5844,2.4493,2.361,2.2812,2.1557,2.0635,1.9756,1.8762,1.726,1.5337,1.2921,1.19,1.1725,1.2487,1.2548,1.3207,1.5015,1.6417,1.7106,1.6772,1.8638,1.9608,1.9009,2.0488,2.1431,2.1507,2.2531,2.3441,2.4082,2.3963,2.4313,2.5063,2.5134,2.4921,2.4492,2.4636,2.4276,2.3559,2.3139,2.2777,2.2402,2.1959,2.1262,2.0235,1.8709,1.7009,1.513,1.4041,1.3021,1.2072,1.0269,0.8869,0.7537,2.2256,2.2128,2.2618,2.3695,2.6182,2.8574,3.0482,3.2491,3.3007,3.0708,2.8859,2.7757,2.7996,2.7504,2.7156,2.7045,2.7409,2.7696,2.7742,2.8846,2.9574,2.9729,3.0343,3.0722,3.0722,3.1696,3.1829,3.1106,3.1829,3.2051,3.1712,3.1843,3.2626,3.3943,3.5306,3.5985,3.6197,3.6596,3.6748,3.6697,3.6664,3.6476,3.6267,3.6356,3.6283,3.6104,3.5927,3.6172,3.6566,3.5753,3.554,3.5444,3.5249,3.4476,3.3561,3.3353,3.2263,3.118,3.118,3.0393,2.9474,2.9037,2.8556,2.7794,2.6,2.5013,2.4073,2.2377,2.1303,2.0184,1.846,1.7908,1.7058,1.5304,1.3884,1.3193,1.3802,1.3703,1.4137,1.5801,1.726,1.776,1.7017,1.8567,1.9213,1.806,1.9256,2.0129,2.0372,2.1257,2.2027,2.267,2.2627,2.2977,2.3818,2.3818,2.3818,2.3818,2.4036,2.4108,2.4036,2.335,2.3001,2.2916,2.2101,2.1021,1.9766,1.7997,1.6624,1.5567,1.4559,1.4139,1.3795,1.1391,1.0443,1.0005,2.3102,2.3178,2.3809,2.5722,2.8071,2.9634,2.9873,3.1861,3.3458,3.3534,3.1812,3.0614,3.066,2.9815,2.9031,2.8455,2.8869,2.9209,2.9419,2.9626,3.0024,3.0823,3.1381,3.1649,3.1649,3.3448,3.4033,3.3322,3.4033,3.3743,3.2486,3.3114,3.3691,3.4271,3.5363,3.5664,3.5554,3.6489,3.6799,3.6748,3.7286,3.7036,3.6424,3.7003,3.6801,3.6161,3.6055,3.5959,3.5876,3.5681,3.5947,3.643,3.618,3.5109,3.3891,3.3575,3.2834,3.2105,3.1988,3.1502,3.0983,3.093,3.0467,2.9554,2.7615,2.6726,2.5667,2.3705,2.2945,2.2053,2.0353,1.9823,1.9216,1.778,1.6498,1.6239,1.7705,1.7277,1.7236,1.8238,1.8567,1.8399,1.7917,1.8434,1.8273,1.6944,1.863,1.9441,1.8895,2.0207,2.1201,2.1769,2.2403,2.3021,2.3818,2.3818,2.3818,2.3818,2.4036,2.4108,2.4036,2.335,2.2905,2.266,2.1873,2.0469,1.8718,1.831,1.718,1.5567,1.4559,1.4139,1.388,1.1918,1.0799,1.0183,2.4581,2.46,2.5372,2.7796,2.8946,3.0046,3.1677,3.2665,3.3347,3.3565,3.23,3.1726,3.2379,3.1092,2.9927,2.9642,2.9984,3.0136,2.9741,3.0177,3.0859,3.1603,3.1882,3.2218,3.2648,3.4225,3.4728,3.3965,3.4728,3.4971,3.4771,3.4639,3.5047,3.5843,3.6287,3.6317,3.6008,3.6481,3.665,3.6588,3.6757,3.6605,3.6312,3.6559,3.6422,3.6044,3.5919,3.6105,3.6439,3.6191,3.5997,3.5817,3.5583,3.5077,3.4453,3.3858,3.3042,3.2273,3.1886,3.14,3.0897,3.0705,3.066,3.024,2.8578,2.7639,2.6549,2.4708,2.3426,2.2543,2.1969,2.1381,2.0499,1.9352,1.8336,1.7588,1.7409,1.7613,1.8069,1.8957,1.952,1.9678,1.9362,1.9371,1.8807,1.744,1.8647,1.9204,1.87,1.9344,2.0585,2.2424,2.1431,2.1507,2.2947,2.236,2.208,2.208,2.2371,2.3021,2.3891,2.2681,2.2025,2.1787,2.1349,2.0079,1.847,1.8798,1.7594,1.5499,1.5636,1.5304,1.4741,1.3457,1.2851,1.2419,2.6542,2.6526,2.7212,2.9673,3.0041,3.0663,3.2548,3.2815,3.2967,3.3295,3.2551,3.2406,3.3357,3.2247,3.1321,3.1257,3.1474,3.1267,3.0535,3.1114,3.169,3.216,3.2749,3.3241,3.3492,3.5265,3.5839,3.5121,3.5839,3.6291,3.6482,3.589,3.6013,3.677,3.6919,3.6748,3.6434,3.6543,3.6544,3.6544,3.6402,3.6318,3.6293,3.6251,3.6165,3.6036,3.5949,3.6202,3.6537,3.6371,3.5893,3.5448,3.5457,3.5252,3.4873,3.4147,3.3365,3.2687,3.2091,3.1548,3.1046,3.0864,3.082,3.0585,2.9479,2.8605,2.7526,2.5945,2.454,2.3654,2.3421,2.2564,2.1648,2.086,1.9652,1.8512,1.7614,1.7836,1.8322,1.8646,1.9268,1.9724,1.9935,1.9585,1.8948,1.7836,1.8656,1.8895,1.8301,1.8709,1.9894,2.1918,2.0692,2.0624,2.1928,2.1272,2.0906,2.0906,2.1512,2.2456,2.3672,2.2734,2.1863,2.1138,2.1118,2.0148,1.863,1.9134,1.7925,1.5824,1.646,1.6147,1.5257,1.4398,1.4139,1.3964,2.8964,2.897,2.9226,3.1282,3.1673,3.1673,3.1685,3.1685,3.2131,3.338,3.3059,3.2934,3.3481,3.3382,3.3398,3.3454,3.337,3.3048,3.2501,3.2613,3.2618,3.2403,3.4345,3.5085,3.4298,3.6917,3.7994,3.7354,3.7994,3.7922,3.728,3.6551,3.6365,3.6711,3.6824,3.6768,3.6498,3.6646,3.6702,3.6702,3.6544,3.6502,3.6502,3.636,3.6276,3.6225,3.6182,3.6053,3.5834,3.5834,3.5673,3.5576,3.61,3.5889,3.5244,3.434,3.3969,3.3638,3.2897,3.2277,3.1874,3.1874,3.1363,3.0774,3.0307,2.9788,2.8988,2.7452,2.6749,2.5984,2.4712,2.3412,2.2491,2.2353,2.0552,1.9204,1.9204,1.8802,1.8238,1.7431,1.7606,1.8241,1.9352,1.8626,1.7989,1.7963,1.8647,1.8523,1.7473,1.8407,1.9204,1.9599,2.042,2.0906,2.0906,2.0906,2.0906,2.0906,2.1883,2.2745,2.3514,2.4108,2.3106,2.0906,2.1548,2.0837,1.9301,1.9301,1.8247,1.6698,1.6698,1.6147,1.5257,1.4398,1.4139,1.388,3.1517,3.1695,3.1854,3.2086,3.2025,3.2013,3.2525,3.245,3.2674,3.3541,3.35,3.362,3.4211,3.4334,3.4245,3.4153,3.3804,3.3432,3.3186,3.2891,3.3283,3.4626,3.5344,3.5995,3.6523,3.7873,3.8374,3.7994,3.8278,3.8277,3.7994,3.8199,3.8084,3.7711,3.7708,3.7393,3.6865,3.6797,3.6748,3.6748,3.6684,3.6661,3.6643,3.6602,3.6502,3.6377,3.6318,3.6191,3.6036,3.5861,3.5745,3.5723,3.5716,3.5513,3.5052,3.439,3.399,3.3544,3.2455,3.2273,3.2191,3.1438,3.1251,3.1003,3.0263,2.9383,2.8523,2.7627,2.7648,2.7369,2.6084,2.5267,2.4243,2.276,2.1597,2.0409,1.911,1.9262,1.9181,1.8605,1.9217,1.9901,2.0397,1.9197,1.8318,1.8238,1.7456,1.7212,1.7594,1.8496,1.9678,2.1201,2.0789,2.0876,2.1603,2.1021,2.0954,2.1558,2.1949,2.2327,2.2606,2.3243,2.2499,2.0731,2.0867,2.0313,1.9381,1.9932,1.8798,1.678,1.735,1.6714,1.5347,1.509,1.4999,1.4915,3.3405,3.3379,3.3177,3.3158,3.2909,3.2859,3.3602,3.3602,3.3771,3.4441,3.4441,3.4677,3.5655,3.5669,3.552,3.5405,3.4626,3.4258,3.4492,3.4211,3.4589,3.5885,3.6599,3.7231,3.7648,3.8613,3.8887,3.843,3.8794,3.892,3.8865,3.9418,3.9461,3.9042,3.8931,3.8481,3.7749,3.7422,3.7114,3.6869,3.6748,3.6725,3.6725,3.6702,3.6643,3.6585,3.6591,3.6426,3.6233,3.6156,3.6002,3.5861,3.5745,3.5503,3.5148,3.4382,3.4053,3.3633,3.2594,3.242,3.234,3.1663,3.1238,3.0769,2.9821,2.9256,2.8834,2.8196,2.8362,2.8095,2.6767,2.6225,2.5442,2.3642,2.2575,2.158,2.0287,2.0355,2.0359,1.9702,2.0301,2.0838,2.1067,1.9857,1.886,1.8455,1.7523,1.7196,1.7585,1.8256,1.9432,2.1135,2.0634,2.0712,2.1441,2.1155,2.1308,2.1832,2.2521,2.2681,2.2456,2.3537,2.2713,2.0644,2.1242,2.0847,1.9854,2.0411,1.9432,1.7674,1.7917,1.7107,1.5824,1.5506,1.5431,1.5431,3.4621,3.3973,3.358,3.4433,3.4131,3.3998,3.4979,3.5074,3.5318,3.599,3.5722,3.5949,3.7477,3.7246,3.7014,3.7078,3.5916,3.5492,3.6214,3.6336,3.6306,3.6276,3.8019,3.8684,3.7994,3.9135,3.947,3.8837,3.947,3.9764,3.9764,4.022,4.0449,4.0463,4.0283,3.98,3.9048,3.8444,3.7747,3.7097,3.6926,3.6869,3.6829,3.6766,3.6725,3.6766,3.7031,3.6816,3.6433,3.6643,3.6416,3.6062,3.6019,3.5844,3.547,3.4577,3.4202,3.3937,3.3235,3.2718,3.2376,3.2321,3.1304,3.0059,2.9146,2.9345,2.9539,2.8921,2.8862,2.8457,2.6897,2.6614,2.6235,2.4775,2.3637,2.2795,2.2236,2.1997,2.1463,2.0665,2.0845,2.109,2.1446,2.0541,1.9579,1.8628,1.8554,1.8264,1.744,1.7755,1.8567,1.9863,2.0098,2.042,2.0644,2.1385,2.1832,2.1983,2.3452,2.3756,2.3106,2.4564,2.3537,2.0789,2.236,2.2059,2.0566,2.0644,2.0167,1.9222,1.8318,1.7513,1.6698,1.5824,1.5506,1.5506,3.5189,3.4728,3.4463,3.4943,3.4458,3.4402,3.5803,3.5883,3.5976,3.6652,3.6652,3.6858,3.7691,3.7553,3.7843,3.884,3.7521,3.6794,3.703,3.7051,3.7296,3.7764,3.8668,3.9206,3.9382,4.012,4.04,4.0152,4.0203,4.022,4.022,4.0685,4.0903,4.0932,4.0587,4.032,4.0098,3.9075,3.8534,3.832,3.7678,3.7334,3.7182,3.7143,3.7203,3.7243,3.7319,3.734,3.7324,3.6981,3.6781,3.6597,3.6131,3.5975,3.5844,3.5407,3.5038,3.4706,3.3953,3.3479,3.3008,3.2431,3.1304,3.0115,2.9512,2.9224,2.9061,2.8765,2.9269,2.9387,2.8009,2.8138,2.7775,2.5568,2.4893,2.3978,2.2252,2.2436,2.2331,2.1145,2.1636,2.2013,2.1791,2.0987,1.9877,1.8471,1.8385,1.7977,1.7131,1.7853,1.8665,1.9636,1.9863,2.0401,2.1318,2.1614,2.2424,2.3599,2.4564,2.4564,2.3818,2.4192,2.3305,2.1538,2.2585,2.2059,2.0644,2.1242,2.0615,1.9222,1.8318,1.7836,1.7594,1.6698,1.6378,1.6378,3.6341,3.6004,3.5952,3.6703,3.6264,3.617,3.7429,3.7462,3.7615,3.8219,3.8144,3.8294,3.8928,3.9028,3.95,4.0576,3.9107,3.8181,3.8233,3.8528,3.8669,3.8717,3.9295,3.9747,3.9986,4.0531,4.0879,4.0984,4.0938,4.0891,4.0891,4.1375,4.1595,4.1578,4.1487,4.1238,4.0869,4.0164,3.9414,3.8774,3.8327,3.7879,3.7447,3.7447,3.7522,3.765,3.7721,3.7808,3.7823,3.7596,3.734,3.6978,3.658,3.6326,3.6088,3.5932,3.5639,3.5211,3.4738,3.4284,3.3716,3.2687,3.169,3.0837,3.0104,2.947,2.9064,2.9121,2.93,2.9197,2.8387,2.8491,2.8138,2.6356,2.5891,2.5126,2.3511,2.3541,2.3298,2.211,2.2361,2.2543,2.232,2.1599,2.0601,1.9425,1.8998,1.8573,1.787,1.8271,1.8923,2.0029,2.0177,2.0712,2.1634,2.2306,2.3327,2.4636,2.5087,2.4862,2.4108,2.4492,2.3599,2.1832,2.3021,2.2424,2.0644,2.1461,2.1298,2.0372,1.9492,1.9167,1.9009,1.8195,1.7326,1.6698,3.7625,3.7519,3.7544,3.8532,3.8257,3.8189,3.8974,3.9104,3.9307,3.9834,3.9662,3.9804,4.06,4.0899,4.1383,4.2125,4.0862,3.9926,3.9642,4.0263,4.0197,3.9276,3.9885,4.0204,4.0221,4.0659,4.1157,4.163,4.163,4.163,4.1674,4.2115,4.2338,4.2338,4.2534,4.2253,4.1625,4.1286,4.0369,3.9045,3.8938,3.8382,3.7667,3.7685,3.7827,3.8013,3.8231,3.8245,3.8227,3.8342,3.7893,3.7283,3.7097,3.6741,3.636,3.6251,3.5975,3.5667,3.5412,3.5041,3.4366,3.2992,3.2345,3.1762,3.0881,3.0058,2.9498,2.9536,2.916,2.8673,2.8213,2.8286,2.8086,2.7025,2.6755,2.6224,2.4988,2.4659,2.4155,2.3135,2.2882,2.2803,2.2715,2.2216,2.1451,2.0499,2.0084,1.9636,1.9164,1.902,1.957,2.0898,2.0751,2.1031,2.1949,2.315,2.4177,2.5099,2.517,2.4874,2.4204,2.4945,2.4059,2.2145,2.361,2.2872,2.0722,2.1614,2.1832,2.1527,2.0817,2.0575,2.0575,1.9681,1.8506,1.7253,3.7808,3.8043,3.8297,3.8629,3.8257,3.8189,3.8974,3.9104,3.9307,3.9834,4.0317,4.0831,4.1478,4.1933,4.2423,4.3031,4.3201,4.2525,4.071,4.1498,4.1287,3.9435,4.0251,4.0767,4.0707,4.1139,4.163,4.2074,4.2074,4.2157,4.2257,4.2634,4.2862,4.2974,4.29,4.2772,4.2609,4.192,4.107,4.0167,3.957,3.8724,3.7846,3.8034,3.8216,3.841,3.864,3.8894,3.9147,3.8759,3.8291,3.7807,3.7379,3.6995,3.6602,3.636,3.6259,3.6088,3.5667,3.5118,3.4497,3.3729,3.2986,3.2275,3.1804,3.0999,3.0072,2.924,2.9296,2.9121,2.8081,2.8638,2.8838,2.743,2.7425,2.6964,2.5041,2.4648,2.4079,2.2969,2.2803,2.2706,2.2441,2.2385,2.1738,2.0324,2.0862,2.0833,2.015,2.0309,2.1063,2.2424,2.1211,2.1328,2.2777,2.3666,2.4189,2.4406,2.4706,2.479,2.4706,2.4849,2.4334,2.3372,2.4261,2.3361,2.1195,2.2371,2.1983,2.0789,2.0585,2.0971,2.1517,2.0643,2.01,1.9709,3.9121,3.9751,4.011,3.9982,4.0018,4.0024,4.0031,4.0021,4.0339,4.1245,4.1625,4.2045,4.2613,4.3439,4.4001,4.4294,4.5058,4.4766,4.2907,4.2873,4.2137,4.0417,4.0978,4.149,4.1725,4.1937,4.2262,4.275,4.275,4.2788,4.2826,4.2995,4.3087,4.316,4.3087,4.305,4.3032,4.2668,4.2032,4.1233,4.0451,3.9618,3.8769,3.8449,3.8396,3.8585,3.8766,3.9017,3.9202,3.9101,3.8789,3.8387,3.8125,3.7685,3.7226,3.6921,3.6516,3.6062,3.5711,3.5241,3.4771,3.4333,3.3646,3.2949,3.2695,3.189,3.0955,3.0332,2.9964,2.95,2.865,2.8834,2.8839,2.7956,2.7951,2.7573,2.6273,2.5568,2.4914,2.4166,2.358,2.3057,2.2784,2.2706,2.218,2.1094,2.135,2.1525,2.1344,2.1199,2.1678,2.2772,2.2244,2.2317,2.3298,2.3677,2.397,2.42,2.4418,2.4502,2.4502,2.4502,2.4043,2.3298,2.4345,2.3677,2.1873,2.267,2.2585,2.1832,2.1364,2.1441,2.1756,2.1364,2.0595,1.9747,4.0504,4.1435,4.1909,4.1713,4.1969,4.1976,4.1549,4.137,4.1591,4.2694,4.2941,4.3246,4.3706,4.4753,4.5425,4.5425,4.6323,4.623,4.4607,4.4057,4.305,4.1356,4.1725,4.2144,4.2483,4.2619,4.2846,4.3214,4.3214,4.3214,4.3251,4.3196,4.3214,4.3251,4.3196,4.3214,4.3214,4.3214,4.274,4.192,4.1136,4.0333,3.9513,3.8757,3.8541,3.8664,3.8873,3.9045,3.921,3.938,3.9165,3.8857,3.8799,3.8355,3.7773,3.7506,3.6882,3.6199,3.5783,3.5407,3.5085,3.4818,3.4284,3.3694,3.345,3.2711,3.1905,3.1304,3.0659,2.9955,2.9114,2.8879,2.8677,2.8299,2.8299,2.7992,2.7186,2.6427,2.5757,2.5189,2.4262,2.358,2.3309,2.3057,2.2618,2.1811,2.1909,2.2114,2.2294,2.2068,2.2249,2.2861,2.294,2.315,2.3446,2.3446,2.3604,2.3897,2.4043,2.4043,2.4043,2.4043,2.3751,2.3224,2.42,2.3751,2.2327,2.282,2.2809,2.2435,2.1983,2.1832,2.1832,2.1983,2.1145,1.9835,4.1253,4.229,4.3094,4.3712,4.3276,4.3025,4.3508,4.297,4.2766,4.3376,4.3956,4.439,4.4446,4.5442,4.6119,4.6119,4.6584,4.623,4.4607,4.4833,4.4132,4.2008,4.2266,4.2444,4.2483,4.2939,4.316,4.3214,4.3214,4.3251,4.3376,4.3251,4.3251,4.3394,4.3251,4.3214,4.3214,4.3214,4.274,4.192,4.1136,4.0333,3.9546,3.8964,3.8792,3.8803,3.9017,3.9245,3.9458,3.9502,3.9313,3.9072,3.9072,3.8536,3.7877,3.7773,3.7451,3.6939,3.6174,3.5756,3.547,3.5068,3.4818,3.4448,3.3797,3.3398,3.2834,3.1477,3.1072,3.0555,2.9233,2.8876,2.8607,2.8148,2.8149,2.7936,2.6846,2.6551,2.6019,2.4914,2.4413,2.4069,2.38,2.357,2.3047,2.2041,2.2589,2.294,2.2698,2.3093,2.3238,2.3059,2.3026,2.3001,2.3075,2.3075,2.3075,2.3075,2.3446,2.3666,2.3666,2.3666,2.3593,2.3593,2.4043,2.3298,2.1883,2.267,2.2134,2.0867,2.1538,2.1832,2.1907,2.266,2.236,2.1527,4.2613,4.3698,4.4412,4.5096,4.4897,4.4658,4.4797,4.4198,4.3984,4.4849,4.52,4.551,4.595,4.6624,4.7071,4.7071,4.7506,4.7102,4.5467,4.5528,4.4856,4.3013,4.3069,4.3105,4.3105,4.3286,4.3393,4.3393,4.3393,4.3428,4.3463,4.3428,4.3428,4.3463,4.3428,4.3393,4.3393,4.3393,4.321,4.2844,4.2056,4.1251,4.0445,3.9735,3.9124,3.8652,3.8892,3.9017,3.9082,3.9219,3.9173,3.9119,3.9119,3.8915,3.8633,3.8337,3.7841,3.7321,3.6999,3.6539,3.5968,3.5498,3.5148,3.4754,3.4284,3.3848,3.3314,3.2516,3.2018,3.1392,3.0165,2.9372,2.869,2.7898,2.7523,2.7247,2.6964,2.6405,2.5995,2.5891,2.5263,2.468,2.4231,2.4155,2.3734,2.2765,2.295,2.3299,2.3627,2.3916,2.385,2.3147,2.3088,2.2929,2.2628,2.2777,2.2777,2.2852,2.3075,2.3224,2.3224,2.3224,2.3001,2.2703,2.3519,2.3298,2.2327,2.2446,2.2145,2.1634,2.1098,2.0944,2.1011,2.075,2.0527,2.0226,4.3776,4.4966,4.5869,4.6878,4.6753,4.652,4.6721,4.591,4.5606,4.6433,4.6524,4.6713,4.7147,4.756,4.7761,4.7761,4.8096,4.7627,4.6012,4.5424,4.4635,4.3534,4.3497,4.3497,4.3497,4.3497,4.3497,4.3497,4.3497,4.3497,4.3497,4.3497,4.3497,4.3497,4.3497,4.3497,4.3497,4.3513,4.3513,4.3424,4.265,4.1842,4.1034,4.0226,3.9368,3.8603,3.8833,3.8921,3.896,3.9192,3.9272,3.9245,3.9324,3.9245,3.9027,3.867,3.818,3.7756,3.7721,3.7266,3.6701,3.6071,3.5633,3.5224,3.4771,3.4333,3.3815,3.3208,3.2672,3.2048,3.1087,2.986,2.8743,2.8103,2.7271,2.6749,2.6864,2.6366,2.605,2.6411,2.5775,2.52,2.485,2.468,2.4241,2.3299,2.3396,2.3744,2.4262,2.4273,2.3924,2.3124,2.2966,2.2661,2.2187,2.2478,2.2628,2.2703,2.2777,2.2852,2.3001,2.2927,2.2628,2.2176,2.315,2.315,2.2327,2.2145,2.208,2.1873,2.0731,2.042,2.0566,2.0235,1.9766,1.9301,4.4613,4.5911,4.7374,4.934,4.8903,4.8576,4.955,4.8405,4.752,4.7864,4.7922,4.7922,4.7922,4.8012,4.8104,4.8104,4.8214,4.7609,4.5993,4.4378,4.3532,4.3532,4.3479,4.3497,4.3479,4.3479,4.3479,4.3479,4.3479,4.3479,4.3479,4.3479,4.3479,4.3479,4.3479,4.3479,4.3532,4.3582,4.3548,4.3458,4.2699,4.1922,4.1112,4.032,3.951,3.8822,3.8881,3.9036,3.9264,3.9575,3.9623,3.9532,3.9807,3.9452,3.8881,3.875,3.8546,3.835,3.8168,3.7966,3.7596,3.6816,3.6301,3.5827,3.5161,3.4769,3.4333,3.3487,3.2942,3.2437,3.1838,3.024,2.8876,2.8556,2.7477,2.6625,2.6408,2.64,2.6427,2.6348,2.5909,2.5559,2.5559,2.5211,2.4498,2.3521,2.4079,2.454,2.454,2.4126,2.367,2.3194,2.2739,2.2273,2.1807,2.2187,2.2478,2.2703,2.2478,2.2628,2.3001,2.2777,2.2478,2.2176,2.315,2.2777,2.1502,2.1928,2.17,2.1128,2.0498,2.042,2.0722,2.1461,2.0682,1.9371,4.5833,4.7325,4.864,5.0185,4.9607,4.9216,5.0138,4.8916,4.8125,4.8785,4.8884,4.8884,4.8884,4.8954,4.9006,4.8959,4.8506,4.7548,4.5854,4.4649,4.3999,4.3999,4.3664,4.3615,4.3846,4.3846,4.386,4.3923,4.3923,4.3846,4.3719,4.3719,4.3719,4.3719,4.3719,4.3719,4.3719,4.3719,4.3719,4.3701,4.3461,4.2535,4.1243,4.1003,4.0062,3.8862,3.8892,3.8921,3.9007,3.9101,3.9129,3.9129,3.9383,3.9219,3.8921,3.9073,3.8902,3.8652,3.8621,3.8415,3.8016,3.7228,3.6917,3.6615,3.6054,3.5644,3.5157,3.4382,3.3563,3.2841,3.2272,3.0511,2.8975,2.8556,2.7143,2.5983,2.5619,2.5402,2.5315,2.5297,2.5109,2.5088,2.5084,2.4946,2.469,2.4176,2.4368,2.454,2.454,2.4416,2.3991,2.3215,2.3049,2.2604,2.1818,2.2035,2.2252,2.2252,2.2478,2.2628,2.2553,2.2777,2.2317,2.1328,2.2166,2.209,2.1252,2.0934,2.1021,2.1349,2.0411,2.0186,2.0333,2.0157,1.9353,1.8399,4.6724,4.8422,4.9777,5.0783,5.0412,5.0143,5.0434,4.954,4.8987,4.9627,4.973,4.973,4.973,4.9683,4.9608,4.958,4.8438,4.7212,4.5972,4.4917,4.4346,4.4346,4.398,4.3873,4.4079,4.4079,4.4151,4.4289,4.4192,4.4121,4.4121,4.3897,4.3897,4.4091,4.3897,4.3851,4.3942,4.3974,4.3929,4.3804,4.3942,4.3132,4.1835,4.1502,4.0577,3.9394,3.909,3.895,3.895,3.9129,3.9192,3.9219,3.9317,3.9202,3.9064,3.9283,3.9147,3.8921,3.895,3.8785,3.8504,3.8029,3.7632,3.7246,3.6724,3.634,3.5899,3.5157,3.4284,3.3375,3.254,3.0764,2.915,2.8427,2.7015,2.5786,2.5227,2.4934,2.4686,2.4508,2.4519,2.4626,2.4661,2.4681,2.4615,2.4368,2.4368,2.4368,2.4368,2.4368,2.4124,2.3484,2.3287,2.2832,2.2087,2.1977,2.2025,2.2101,2.2252,2.2327,2.2402,2.2231,2.17,2.0944,2.1308,2.1242,2.0779,2.0391,2.0557,2.1031,2.0255,2.002,2.0264,1.9932,1.9045,1.7997,4.7439,4.9344,5.0799,5.1194,5.1287,5.1169,5.0641,5.0118,4.991,5.0259,5.0348,5.0412,5.0412,5.0197,5.0043,5.0062,4.8211,4.6796,4.6187,4.5217,4.465,4.465,4.443,4.4289,4.4289,4.425,4.4374,4.4631,4.4402,4.4402,4.4624,4.4121,4.4121,4.4553,4.4109,4.4005,4.4221,4.426,4.4151,4.3897,4.4181,4.3666,4.2662,4.1834,4.097,4.0148,3.937,3.9092,3.9092,3.9471,3.9623,3.9623,3.9476,3.9301,3.9256,3.9373,3.9275,3.9129,3.921,3.9156,3.9045,3.9073,3.8499,3.7807,3.7325,3.7006,3.6649,3.5942,3.5015,3.3922,3.2739,3.0997,2.9338,2.8233,2.7002,2.5873,2.5075,2.4692,2.434,2.3952,2.4041,2.4115,2.4116,2.4355,2.4368,2.4206,2.4206,2.4206,2.4206,2.4206,2.4077,2.3804,2.334,2.2886,2.2501,2.2035,2.1883,2.2101,2.1883,2.2025,2.2327,2.1308,2.0847,2.0857,2.0508,2.0285,2.0157,2.0089,2.0245,2.0489,2.002,2.0029,2.0264,2.0411,1.9441,1.7997,4.8224,5.0576,5.2233,5.1694,5.164,5.1504,5.0948,5.0279,4.9955,5.0325,5.039,5.0435,5.0478,5.0459,5.0459,5.0396,4.8647,4.7003,4.5726,4.5297,4.5074,4.5074,4.5011,4.4966,4.4966,4.4676,4.4676,4.4988,4.4919,4.4849,4.4751,4.4624,4.4519,4.4438,4.4546,4.4511,4.4374,4.4374,4.4457,4.4546,4.4192,4.3666,4.2969,4.1975,4.1089,4.0328,3.95,3.9248,3.932,3.9425,3.9432,3.9476,3.9399,3.9373,3.9373,3.9391,3.9373,3.9354,3.942,3.9408,3.9427,3.9508,3.9389,3.899,3.8223,3.7857,3.7524,3.6911,3.5788,3.4631,3.3793,3.1591,2.9558,2.8707,2.7245,2.5791,2.4576,2.4185,2.3821,2.3139,2.3061,2.3231,2.3628,2.3835,2.4013,2.4206,2.4024,2.3937,2.3937,2.3937,2.3735,2.3375,2.2929,2.2473,2.2165,2.1804,2.1655,2.1883,2.1959,2.2035,2.1873,2.1308,2.0924,2.0634,1.9756,1.9668,2.0167,1.932,1.9548,2.0167,1.9292,1.9381,1.9942,1.9696,1.8886,1.7755,4.939,5.1307,5.2383,5.1823,5.1911,5.1695,5.0681,5.0253,5.0202,5.0548,5.0545,5.0523,5.0625,5.0644,5.0297,4.9431,4.8449,4.7222,4.5646,4.5438,4.5342,4.5201,4.5201,4.5201,4.5201,4.4988,4.503,4.5342,4.5222,4.5159,4.518,4.4919,4.4849,4.4966,4.4849,4.48,4.4776,4.4776,4.48,4.4776,4.4624,4.4353,4.3851,4.2491,4.1738,4.1243,3.9871,3.942,3.9444,3.9444,3.9469,3.9495,3.9495,3.9495,3.9502,3.9514,3.9539,3.9564,3.9665,3.9693,3.9712,3.9781,3.9758,3.9532,3.8915,3.8603,3.8287,3.7771,3.6671,3.547,3.4609,3.236,3.0247,2.9039,2.7233,2.5569,2.436,2.3728,2.3099,2.2513,2.2512,2.2773,2.3274,2.3483,2.3619,2.3831,2.3764,2.3677,2.3677,2.3677,2.3567,2.3509,2.2865,2.2412,2.2332,2.1683,2.1185,2.0934,2.1165,2.1252,2.1165,2.0129,1.9668,1.9618,1.8656,1.8576,1.9143,1.8851,1.9011,1.939,1.8727,1.9054,1.9627,1.8727,1.7827,1.6854,5.0487,5.1909,5.243,5.1992,5.221,5.1916,5.0382,5.0344,5.0567,5.079,5.0735,5.0701,5.0803,5.064,4.9855,4.824,4.797,4.7257,4.5682,4.5586,4.5495,4.5282,4.5282,4.5282,4.5282,4.5282,4.5381,4.5586,4.5381,4.5381,4.5586,4.514,4.5159,4.5513,4.5118,4.5052,4.5222,4.5222,4.5118,4.4966,4.5096,4.5096,4.4794,4.3209,4.2528,4.2208,4.0495,3.9741,3.9577,3.9577,3.9602,3.9626,3.9626,3.965,3.9656,3.9712,3.9739,3.9762,3.9911,3.9933,3.9933,3.9975,3.9914,3.9807,3.9532,3.9242,3.8952,3.8573,3.7592,3.6474,3.5522,3.3535,3.1475,2.9671,2.7601,2.5733,2.4397,2.3276,2.2402,2.1949,2.2066,2.2321,2.2895,2.3022,2.3093,2.3278,2.3367,2.3329,2.3319,2.3416,2.3493,2.358,2.2818,2.2441,2.2441,2.1569,2.0722,1.9904,2.006,2.0226,2.0138,1.8638,1.8247,1.8665,1.7708,1.7554,1.804,1.8451,1.8531,1.8442,1.8158,1.8559,1.8984,1.7585,1.6609,1.5786,5.088,5.2905,5.4,5.2634,5.2728,5.2472,5.0924,5.077,5.0865,5.0953,5.0959,5.0937,5.0887,5.0217,4.9285,4.8201,4.7532,4.67,4.568,4.5586,4.5586,4.555,4.555,4.555,4.555,4.555,4.5568,4.5586,4.5568,4.5568,4.5586,4.5532,4.5419,4.5263,4.5419,4.5419,4.5302,4.5302,4.54,4.5526,4.5105,4.5063,4.5111,4.3971,4.3126,4.2444,4.1433,4.0549,3.9848,3.9848,3.9781,3.9689,3.9689,3.9758,3.9867,3.9867,3.9867,3.9911,4.0036,4.0057,4.0098,4.0215,4.0233,4.0215,4.0101,3.9813,3.9537,3.9364,3.8608,3.7799,3.7163,3.5771,3.3865,3.1389,2.9288,2.7059,2.4483,2.2861,2.1776,2.1349,2.1509,2.167,2.178,2.2154,2.2464,2.2598,2.2766,2.2794,2.253,2.2969,2.3057,2.2979,2.2324,2.204,2.2205,2.1342,2.0576,1.9894,1.9186,1.8948,1.9097,1.8158,1.8095,1.8665,1.7375,1.7221,1.804,1.804,1.787,1.7521,1.7277,1.7261,1.7253,1.6445,1.5951,1.5621,5.2047,5.3615,5.418,5.3138,5.3127,5.274,5.1205,5.0966,5.1016,5.1191,5.1092,5.0991,5.0959,5.0139,4.9203,4.8201,4.7433,4.6596,4.5661,4.5586,4.5586,4.5586,4.5586,4.5586,4.5586,4.5586,4.5586,4.5586,4.5586,4.5586,4.5586,4.5586,4.5568,4.5495,4.5603,4.5603,4.551,4.551,4.5599,4.568,4.5435,4.5435,4.5464,4.4512,4.3667,4.2799,4.137,4.0425,3.9918,3.9939,3.9939,3.9897,3.9848,3.9848,3.9911,3.9994,4.0036,4.0098,4.0196,4.0234,4.0272,4.0344,4.0362,4.0362,4.0325,4.0196,4.0022,3.975,3.9214,3.8672,3.8348,3.7025,3.55,3.4037,3.2163,2.9531,2.5679,2.4189,2.2661,2.041,2.033,2.062,2.1021,2.1236,2.147,2.1784,2.2036,2.2187,2.21,2.2484,2.26,2.2284,2.1861,2.1593,2.1504,2.0968,2.0333,1.952,1.8718,1.8238,1.8158,1.7367,1.7204,1.7538,1.6976,1.6894,1.7302,1.7554,1.7708,1.761,1.6788,1.6049,1.5387,1.5553,1.5311,1.4734]}]]